ftp/pub/palmer/observations_modified/2019/June/AR190608_BASE.txt

Download

Sample DateTime	Unit Id	WS Avg 2min	WD Avg 2min	WGS 10min	WGD 10min	Air Temp	Rel Humidity	Dew Point	Pyranometer	Quantum	Air Pressure	Snow Level	Rainfall	PW Current	Visibility	CBase 1	CBase 2	CBase 3	Vert Vis
2019/06/08  00:00:00  BASE  10.5958  34   12.7067  27   -1.4  100   -1.4  0     0     982.8    NA       0.0000   9999     2690  0     0    
2019/06/08  00:01:00  BASE  9.91956  32   12.5244  27   -1.4  100   -1.4  0     0     982.8    NA       0.0000   9999     2720  0     0    
2019/06/08  00:02:00  BASE  9.75492  31   11.7953  33   -1.4  100   -1.4  0     0     982.8    NA       0.0000   9999     2690  0     0    
2019/06/08  00:03:00  BASE  10.096   31   11.7953  33   -1.4  100   -1.4  0     0     982.9    NA       0.0000   9999     2660  0     0    
2019/06/08  00:04:00  BASE  9.59028  34   11.7953  33   -1.4  100   -1.4  0     0     982.9    NA       0.0000   9999     2660  0     0    
2019/06/08  00:05:00  BASE  9.47856  37   11.7953  33   -1.4  100   -1.4  0     0     982.9    NA       0.0000   9999     2720  0     0    
2019/06/08  00:06:00  BASE  9.39624  36   11.7953  33   -1.4  100   -1.4  0     0     982.9    NA       0.0000   9999     2790  0     0    
2019/06/08  00:07:00  BASE  9.03756  36   11.7953  33   -1.4  100   -1.4  0     0     982.9    NA       0.0000   9999     2720  0     0    
2019/06/08  00:08:00  BASE  8.27904  39   11.7953  33   -1.4  100   -1.4  0     0     982.9    NA       0.0000   9999     2690  0     0    
2019/06/08  00:09:00  BASE  7.69692  38   11.1896  39   -1.3  100   -1.3  0     0     983.0    NA       0.0000   9999     2660  0     0    
2019/06/08  00:10:00  BASE  7.90272  36   11.1896  39   -1.3  100   -1.3  0     0     982.9    NA       0.0000   9999     2660  0     0    
2019/06/08  00:11:00  BASE  8.16732  36   11.1896  39   -1.3  100   -1.3  0     0     983.0    NA       0.0000   9999     2560  0     0    
2019/06/08  00:12:00  BASE  8.1438   36   11.1896  39   -1.3  100   -1.3  0     0     983.0    NA       0.0000   9999     2430  0     0    
2019/06/08  00:13:00  BASE  8.3496   36   11.1896  39   -1.2  100   -1.2  0     0     982.9    NA       0.0000   9999     2430  0     0    
2019/06/08  00:14:00  BASE  8.46132  36   11.1896  39   -1.2  100   -1.2  0     0     982.9    NA       0.0000   9999     2490  0     0    
2019/06/08  00:15:00  BASE  7.15596  37   10.3135  31   -1.2  100   -1.2  0     0     983.0    NA       0.0000   9999     2620  0     0    
2019/06/08  00:16:00  BASE  6.87372  39   10.3135  31   -1.1  100   -1.1  0     0     983.0    NA       0.0000   9999     2620  0     0    
2019/06/08  00:17:00  BASE  8.40252  38   10.1018  35   -1.1  100   -1.1  0     0     982.9    NA       0.0000   9999     2560  0     0    
2019/06/08  00:18:00  BASE  8.57892  32   10.1018  35   -1.0  100   -1.0  0     0     983.0    NA       0.0000   9999     2460  0     0    
2019/06/08  00:19:00  BASE  7.84392  35   10.1018  35   -1.0  100   -1.0  0     0     983.0    NA       0.0000   9999     2490  0     0    
2019/06/08  00:20:00  BASE  7.53816  41   10.1018  35   -1.1  100   -1.1  0     0     983.0    NA       0.0000   9999     2530  0     0    
2019/06/08  00:21:00  BASE  6.89136  40   10.1018  35   -1.1  100   -1.1  0     0     983.0    NA       0.0000   9999     2360  0     0    
2019/06/08  00:22:00  BASE  7.6734   39   10.1018  35   -1.1  100   -1.1  0     0     982.9    NA       0.0000   9999     2360  4460  0    
2019/06/08  00:23:00  BASE  8.60832  36   10.1018  35   -1.1  100   -1.1  0     0     982.9    NA       0.0000   9999     2400  4590  0    
2019/06/08  00:24:00  BASE  7.63812  34   10.1018  35   -1.1  100   -1.1  0     0     983.0    NA       0.0000   9999     2460  2920  0    
2019/06/08  00:25:00  BASE  6.87372  38   10.1018  35   -1.1  100   -1.1  0     0     983.0    NA       0.0000   9999     2460  4760  0    
2019/06/08  00:26:00  BASE  6.62676  42   10.1018  35   -1.1  100   -1.1  0     0     983.0    NA       0.0000   9999     2360  0     0    
2019/06/08  00:27:00  BASE  6.13872  43   9.4962   34   -1.1  100   -1.1  0     0     983.0    NA       0.0000   9999     2400  0     0    
2019/06/08  00:28:00  BASE  7.15596  43   9.4962   34   -1.1  100   -1.1  0     0     982.9    NA       0.0000   9999     2360  0     0    
2019/06/08  00:29:00  BASE  8.18496  38   9.4962   34   -1.1  100   -1.1  0     0     982.9    NA       0.0000   9999     2330  0     0    
2019/06/08  00:30:00  BASE  7.36764  33   9.4962   34   -1.1  100   -1.1  0     0     982.9    NA       0.0000   9999     2260  4820  0    
2019/06/08  00:31:00  BASE  6.41508  37   9.4962   34   -1.1  100   -1.1  0     0     982.9    NA       0.0000   9999     2200  0     0    
2019/06/08  00:32:00  BASE  5.27436  50   9.4962   34   -1.1  100   -1.1  0     0     983.0    NA       0.0000   9999     2200  0     0    
2019/06/08  00:33:00  BASE  4.29828  55   9.13752  45   -1.0  100   -1.1  0     0     983.0    NA       0.0000   9999     2130  4490  0    
2019/06/08  00:34:00  BASE  4.78632  53   9.13752  45   -1.0  99    -1.1  0     0     983.0    NA       0.0000   9999     2200  0     0    
2019/06/08  00:35:00  BASE  5.94468  54   9.13752  45   -0.9  99    -1.0  0     0     982.9    NA       0.0000   9999     2070  4720  0    
2019/06/08  00:36:00  BASE  6.321    54   9.13752  45   -0.9  98    -1.1  0     0     982.9    NA       0.0000   9999     2070  4660  0    
2019/06/08  00:37:00  BASE  5.57424  57   9.13752  45   -0.9  98    -1.2  0     0     982.9    NA       0.0000   9999     4660  0     0    
2019/06/08  00:38:00  BASE  5.0274   76   9.10224  33   -0.9  97    -1.3  0     0     982.9    NA       0.0000   9999     4660  0     0    
2019/06/08  00:39:00  BASE  4.88628  93   7.80276  34   -0.9  97    -1.3  0     0     982.9    NA       0.0000   9999     2330  4760  0    
2019/06/08  00:40:00  BASE  4.62168  93   7.05012  56   -0.9  97    -1.3  0     0     983.0    NA       0.0000   9999     4690  0     0    
2019/06/08  00:41:00  BASE  4.25712  94   7.05012  56   -0.8  97    -1.3  0     0     983.0    NA       0.0000   9999     4690  0     0    
2019/06/08  00:42:00  BASE  3.969    92   7.05012  56   -0.8  97    -1.2  0     0     983.0    NA       0.0000   9999     4690  0     0    
2019/06/08  00:43:00  BASE  3.63972  90   7.05012  56   -0.8  98    -1.1  0     0     983.0    NA       0.0000   9999     4720  0     0    
2019/06/08  00:44:00  BASE  2.98704  90   7.05012  56   -0.8  98    -1.1  0     0     983.1    NA       0.0000   9999     4760  0     0    
2019/06/08  00:45:00  BASE  2.42844  95   7.05012  56   -0.8  99    -1.0  0     0     983.1    NA       0.0000   9999     4760  0     0    
2019/06/08  00:46:00  BASE  1.95804  101  5.74476  61   -0.9  99    -1.0  0     0     983.1    NA       0.0000   9999     4720  0     0    
2019/06/08  00:47:00  BASE  2.05212  103  5.3214   100  -0.9  100   -1.0  0     0     983.0    NA       0.0000   9999     4720  0     0    
2019/06/08  00:48:00  BASE  2.9694   98   5.145    83   -0.9  100   -1.0  0     0     983.0    NA       0.0000   9999     4690  0     0    
2019/06/08  00:49:00  BASE  3.48096  102  5.08032  90   -0.9  100   -0.9  0     0     982.9    NA       0.0000   9999     4690  0     0    
2019/06/08  00:50:00  BASE  3.49272  111  4.50996  91   -1.0  100   -1.0  0     0     982.9    NA       0.0000   9999     4660  0     0    
2019/06/08  00:51:00  BASE  3.98664  114  4.65696  118  -1.0  100   -1.0  0     0     982.9    NA       0.0000   9999     4630  0     0    
2019/06/08  00:52:00  BASE  4.22184  114  4.65696  118  -0.9  100   -0.9  0     0     982.9    NA       0.0000   9999     4560  0     0    
2019/06/08  00:53:00  BASE  4.22772  114  4.86864  112  -0.9  100   -0.9  0     0     982.9    NA       0.0000   9999     4590  0     0    
2019/06/08  00:54:00  BASE  4.65108  113  5.145    112  -0.9  100   -0.9  0     0     982.8    NA       0.0000   9999     4630  0     0    
2019/06/08  00:55:00  BASE  4.88628  112  5.2038   114  -1.0  100   -1.0  0     0     982.8    NA       0.0000   9999     4530  0     0    
2019/06/08  00:56:00  BASE  4.75692  111  5.2038   114  -1.0  100   -1.0  0     0     982.9    NA       0.0000   9999     4530  0     0    
2019/06/08  00:57:00  BASE  4.42764  111  5.2038   114  -1.0  100   -1.0  0     0     982.8    NA       0.0000   9999     4560  0     0    
2019/06/08  00:58:00  BASE  4.3806   111  5.2038   114  -1.0  100   -1.0  0     0     982.8    NA       0.0000   9999     4690  0     0    
2019/06/08  00:59:00  BASE  4.68048  113  5.2038   114  -1.1  100   -1.1  0     0     982.8    NA       0.0000   9999     4860  0     0    
2019/06/08  01:00:00  BASE  4.7628   114  5.2038   114  -1.1  100   -1.1  0     0     982.8    NA       0.0000   9999     4820  0     0    
2019/06/08  01:01:00  BASE  4.66872  114  5.2038   114  -1.1  100   -1.1  0     0     982.8    NA       0.0000   9999     4890  0     0    
2019/06/08  01:02:00  BASE  4.8216   114  5.2626   116  -1.1  100   -1.1  0     0     982.8    NA       0.0000   9999     4920  0     0    
2019/06/08  01:03:00  BASE  4.851    116  5.2626   116  -1.1  100   -1.1  0     0     982.8    NA       0.0000   9999     4890  0     0    
2019/06/08  01:04:00  BASE  4.5276   117  5.2626   116  -1.2  100   -1.2  0     0     982.8    NA       0.0000   9999     4920  0     0    
2019/06/08  01:05:00  BASE  4.5864   120  5.2626   116  -1.2  100   -1.2  0     0     982.8    NA       0.0000   9999     4720  0     0    
2019/06/08  01:06:00  BASE  4.76868  123  5.2626   116  -1.2  100   -1.2  0     0     982.8    NA       0.0000   9999     4820  0     0    
2019/06/08  01:07:00  BASE  4.65108  127  5.2626   116  -1.2  100   -1.2  0     0     982.8    NA       0.0000   9999     4950  0     0    
2019/06/08  01:08:00  BASE  4.51584  125  5.2626   116  -1.2  100   -1.2  0     0     982.8    NA       0.0000   9999     4820  0     0    
2019/06/08  01:09:00  BASE  4.32768  123  5.2626   116  -1.2  100   -1.2  0     0     982.8    NA       0.0000   9999     4820  0     0    
2019/06/08  01:10:00  BASE  4.263    122  5.2626   116  -1.2  100   -1.2  0     0     982.8    NA       0.0000   9999     4660  0     0    
2019/06/08  01:11:00  BASE  4.36884  119  5.2626   116  -1.2  100   -1.2  0     0     982.8    NA       0.0000   9999     4560  0     0    
2019/06/08  01:12:00  BASE  4.34532  119  5.2332   124  -1.2  100   -1.2  0     0     982.8    NA       0.0000   9999     4430  0     0    
2019/06/08  01:13:00  BASE  4.43352  119  5.2332   124  -1.2  100   -1.2  0     0     982.8    NA       0.0000   9999     4490  0     0    
2019/06/08  01:14:00  BASE  4.68048  118  5.2332   124  -1.3  100   -1.3  0     0     982.8    NA       0.0000   9999     4530  0     0    
2019/06/08  01:15:00  BASE  4.75104  118  5.145    128  -1.2  100   -1.2  0     0     982.8    NA       0.0000   9999     4560  0     0    
2019/06/08  01:16:00  BASE  4.74516  120  5.145    128  -1.3  100   -1.3  0     0     982.8    NA       0.0000   9999     4560  0     0    
2019/06/08  01:17:00  BASE  4.77456  120  5.145    118  -1.3  100   -1.3  0     0     982.8    NA       0.0000   9999     4460  0     0    
2019/06/08  01:18:00  BASE  4.63932  121  5.145    118  -1.3  100   -1.3  0     0     982.8    NA       0.0000   9999     4530  0     0    
2019/06/08  01:19:00  BASE  4.56876  123  5.145    118  -1.3  100   -1.3  0     0     982.8    NA       0.0000   9999     4630  0     0    
2019/06/08  01:20:00  BASE  4.65108  122  5.145    118  -1.3  100   -1.3  0     0     982.8    NA       0.0000   9999     4560  0     0    
2019/06/08  01:21:00  BASE  4.6452   120  5.145    118  -1.3  100   -1.3  0     0     982.8    NA       0.0000   9999     4430  0     0    
2019/06/08  01:22:00  BASE  4.39236  122  5.145    118  -1.3  100   -1.3  0     0     982.8    NA       0.0000   9999     4400  0     0    
2019/06/08  01:23:00  BASE  4.09248  122  5.145    118  -1.3  100   -1.3  0     0     982.8    NA       0.0000   9999     4300  0     0    
2019/06/08  01:24:00  BASE  3.98664  120  5.145    118  -1.3  100   -1.3  0     0     982.8    NA       0.0000   9999     4430  0     0    
2019/06/08  01:25:00  BASE  3.9396   120  5.145    118  -1.3  100   -1.3  0     0     982.8    NA       0.0000   9999     4560  0     0    
2019/06/08  01:26:00  BASE  3.86904  119  5.145    118  -1.3  100   -1.3  0     0     982.8    NA       0.0000   9999     4590  0     0    
2019/06/08  01:27:00  BASE  3.76908  120  5.02152  120  -1.3  100   -1.3  0     0     982.8    NA       0.0000   9999     4560  0     0    
2019/06/08  01:28:00  BASE  3.68088  122  5.02152  120  -1.3  100   -1.3  0     0     982.8    NA       0.0000   9999     4590  0     0    
2019/06/08  01:29:00  BASE  3.48684  127  5.02152  120  -1.4  100   -1.4  0     0     982.8    NA       0.0000   9999     4560  0     0    
2019/06/08  01:30:00  BASE  3.21636  129  4.86864  123  -1.4  100   -1.4  0     0     982.8    NA       0.0000   9999     4530  0     0    
2019/06/08  01:31:00  BASE  3.00468  130  4.47468  121  -1.4  100   -1.4  0     0     982.8    NA       0.0000   9999     4530  0     0    
2019/06/08  01:32:00  BASE  2.793    131  4.2336   118  -1.4  100   -1.4  0     0     982.8    NA       0.0000   9999     4490  0     0    
2019/06/08  01:33:00  BASE  2.78712  130  4.2336   118  -1.4  100   -1.4  0     0     982.8    NA       0.0000   9999     4430  0     0    
2019/06/08  01:34:00  BASE  2.8812   131  4.1454   121  -1.5  100   -1.5  0     0     982.8    NA       0.0000   9999     4430  0     0    
2019/06/08  01:35:00  BASE  2.89884  131  4.08072  116  -1.5  100   -1.5  0     0     982.8    NA       0.0000   9999     4430  0     0    
2019/06/08  01:36:00  BASE  2.94588  128  3.99252  121  -1.5  100   -1.5  0     0     982.8    NA       0.0000   9999     4460  0     0    
2019/06/08  01:37:00  BASE  3.06348  126  3.93372  126  -1.5  100   -1.5  0     0     982.8    NA       0.0000   9999     4430  0     0    
2019/06/08  01:38:00  BASE  3.18108  128  3.56916  128  -1.5  100   -1.5  0     0     982.8    NA       0.0000   9999     4430  0     0    
2019/06/08  01:39:00  BASE  3.087    129  3.53976  126  -1.4  100   -1.4  0     0     982.8    NA       0.0000   9999     4360  0     0    
2019/06/08  01:40:00  BASE  3.13404  132  3.53976  133  -1.4  100   -1.4  0     0     982.7    NA       0.0000   9999     4430  0     0    
2019/06/08  01:41:00  BASE  3.3222   136  3.75144  138  -1.4  100   -1.4  0     0     982.7    NA       0.0000   9999     4430  0     0    
2019/06/08  01:42:00  BASE  3.28104  138  3.75144  138  -1.4  100   -1.4  0     0     982.7    NA       0.0000   9999     4430  0     0    
2019/06/08  01:43:00  BASE  3.09876  140  3.75144  138  -1.4  100   -1.4  0     0     982.7    NA       0.0000   9999     4460  0     0    
2019/06/08  01:44:00  BASE  2.88708  141  3.75144  138  -1.4  100   -1.4  0     0     982.7    NA       0.0000   9999     4430  0     0    
2019/06/08  01:45:00  BASE  2.64012  139  3.75144  138  -1.4  100   -1.4  0     0     982.7    NA       0.0000   9999     4430  0     0    
2019/06/08  01:46:00  BASE  2.33436  140  3.75144  138  -1.4  100   -1.4  0     0     982.7    NA       0.0000   9999     4490  0     0    
2019/06/08  01:47:00  BASE  1.98156  134  3.75144  138  -1.4  100   -1.4  0     0     982.8    NA       0.0000   9999     4530  0     0    
2019/06/08  01:48:00  BASE  1.71696  123  3.75144  138  -1.4  100   -1.4  0     0     982.8    NA       0.0000   9999     4460  0     0    
2019/06/08  01:49:00  BASE  1.72872  116  3.75144  138  -1.4  100   -1.4  0     0     982.8    NA       0.0000   9999     4430  0     0    
2019/06/08  01:50:00  BASE  1.93452  115  3.75144  138  -1.4  100   -1.4  0     0     982.7    NA       0.0000   9999     4400  0     0    
2019/06/08  01:51:00  BASE  2.11092  114  3.48096  141  -1.4  100   -1.4  0     0     982.7    NA       0.0000   9999     4400  0     0    
2019/06/08  01:52:00  BASE  2.2638   109  3.29868  140  -1.4  100   -1.4  0     0     982.7    NA       0.0000   9999     4460  0     0    
2019/06/08  01:53:00  BASE  2.2932   100  3.1458   141  -1.5  100   -1.5  0     0     982.7    NA       0.0000   9999     4400  0     0    
2019/06/08  01:54:00  BASE  2.0286   96   2.93412  139  -1.5  100   -1.5  0     0     982.7    NA       0.0000   9999     4400  6790  0    
2019/06/08  01:55:00  BASE  1.54644  97   2.54016  104  -1.5  100   -1.5  0     0     982.7    NA       0.0000   9999     4430  6730  0    
2019/06/08  01:56:00  BASE  1.27008  96   2.54016  104  -1.6  100   -1.6  0     0     982.7    NA       0.0000   9999     4430  6790  0    
2019/06/08  01:57:00  BASE  1.3524   96   2.54016  104  -1.6  100   -1.6  0     0     982.7    NA       0.0000   9999     4430  6860  0    
2019/06/08  01:58:00  BASE  1.4994   102  2.54016  104  -1.6  100   -1.6  0     0     982.7    NA       0.0000   9999     4460  6270  0    
2019/06/08  01:59:00  BASE  1.42884  108  2.54016  104  -1.6  100   -1.6  0     0     982.7    NA       0.0000   9999     4490  6270  0    
2019/06/08  02:00:00  BASE  1.3524   110  2.54016  104  -1.6  100   -1.6  0     0     982.7    NA       0.0000   9999     4490  6270  0    
2019/06/08  02:01:00  BASE  1.22304  118  2.54016  104  -1.6  100   -1.6  0     0     982.7    NA       0.0000   9999     4460  6300  0    
2019/06/08  02:02:00  BASE  0.95256  131  2.38728  95   -1.6  100   -1.6  0     0     982.6    NA       0.0000   9999     4460  6200  0    
2019/06/08  02:03:00  BASE  0.588    153  2.0286   95   -1.6  100   -1.6  0     0     982.6    NA       0.0000   9999     4490  0     0    
2019/06/08  02:04:00  BASE  0.1764   167  1.63464  105  -1.5  100   -1.5  0     0     982.6    NA       0.0000   9999     4490  0     0    
2019/06/08  02:05:00  BASE  0.0294   158  1.63464  105  -1.5  100   -1.5  0     0     982.6    NA       0.0000   9999     4460  0     0    
2019/06/08  02:06:00  BASE  0.45276  145  1.63464  105  -1.6  100   -1.6  0     0     982.6    NA       0.0000   9999     4490  0     0    
2019/06/08  02:07:00  BASE  0.89964  138  1.63464  105  -1.6  100   -1.6  0     0     982.6    NA       0.0000   9999     4530  0     0    
2019/06/08  02:08:00  BASE  1.01724  138  1.48176  130  -1.6  100   -1.6  0     0     982.6    NA       0.0000   9999     4530  0     0    
2019/06/08  02:09:00  BASE  1.04664  135  1.48176  130  -1.6  100   -1.6  0     0     982.6    NA       0.0000   9999     4530  0     0    
2019/06/08  02:10:00  BASE  1.00548  139  1.48176  130  -1.5  100   -1.5  0     0     982.6    NA       0.0000   9999     4590  0     0    
2019/06/08  02:11:00  BASE  1.01136  146  1.48176  130  -1.5  100   -1.5  0     0     982.6    NA       0.0000   9999     4590  0     0    
2019/06/08  02:12:00  BASE  1.02312  142  1.48176  130  -1.5  100   -1.5  0     0     982.5    NA       0.0000   9999     4590  0     0    
2019/06/08  02:13:00  BASE  1.14072  134  1.48176  130  -1.5  100   -1.5  0     0     982.5    NA       0.0000   9999     4590  0     0    
2019/06/08  02:14:00  BASE  1.32888  133  1.54056  140  -1.5  100   -1.5  0     0     982.5    NA       0.0000   9999     4590  0     0    
2019/06/08  02:15:00  BASE  1.25832  135  1.54056  140  -1.5  100   -1.5  0     0     982.4    NA       0.0000   9999     4630  0     0    
2019/06/08  02:16:00  BASE  0.81732  136  1.54056  140  -1.5  100   -1.5  0     0     982.5    NA       0.0000   9999     4630  0     0    
2019/06/08  02:17:00  BASE  0.25284  156  1.54056  140  -1.5  100   -1.5  0     0     982.5    NA       0.0000   9999     4720  0     0    
2019/06/08  02:18:00  BASE  0.0294   209  1.54056  140  -1.5  100   -1.5  0     0     982.6    NA       0.0000   9999     4690  0     0    
2019/06/08  02:19:00  BASE  0.0294   236  1.54056  140  -1.6  100   -1.6  0     0     982.6    NA       0.0000   9999     4720  0     0    
2019/06/08  02:20:00  BASE  0        232  1.54056  140  -1.6  100   -1.6  0     0     982.6    NA       0.0000   9999     4720  0     0    
2019/06/08  02:21:00  BASE  0        240  1.54056  140  -1.6  100   -1.6  0     0     982.6    NA       0.0000   9999     4720  0     0    
2019/06/08  02:22:00  BASE  0        252  1.54056  140  -1.6  100   -1.6  0     0     982.6    NA       0.0000   9999     4720  0     0    
2019/06/08  02:23:00  BASE  0        256  1.54056  140  -1.6  100   -1.6  0     0     982.6    NA       0.0000   9999     4720  0     0    
2019/06/08  02:24:00  BASE  0        256  1.35828  128  -1.5  100   -1.5  0     0     982.6    NA       0.0000   9999     4760  0     0    
2019/06/08  02:25:00  BASE  0        256  0.9996   138  -1.5  100   -1.5  0     0     982.6    NA       0.0000   9999     4790  0     0    
2019/06/08  02:26:00  BASE  0.07644  282  0.63504  322  -1.5  100   -1.5  0     0     982.5    NA       0.0000   9999     4790  0     0    
2019/06/08  02:27:00  BASE  0.49392  316  1.0584   323  -1.5  100   -1.5  0     0     982.4    NA       0.0000   9999     4760  0     0    
2019/06/08  02:28:00  BASE  0.9702   322  1.18188  319  -1.5  100   -1.5  0     0     982.4    NA       0.0000   9999     4720  0     0    
2019/06/08  02:29:00  BASE  1.13484  322  1.29948  318  -1.5  100   -1.5  0     0     982.4    NA       0.0000   9999     4720  6690  0    
2019/06/08  02:30:00  BASE  1.22304  322  1.45236  325  -1.5  100   -1.5  0     0     982.4    NA       0.0000   9999     6790  0     0    
2019/06/08  02:31:00  BASE  1.5288   322  1.90512  321  -1.6  100   -1.6  0     0     982.4    NA       0.0000   9999     6860  0     0    
2019/06/08  02:32:00  BASE  1.86396  318  2.1462   316  -1.6  100   -1.6  0     0     982.4    NA       0.0000   9999     6760  0     0    
2019/06/08  02:33:00  BASE  1.97568  315  2.1462   316  -1.6  100   -1.6  0     0     982.4    NA       0.0000   9999     6790  0     0    
2019/06/08  02:34:00  BASE  1.94628  317  2.1462   316  -1.5  100   -1.5  0     0     982.3    NA       0.0000   9999     6730  0     0    
2019/06/08  02:35:00  BASE  1.84632  315  2.1462   316  -1.5  100   -1.5  0     0     982.3    NA       0.0000   9999     6760  0     0    
2019/06/08  02:36:00  BASE  1.76988  310  2.1462   316  -1.5  100   -1.5  0     0     982.3    NA       0.0000   9999     6690  0     0    
2019/06/08  02:37:00  BASE  1.72872  305  2.1462   316  -1.5  100   -1.5  0     0     982.3    NA       0.0000   9999     6730  0     0    
2019/06/08  02:38:00  BASE  1.71696  304  2.1462   316  -1.5  100   -1.5  0     0     982.3    NA       0.0000   9999     6730  0     0    
2019/06/08  02:39:00  BASE  1.72284  303  2.1462   316  -1.5  100   -1.5  0     0     982.3    NA       0.0000   9999     1180  6660  0    
2019/06/08  02:40:00  BASE  1.64052  300  2.1462   316  -1.5  100   -1.5  0     0     982.3    NA       0.0000   9999     6660  0     0    
2019/06/08  02:41:00  BASE  1.47588  297  2.1462   316  -1.4  100   -1.4  0     0     982.3    NA       0.0000   9999     1180  6630  0    
2019/06/08  02:42:00  BASE  1.37592  293  2.058    314  -1.4  100   -1.4  0     0     982.3    NA       0.0000   9999     1210  6590  0    
2019/06/08  02:43:00  BASE  1.30536  289  2.0286   318  -1.4  100   -1.4  0     0     982.3    NA       0.0000   9999     1210  6590  0    
2019/06/08  02:44:00  BASE  1.22304  289  1.87572  314  -1.4  100   -1.4  0     0     982.3    NA       0.0000   9999     1150  6630  0    
2019/06/08  02:45:00  BASE  1.16424  294  1.84632  303  -1.4  100   -1.4  0     0     982.3    NA       0.0000   9999     1150  6590  0    
2019/06/08  02:46:00  BASE  1.1466   303  1.84632  303  -1.4  100   -1.4  0     0     982.3    NA       0.0000   9999     4990  6590  0    
2019/06/08  02:47:00  BASE  1.18188  312  1.84632  303  -1.4  100   -1.4  0     0     982.3    NA       0.0000   9999     4990  6590  0    
2019/06/08  02:48:00  BASE  1.22304  321  1.84632  303  -1.4  100   -1.4  0     0     982.3    NA       0.0000   9999     4990  6590  7190 
2019/06/08  02:49:00  BASE  1.25832  329  1.69344  299  -1.4  100   -1.4  0     0     982.3    NA       0.0000   9999     5020  6560  7150 
2019/06/08  02:50:00  BASE  1.43472  332  1.69344  336  -1.4  100   -1.4  0     0     982.3    NA       0.0000   9999     4990  6430  6990 
2019/06/08  02:51:00  BASE  1.65228  335  1.75224  339  -1.4  100   -1.4  0     0     982.3    NA       0.0000   9999     5020  6430  0    
2019/06/08  02:52:00  BASE  1.69932  338  1.87572  341  -1.4  100   -1.4  0     0     982.3    NA       0.0000   9999     4920  6460  0    
2019/06/08  02:53:00  BASE  1.82868  341  2.0286   343  -1.4  100   -1.4  0     0     982.3    NA       0.0000   9999     4920  6460  0    
2019/06/08  02:54:00  BASE  1.94628  344  2.0286   343  -1.4  100   -1.4  0     0     982.3    NA       0.0000   9999     6960  0     0    
2019/06/08  02:55:00  BASE  1.86984  352  2.0286   343  -1.4  100   -1.4  0     0     982.3    NA       0.0000   9999     6400  0     0    
2019/06/08  02:56:00  BASE  2.06388  353  2.63424  349  -1.4  100   -1.4  0     0     982.3    NA       0.0000   9999     6330  0     0    
2019/06/08  02:57:00  BASE  2.35788  349  2.63424  349  -1.4  100   -1.4  0     0     982.3    NA       0.0000   9999     6300  0     0    
2019/06/08  02:58:00  BASE  2.37552  352  2.63424  349  -1.5  100   -1.5  0     0     982.3    NA       0.0000   9999     6270  6920  0    
2019/06/08  02:59:00  BASE  2.34024  353  2.63424  349  -1.5  100   -1.5  0     0     982.2    NA       0.0000   9999     1250  6430  0    
2019/06/08  03:00:00  BASE  2.39904  1    2.63424  349  -1.5  100   -1.5  0     0     982.2    NA       0.0000   9999     1250  0     0    
2019/06/08  03:01:00  BASE  2.48724  2    2.63424  349  -1.5  100   -1.5  0     0     982.2    NA       0.0000   9999     1280  0     0    
2019/06/08  03:02:00  BASE  2.5578   354  2.87532  350  -1.5  100   -1.5  0     0     982.2    NA       0.0000   9999     1280  0     0    
2019/06/08  03:03:00  BASE  2.7342   351  2.93412  348  -1.5  100   -1.5  0     0     982.2    NA       0.0000   9999     1280  0     0    
2019/06/08  03:04:00  BASE  2.91648  349  3.26928  353  -1.5  100   -1.5  0     0     982.2    NA       0.0000   9999     1210  0     0    
2019/06/08  03:05:00  BASE  3.09288  350  3.29868  350  -1.5  100   -1.5  0     0     982.2    NA       0.0000   9999     1210  6530  0    
2019/06/08  03:06:00  BASE  3.09876  350  3.29868  350  -1.5  100   -1.5  0     0     982.2    NA       0.0000   9999     1210  0     0    
2019/06/08  03:07:00  BASE  2.92824  348  3.29868  350  -1.5  100   -1.5  0     0     982.2    NA       0.0000   9999     1210  0     0    
2019/06/08  03:08:00  BASE  2.84592  346  3.29868  350  -1.5  100   -1.5  0     0     982.2    NA       0.0000   9999     1250  6790  0    
2019/06/08  03:09:00  BASE  2.83416  344  3.29868  350  -1.5  100   -1.5  0     0     982.3    NA       0.0000   9999     1350  6560  0    
2019/06/08  03:10:00  BASE  2.86944  344  3.29868  350  -1.4  100   -1.4  0     0     982.3    NA       0.0000   9999     6370  0     0    
2019/06/08  03:11:00  BASE  2.92824  347  3.29868  350  -1.4  100   -1.4  0     0     982.3    NA       0.0000   9999     1480  6140  0    
2019/06/08  03:12:00  BASE  3.05172  349  3.48096  347  -1.4  100   -1.4  0     0     982.3    NA       0.0000   9999     1440  0     0    
2019/06/08  03:13:00  BASE  3.02232  349  3.48096  347  -1.4  100   -1.4  0     0     982.3    NA       0.0000   9999     1440  0     0    
2019/06/08  03:14:00  BASE  2.79888  344  3.48096  347  -1.4  100   -1.4  0     0     982.3    NA       0.0000   9999     1410  0     0    
2019/06/08  03:15:00  BASE  2.6166   335  3.48096  347  -1.5  100   -1.5  0     0     982.3    NA       0.0000   9999     1440  0     0    
2019/06/08  03:16:00  BASE  2.57544  326  3.48096  347  -1.5  100   -1.5  0     0     982.3    NA       0.0000   9999     1510  0     0    
2019/06/08  03:17:00  BASE  2.65188  321  3.48096  347  -1.5  100   -1.5  0     0     982.3    NA       0.0000   9999     1480  0     0    
2019/06/08  03:18:00  BASE  2.5578   321  3.48096  347  -1.4  100   -1.4  0     0     982.3    NA       0.0000   9999     1510  5050  0    
2019/06/08  03:19:00  BASE  2.42256  326  3.48096  347  -1.4  100   -1.4  0     0     982.3    NA       0.0000   9999     1410  5050  0    
2019/06/08  03:20:00  BASE  2.56368  327  3.48096  347  -1.4  100   -1.4  0     0     982.3    NA       0.0000   9999     1610  5050  0    
2019/06/08  03:21:00  BASE  2.74008  329  3.48096  347  -1.4  100   -1.4  0     0     982.3    NA       0.0000   9999     1710  5250  0    
2019/06/08  03:22:00  BASE  2.646    343  3.26928  351  -1.5  100   -1.5  0     0     982.3    NA       0.0000   9999     1670  5280  0    
2019/06/08  03:23:00  BASE  2.5578   347  3.087    340  -1.5  100   -1.5  0     0     982.3    NA       0.0000   9999     1840  5220  0    
2019/06/08  03:24:00  BASE  2.55192  344  3.087    340  -1.5  100   -1.5  0     0     982.3    NA       0.0000   9999     5090  0     0    
2019/06/08  03:25:00  BASE  2.36376  338  3.087    340  -1.5  100   -1.5  0     0     982.3    NA       0.0000   9999     1740  5180  0    
2019/06/08  03:26:00  BASE  1.85808  332  3.087    340  -1.5  100   -1.5  0     0     982.3    NA       0.0000   9999     1740  0     0    
2019/06/08  03:27:00  BASE  1.95804  350  3.35748  18   -1.5  100   -1.5  0     0     982.3    NA       0.0000   9999     1740  0     0    
2019/06/08  03:28:00  BASE  3.03996  11   4.1454   8    -1.4  100   -1.4  0     0     982.3    NA       0.0000   9999     1740  0     0    
2019/06/08  03:29:00  BASE  3.73968  9    4.2042   10   -1.4  100   -1.4  0     0     982.2    NA       0.0000   9999     1670  0     0    
2019/06/08  03:30:00  BASE  3.969    9    4.47468  15   -1.4  100   -1.4  0     0     982.2    NA       0.0000   9999     1800  0     0    
2019/06/08  03:31:00  BASE  4.40412  7    5.83884  6    -1.3  100   -1.3  0     0     982.2    NA       0.0000   9999     1870  0     0    
2019/06/08  03:32:00  BASE  4.96272  3    5.83884  6    -1.3  100   -1.3  0     0     982.2    NA       0.0000   9999     1940  5380  0    
2019/06/08  03:33:00  BASE  4.72752  7    5.83884  6    -1.3  100   -1.3  0     0     982.2    NA       0.0000   9999     1970  5320  0    
2019/06/08  03:34:00  BASE  4.35708  11   5.83884  6    -1.2  100   -1.2  0     0     982.2    NA       0.0000   9999     1970  5280  0    
2019/06/08  03:35:00  BASE  4.36884  11   5.83884  6    -1.2  100   -1.2  0     0     982.2    NA       0.0000   UP       9999  5220  0    
2019/06/08  03:36:00  BASE  4.06896  13   5.83884  6    -1.2  100   -1.2  0     0     982.2    NA       0.0000   UP       9999  5020  0    
2019/06/08  03:37:01  BASE  3.99252  14   5.83884  6    -1.2  100   -1.2  0     0     982.2    NA       0.0000   UP       9999  4920  0    
2019/06/08  03:38:00  BASE  3.99252  12   5.83884  6    -1.2  100   -1.2  0     0     982.2    NA       0.0000   UP       9999  4560  0    
2019/06/08  03:39:00  BASE  3.95724  15   5.83884  6    -1.2  100   -1.2  0     0     982.2    NA       0.0000   UP       9999  4890  0    
2019/06/08  03:40:00  BASE  3.528    20   5.83884  6    -1.1  100   -1.1  0     0     982.2    NA       0.0000   UP       9999  4860  0    
2019/06/08  03:41:00  BASE  2.66952  21   5.78004  3    -1.1  100   -1.1  0     0     982.2    NA       0.0000   UP       9999  4690  0    
2019/06/08  03:42:00  BASE  2.21676  17   4.93332  12   -1.1  100   -1.1  0     0     982.2    NA       0.0000   UP       9999  4530  0    
2019/06/08  03:43:00  BASE  2.03448  359  4.93332  12   -1.1  100   -1.1  0     0     982.2    NA       0.0000   UP       9999  4100  0    
2019/06/08  03:44:00  BASE  2.1462   337  4.93332  12   -1.1  100   -1.1  0     0     982.2    NA       0.0000   UP       9999  3610  4790 
2019/06/08  03:45:00  BASE  2.74596  319  4.38648  14   -1.1  100   -1.1  0     0     982.2    NA       0.0000   UP       9999  3310  4720 
2019/06/08  03:46:00  BASE  3.675    315  4.86864  324  -1.1  100   -1.1  0     0     982.2    NA       0.0000   9999     2660  4530  0    
2019/06/08  03:47:00  BASE  4.18068  325  4.86864  324  -1.1  100   -1.1  0     0     982.1    NA       0.0000   9999     2130  4490  0    
2019/06/08  03:48:00  BASE  4.06308  327  4.86864  324  -1.1  100   -1.1  0     0     982.2    NA       0.0000   9999     1570  4360  0    
2019/06/08  03:49:00  BASE  3.9984   321  4.86864  324  -1.1  100   -1.1  0     0     982.2    NA       0.0000   9999     1020  4330  0    
2019/06/08  03:50:00  BASE  4.08072  317  4.99212  322  -1.2  100   -1.2  0     0     982.1    NA       0.0000   9999     850   4300  0    
2019/06/08  03:51:00  BASE  4.21596  317  4.99212  322  -1.2  100   -1.2  0     0     982.1    NA       0.0000   9999     4170  0     0    
2019/06/08  03:52:00  BASE  4.2336   317  4.99212  322  -1.2  100   -1.2  0     0     982.1    NA       0.0000   9999     3640  0     0    
2019/06/08  03:53:00  BASE  3.84552  312  4.99212  322  -1.2  100   -1.2  0     0     982.1    NA       0.0000   9999     2490  0     0    
2019/06/08  03:54:00  BASE  3.52212  309  4.99212  322  -1.2  100   -1.2  0     0     982.1    NA       0.0000   9999     4170  0     0    
2019/06/08  03:55:00  BASE  3.34572  305  4.99212  322  -1.2  100   -1.2  0     0     982.1    NA       0.0000   9999     4230  0     0    
2019/06/08  03:56:00  BASE  3.30456  306  4.99212  322  -1.2  100   -1.2  0     0     982.1    NA       0.0000   9999     4200  0     0    
2019/06/08  03:57:00  BASE  3.59268  312  4.99212  322  -1.3  100   -1.3  0     0     982.1    NA       0.0000   9999     4040  0     0    
2019/06/08  03:58:00  BASE  3.69852  317  4.99212  322  -1.3  100   -1.3  0     0     982.1    NA       0.0000   9999     4130  0     0    
2019/06/08  03:59:00  BASE  3.38688  317  4.99212  322  -1.3  100   -1.3  0     0     982.1    NA       0.0000   9999     4130  0     0    
2019/06/08  04:00:00  BASE  3.1164   322  4.68636  321  -1.3  100   -1.3  0     0     982.1    NA       0.0000   9999     4040  0     0    
2019/06/08  04:01:00  BASE  2.96352  337  4.65696  319  -1.3  100   -1.3  0     0     982.1    NA       0.0000   9999     3940  0     0    
2019/06/08  04:02:00  BASE  2.98116  336  4.116    319  -1.3  100   -1.3  0     0     982.1    NA       0.0000   9999     4000  0     0    
2019/06/08  04:03:00  BASE  2.8224   330  4.116    319  -1.2  100   -1.2  0     0     982.1    NA       0.0000   9999     3940  0     0    
2019/06/08  04:04:00  BASE  2.06388  351  4.116    319  -1.2  100   -1.2  0     0     982.1    NA       0.0000   9999     4000  0     0    
2019/06/08  04:05:00  BASE  1.13484  7    4.116    319  -1.2  100   -1.2  0     0     982.1    NA       0.0000   9999     3970  0     0    
2019/06/08  04:06:00  BASE  0.77616  346  4.116    319  -1.2  100   -1.2  0     0     982.1    NA       0.0000   9999     3940  0     0    
2019/06/08  04:07:00  BASE  0.85848  318  4.116    319  -1.1  99    -1.2  0     0     982.1    NA       0.0000   9999     4000  0     0    
2019/06/08  04:08:00  BASE  0.74676  311  3.78084  327  -1.1  99    -1.3  0     0     982.1    NA       0.0000   9999     4000  0     0    
2019/06/08  04:09:00  BASE  0.3528   323  3.75144  337  -1.1  99    -1.3  0     0     982.1    NA       0.0000   9999     4040  0     0    
2019/06/08  04:10:00  BASE  0        347  3.75144  337  -1.2  98    -1.4  0     0     982.1    NA       0.0000   9999     4070  0     0    
2019/06/08  04:11:00  BASE  0        8    3.69264  335  -1.2  98    -1.5  0     0     982.1    NA       0.0000   9999     4000  0     0    
2019/06/08  04:12:00  BASE  0.21756  44   2.93412  346  -1.2  98    -1.5  0     0     982.1    NA       0.0000   9999     3970  0     0    
2019/06/08  04:13:00  BASE  0.68208  81   2.93412  346  -1.2  98    -1.5  0     0     982.1    NA       0.0000   9999     4000  0     0    
2019/06/08  04:14:00  BASE  0.84672  100  1.29948  305  -1.2  98    -1.5  0     0     982.0    NA       0.0000   9999     3970  0     0    
2019/06/08  04:15:00  BASE  0.85848  107  1.29948  305  -1.2  98    -1.4  0     0     982.0    NA       0.0000   9999     4000  0     0    
2019/06/08  04:16:00  BASE  0.90552  103  1.29948  305  -1.2  98    -1.5  0     0     982.0    NA       0.0000   9999     3940  0     0    
2019/06/08  04:17:00  BASE  0.98196  107  1.21128  105  -1.3  99    -1.5  0     0     982.0    NA       0.0000   9999     3940  0     0    
2019/06/08  04:18:00  BASE  1.22304  106  1.45236  107  -1.3  99    -1.5  0     0     982.0    NA       0.0000   9999     3740  0     0    
2019/06/08  04:19:00  BASE  1.41708  107  1.57584  109  -1.4  99    -1.5  0     0     982.0    NA       0.0000   9999     3770  0     0    
2019/06/08  04:20:00  BASE  1.57584  110  1.72284  110  -1.4  99    -1.6  0     0     982.0    NA       0.0000   9999     3770  0     0    
2019/06/08  04:21:00  BASE  1.69344  111  1.75224  113  -1.5  99    -1.5  0     0     982.0    NA       0.0000   9999     3770  0     0    
2019/06/08  04:22:00  BASE  1.69932  115  1.78752  115  -1.5  100   -1.5  0     0     982.0    NA       0.0000   9999     3870  0     0    
2019/06/08  04:23:00  BASE  1.76988  115  2.1462   111  -1.5  100   -1.5  0     0     982.0    NA       0.0000   9999     3900  0     0    
2019/06/08  04:24:00  BASE  1.99332  114  2.26968  118  -1.5  100   -1.5  0     0     981.9    NA       0.0000   9999     3770  0     0    
2019/06/08  04:25:00  BASE  2.21088  119  2.56956  116  -1.5  100   -1.5  0     0     981.9    NA       0.0000   9999     3900  0     0    
2019/06/08  04:26:00  BASE  2.32848  120  2.59896  116  -1.5  100   -1.5  0     0     981.9    NA       0.0000   9999     3940  0     0    
2019/06/08  04:27:00  BASE  2.44608  120  2.69304  124  -1.5  100   -1.5  0     0     981.8    NA       0.0000   9999     3900  0     0    
2019/06/08  04:28:00  BASE  2.40492  124  2.69304  124  -1.5  100   -1.5  0     0     981.8    NA       0.0000   9999     3810  0     0    
2019/06/08  04:29:00  BASE  2.45196  126  2.93412  135  -1.5  100   -1.5  0     0     981.8    NA       0.0000   9999     3900  0     0    
2019/06/08  04:30:00  BASE  2.793    129  3.2046   135  -1.4  100   -1.4  0     0     981.8    NA       0.0000   9999     3900  0     0    
2019/06/08  04:31:00  BASE  2.95176  129  3.2046   135  -1.4  100   -1.4  0     0     981.7    NA       0.0000   9999     3840  0     0    
2019/06/08  04:32:00  BASE  3.13404  127  3.65736  126  -1.4  100   -1.4  0     0     981.7    NA       0.0000   9999     3770  0     0    
2019/06/08  04:33:00  BASE  3.16932  129  3.65736  126  -1.4  100   -1.4  0     0     981.7    NA       0.0000   9999     3740  0     0    
2019/06/08  04:34:00  BASE  2.9694   131  3.65736  126  -1.4  100   -1.4  0     0     981.7    NA       0.0000   9999     3870  0     0    
2019/06/08  04:35:00  BASE  2.74008  127  3.65736  126  -1.4  100   -1.4  0     0     981.7    NA       0.0000   9999     3940  0     0    
2019/06/08  04:36:00  BASE  2.54604  123  3.65736  126  -1.4  100   -1.4  0     0     981.7    NA       0.0000   9999     3810  0     0    
2019/06/08  04:37:00  BASE  2.39904  117  3.65736  126  -1.3  100   -1.3  0     0     981.7    NA       0.0000   9999     3810  0     0    
2019/06/08  04:38:00  BASE  2.18736  112  3.65736  126  -1.3  100   -1.3  0     0     981.7    NA       0.0000   9999     3770  0     0    
2019/06/08  04:39:00  BASE  2.31672  108  3.65736  126  -1.3  100   -1.3  0     0     981.8    NA       0.0000   9999     3710  0     0    
2019/06/08  04:40:00  BASE  2.51076  106  3.65736  126  -1.3  100   -1.3  0     0     981.7    NA       0.0000   9999     3670  0     0    
2019/06/08  04:41:00  BASE  2.65776  102  3.65736  126  -1.4  100   -1.4  0     0     981.7    NA       0.0000   9999     3670  0     0    
2019/06/08  04:42:00  BASE  2.9106   95   3.38688  133  -1.4  100   -1.4  0     0     981.7    NA       0.0000   9999     3810  0     0    
2019/06/08  04:43:00  BASE  3.06348  87   3.234    88   -1.4  100   -1.4  0     0     981.7    NA       0.0000   UP       9999  3710  0    
2019/06/08  04:44:00  BASE  3.05172  81   3.234    88   -1.4  100   -1.4  0     0     981.7    NA       0.0000   UP       9999  3640  0    
2019/06/08  04:45:00  BASE  2.92236  79   3.234    88   -1.5  100   -1.5  0     0     981.7    NA       0.0000   UP       9999  3580  0    
2019/06/08  04:46:00  BASE  2.8812   81   3.234    88   -1.5  100   -1.5  0     0     981.7    NA       0.0000   UP       9999  3610  0    
2019/06/08  04:47:00  BASE  2.9694   83   3.35748  87   -1.5  100   -1.5  0     0     981.7    NA       0.0000   UP       9999  3580  0    
2019/06/08  04:48:00  BASE  3.1164   86   3.35748  87   -1.5  100   -1.5  0     0     981.7    NA       0.0000   UP       9999  3610  0    
2019/06/08  04:49:00  BASE  3.1164   88   3.35748  87   -1.5  100   -1.5  0     0     981.7    NA       0.0000   UP       9999  3610  0    
2019/06/08  04:50:00  BASE  3.04584  90   3.35748  87   -1.5  100   -1.5  0     0     981.7    NA       0.0000   UP       9999  3540  0    
2019/06/08  04:51:00  BASE  3.06348  94   3.35748  87   -1.5  100   -1.5  0     0     981.7    NA       0.0000   UP       9999  3580  0    
2019/06/08  04:52:00  BASE  3.087    97   3.35748  87   -1.5  100   -1.5  0     0     981.7    NA       0.0000   UP       9999  3580  0    
2019/06/08  04:53:00  BASE  3.18108  100  3.38688  100  -1.5  100   -1.5  0     0     981.6    NA       0.0000   UP       9999  3540  0    
2019/06/08  04:54:00  BASE  3.42804  100  3.78084  100  -1.5  100   -1.5  0     0     981.6    NA       0.0000   UP       9999  3540  0    
2019/06/08  04:55:00  BASE  3.59856  98   3.78084  100  -1.5  100   -1.5  0     0     981.6    NA       0.0000   UP       9999  3580  0    
2019/06/08  04:56:00  BASE  3.56916  96   3.78084  100  -1.5  100   -1.5  0     0     981.7    NA       0.0000   UP       9999  3640  0    
2019/06/08  04:57:00  BASE  3.52212  93   3.78084  100  -1.5  100   -1.5  0     0     981.7    NA       0.0000   UP       9999  3640  0    
2019/06/08  04:58:00  BASE  3.48096  91   3.78084  100  -1.4  100   -1.4  0     0     981.7    NA       0.0000   UP       9999  3640  0    
2019/06/08  04:59:00  BASE  3.3222   91   3.78084  100  -1.4  100   -1.4  0     0     981.7    NA       0.0000   UP       9999  3580  0    
2019/06/08  05:00:00  BASE  3.1458   91   3.78084  100  -1.4  100   -1.4  0     0     981.7    NA       0.0000   UP       9999  3480  0    
2019/06/08  05:01:00  BASE  2.96352  91   3.78084  100  -1.4  100   -1.4  0     0     981.7    NA       0.0000   UP       9999  3580  0    
2019/06/08  05:02:00  BASE  2.8518   90   3.78084  100  -1.4  100   -1.4  0     0     981.6    NA       0.0000   UP       9999  3510  0    
2019/06/08  05:03:00  BASE  2.78712  89   3.78084  100  -1.4  100   -1.4  0     0     981.6    NA       0.0000   UP       9999  3540  0    
2019/06/08  05:04:00  BASE  2.78124  89   3.75144  100  -1.4  100   -1.4  0     0     981.6    NA       0.0000   UP       9999  3150  0    
2019/06/08  05:05:00  BASE  2.89296  90   3.69264  97   -1.4  100   -1.4  0     0     981.6    NA       0.0000   UP       9999  2990  0    
2019/06/08  05:06:00  BASE  2.97528  92   3.62796  93   -1.4  100   -1.4  0     0     981.6    NA       0.0000   UP       9999  3450  0    
2019/06/08  05:07:00  BASE  3.01644  95   3.59856  88   -1.4  100   -1.4  0     0     981.6    NA       0.0000   UP       9999  3380  0    
2019/06/08  05:08:00  BASE  3.08112  100  3.35748  91   -1.4  100   -1.4  0     0     981.6    NA       0.0000   UP       9999  3410  0    
2019/06/08  05:09:00  BASE  3.06936  102  3.32808  101  -1.4  100   -1.4  0     0     981.6    NA       0.0000   UP       9999  3380  0    
2019/06/08  05:10:00  BASE  3.02232  98   3.32808  101  -1.4  100   -1.4  0     0     981.6    NA       0.0000   UP       9999  3380  0    
2019/06/08  05:11:00  BASE  3.09288  93   3.32808  101  -1.5  100   -1.5  0     0     981.6    NA       0.0000   UP       9999  3480  0    
2019/06/08  05:12:00  BASE  3.15756  90   3.32808  101  -1.5  100   -1.5  0     0     981.6    NA       0.0000   UP       9999  3080  0    
2019/06/08  05:13:00  BASE  3.2046   88   3.41628  86   -1.5  100   -1.5  0     0     981.6    NA       0.0000   UP       9999  3250  0    
2019/06/08  05:14:00  BASE  3.13404  86   3.41628  86   -1.4  100   -1.4  0     0     981.6    NA       0.0000   UP       9999  3120  0    
2019/06/08  05:15:00  BASE  2.87532  85   3.41628  86   -1.4  100   -1.4  0     0     981.6    NA       0.0000   UP       9999  3050  0    
2019/06/08  05:16:00  BASE  2.61072  86   3.41628  86   -1.4  100   -1.4  0     0     981.5    NA       0.0000   UP       9999  2990  0    
2019/06/08  05:17:00  BASE  2.4402   90   3.41628  86   -1.4  100   -1.4  0     0     981.5    NA       0.0000   UP       9999  3020  0    
2019/06/08  05:18:00  BASE  2.25792  93   3.41628  86   -1.4  100   -1.4  0     0     981.5    NA       0.0000   UP       9999  2990  0    
2019/06/08  05:19:00  BASE  2.04624  91   3.41628  86   -1.4  100   -1.4  0     0     981.5    NA       0.0000   UP       9999  3220  0    
2019/06/08  05:20:00  BASE  1.86396  93   3.41628  86   -1.4  100   -1.4  0     0     981.5    NA       0.0000   UP       9999  3050  0    
2019/06/08  05:21:00  BASE  1.84044  97   3.41628  86   -1.4  100   -1.4  0     0     981.5    NA       0.0000   UP       9999  3310  0    
2019/06/08  05:22:00  BASE  1.75812  98   3.41628  86   -1.4  100   -1.4  0     0     981.5    NA       0.0000   UP       9999  3020  3450 
2019/06/08  05:23:00  BASE  1.65816  99   3.29868  85   -1.4  100   -1.4  0     0     981.5    NA       0.0000   UP       9999  3480  0    
2019/06/08  05:24:00  BASE  1.7934   99   2.93412  88   -1.4  100   -1.4  0     0     981.5    NA       0.0000   UP       9999  3610  0    
2019/06/08  05:25:00  BASE  1.93452  102  2.56956  86   -1.4  100   -1.4  0     0     981.5    NA       0.0000   UP       9999  3740  0    
2019/06/08  05:26:00  BASE  2.04036  109  2.54016  90   -1.4  100   -1.4  0     0     981.5    NA       0.0000   UP       9999  3710  0    
2019/06/08  05:27:00  BASE  2.08152  111  2.29908  93   -1.4  100   -1.4  0     0     981.5    NA       0.0000   9999     3580  0     0    
2019/06/08  05:28:00  BASE  1.95216  106  2.21088  104  -1.4  100   -1.4  0     0     981.5    NA       0.0000   9999     3670  0     0    
2019/06/08  05:29:00  BASE  1.7934   105  2.21088  104  -1.4  100   -1.4  0     0     981.5    NA       0.0000   9999     3580  0     0    
2019/06/08  05:30:00  BASE  1.65816  108  2.21088  104  -1.4  100   -1.4  0     0     981.5    NA       0.0000   9999     3670  0     0    
2019/06/08  05:31:00  BASE  1.55232  112  2.21088  104  -1.4  100   -1.4  0     0     981.5    NA       0.0000   9999     3610  0     0    
2019/06/08  05:32:00  BASE  1.617    111  2.21088  104  -1.4  100   -1.4  0     0     981.5    NA       0.0000   9999     3580  0     0    
2019/06/08  05:33:00  BASE  1.74048  108  2.21088  104  -1.4  100   -1.4  0     0     981.5    NA       0.0000   9999     3840  0     0    
2019/06/08  05:34:00  BASE  1.69932  105  2.21088  104  -1.4  100   -1.4  0     0     981.5    NA       0.0000   9999     3770  0     0    
2019/06/08  05:35:00  BASE  1.5582   101  2.21088  104  -1.4  100   -1.4  0     0     981.5    NA       0.0000   9999     3050  3610  0    
2019/06/08  05:36:00  BASE  1.45236  99   2.21088  104  -1.4  100   -1.4  0     0     981.5    NA       0.0000   9999     3120  3840  0    
2019/06/08  05:37:00  BASE  1.38768  101  2.0286   104  -1.3  100   -1.3  0     0     981.5    NA       0.0000   9999     3080  3710  0    
2019/06/08  05:38:00  BASE  1.24068  103  1.87572  107  -1.3  100   -1.3  0     0     981.5    NA       0.0000   9999     3710  0     0    
2019/06/08  05:39:00  BASE  1.03488  100  1.87572  107  -1.3  100   -1.3  0     0     981.5    NA       0.0000   9999     3640  0     0    
2019/06/08  05:40:00  BASE  0.88788  94   1.87572  107  -1.3  100   -1.3  0     0     981.5    NA       0.0000   9999     3710  0     0    
2019/06/08  05:41:00  BASE  0.69972  93   1.87572  107  -1.2  100   -1.2  0     0     981.5    NA       0.0000   9999     3610  0     0    
2019/06/08  05:42:00  BASE  0.28224  101  1.87572  107  -1.2  100   -1.2  0     0     981.5    NA       0.0000   9999     3450  0     0    
2019/06/08  05:43:00  BASE  0.3528   103  1.75224  103  -1.2  100   -1.2  0     0     981.5    NA       0.0000   9999     3450  0     0    
2019/06/08  05:44:00  BASE  0.79968  100  1.66404  94   -1.2  100   -1.2  0     0     981.5    NA       0.0000   9999     2950  3510  0    
2019/06/08  05:45:00  BASE  0.97608  110  1.66404  94   -1.2  100   -1.2  0     0     981.4    NA       0.0000   9999     2990  3510  0    
2019/06/08  05:46:00  BASE  1.1172   127  1.42296  136  -1.2  100   -1.2  0     0     981.4    NA       0.0000   9999     3540  0     0    
2019/06/08  05:47:00  BASE  1.37592  136  1.63464  138  -1.1  100   -1.1  0     0     981.4    NA       0.0000   9999     3480  0     0    
2019/06/08  05:48:00  BASE  1.617    137  1.81692  143  -1.2  100   -1.2  0     0     981.4    NA       0.0000   9999     3610  0     0    
2019/06/08  05:49:00  BASE  1.60524  132  1.81692  143  -1.2  100   -1.2  0     0     981.4    NA       0.0000   9999     3510  0     0    
2019/06/08  05:50:00  BASE  1.64052  119  1.87572  119  -1.3  100   -1.3  0     0     981.4    NA       0.0000   9999     3640  0     0    
2019/06/08  05:51:00  BASE  1.71108  114  1.87572  117  -1.4  100   -1.4  0     0     981.4    NA       0.0000   9999     3710  4530  0    
2019/06/08  05:52:00  BASE  1.49352  112  1.87572  117  -1.4  100   -1.4  0     0     981.4    NA       0.0000   9999     3670  0     0    
2019/06/08  05:53:00  BASE  1.21128  109  1.87572  117  -1.4  100   -1.4  0     0     981.4    NA       0.0000   9999     3710  4270  0    
2019/06/08  05:54:00  BASE  1.07016  107  1.87572  117  -1.4  100   -1.4  0     0     981.4    NA       0.0000   9999     3670  4170  0    
2019/06/08  05:55:00  BASE  1.04664  104  1.87572  117  -1.4  100   -1.4  0     0     981.4    NA       0.0000   9999     4040  0     0    
2019/06/08  05:56:00  BASE  1.08192  100  1.87572  117  -1.3  100   -1.3  0     0     981.4    NA       0.0000   9999     3740  0     0    
2019/06/08  05:57:00  BASE  1.01136  97   1.87572  117  -1.3  100   -1.3  0     0     981.4    NA       0.0000   9999     3610  0     0    
2019/06/08  05:58:00  BASE  0.882    96   1.87572  117  -1.3  100   -1.3  0     0     981.4    NA       0.0000   9999     3540  0     0    
2019/06/08  05:59:00  BASE  0.61152  97   1.87572  117  -1.3  100   -1.3  0     0     981.4    NA       0.0000   9999     3640  0     0    
2019/06/08  06:00:00  BASE  0.22932  100  1.87572  117  -1.2  100   -1.2  0     0     981.4    NA       0.0000   9999     3480  0     0    
2019/06/08  06:01:00  BASE  0.02352  100  1.54056  108  -1.2  100   -1.2  0     0     981.3    NA       0.0000   9999     3510  0     0    
2019/06/08  06:02:00  BASE  0        101  1.24068  112  -1.2  100   -1.2  0     0     981.2    NA       0.0000   9999     3540  4200  0    
2019/06/08  06:03:00  BASE  0.05292  102  1.21128  98   -1.2  100   -1.2  0     0     981.2    NA       0.0000   9999     3510  0     0    
2019/06/08  06:04:00  BASE  0.07644  102  1.21128  98   -1.1  100   -1.1  0     0     981.2    NA       0.0000   9999     3510  0     0    
2019/06/08  06:05:00  BASE  0.0294   100  1.21128  98   -1.1  100   -1.1  0     0     981.2    NA       0.0000   9999     3770  0     0    
2019/06/08  06:06:00  BASE  0        95   1.029    99   -1.1  100   -1.1  0     0     981.2    NA       0.0000   9999     3670  0     0    
2019/06/08  06:07:00  BASE  0        91   0.84672  93   -1.1  100   -1.1  0     0     981.2    NA       0.0000   9999     5410  0     0    
2019/06/08  06:08:00  BASE  0        90   0.78792  98   -1.1  100   -1.1  0     0     981.2    NA       0.0000   9999     5250  0     0    
2019/06/08  06:09:00  BASE  0        103  0.63504  102  -1.1  100   -1.1  0     0     981.2    NA       0.0000   9999     3150  0     0    
2019/06/08  06:10:00  BASE  0        136  0.63504  102  -1.1  100   -1.1  0     0     981.2    NA       0.0000   9999     3150  0     0    
2019/06/08  06:11:00  BASE  0.11172  169  0.66444  190  -1.1  100   -1.1  0     0     981.2    NA       0.0000   9999     3280  0     0    
2019/06/08  06:12:00  BASE  0.47628  189  0.81732  198  -1.2  100   -1.2  0     0     981.3    NA       0.0000   9999     5280  0     0    
2019/06/08  06:13:00  BASE  0.8232   200  1.0878   210  -1.3  100   -1.3  0     0     981.3    NA       0.0000   9999     5540  0     0    
2019/06/08  06:14:00  BASE  1.11132  212  1.69344  224  -1.3  100   -1.3  0     0     981.3    NA       0.0000   9999     5220  0     0    
2019/06/08  06:15:00  BASE  1.48764  219  1.75224  224  -1.4  100   -1.4  0     0     981.3    NA       0.0000   9999     5280  0     0    
2019/06/08  06:16:00  BASE  1.62288  222  1.75224  224  -1.4  100   -1.4  0     0     981.4    NA       0.0000   9999     5640  0     0    
2019/06/08  06:17:00  BASE  1.66404  224  1.93452  228  -1.5  100   -1.5  0     0     981.4    NA       0.0000   9999     4360  0     0    
2019/06/08  06:18:00  BASE  1.6758   221  1.93452  228  -1.5  100   -1.5  0     0     981.3    NA       0.0000   9999     4100  0     0    
2019/06/08  06:19:00  BASE  1.617    215  1.93452  228  -1.4  100   -1.4  0     0     981.2    NA       0.0000   9999     4130  0     0    
2019/06/08  06:20:00  BASE  1.57584  212  1.93452  228  -1.4  100   -1.4  0     0     981.2    NA       0.0000   9999     4460  0     0    
2019/06/08  06:21:00  BASE  1.42296  208  1.93452  228  -1.4  100   -1.4  0     0     981.2    NA       0.0000   9999     5020  0     0    
2019/06/08  06:22:00  BASE  1.29948  209  1.93452  228  -1.4  100   -1.4  0     0     981.2    NA       0.0000   9999     5610  0     0    
2019/06/08  06:23:00  BASE  1.27008  213  1.93452  228  -1.4  100   -1.4  0     0     981.2    NA       0.0000   9999     4990  0     0    
2019/06/08  06:24:00  BASE  1.21716  214  1.93452  228  -1.4  100   -1.4  0     0     981.2    NA       0.0000   9999     4860  0     0    
2019/06/08  06:25:01  BASE  1.21716  215  1.93452  228  -1.4  100   -1.4  0     0     981.2    NA       0.0000   9999     4760  0     0    
2019/06/08  06:26:00  BASE  1.22304  213  1.93452  228  -1.4  100   -1.4  0     0     981.2    NA       0.0000   9999     4660  0     0    
2019/06/08  06:27:00  BASE  1.14072  209  1.72284  218  -1.4  100   -1.4  0     0     981.2    NA       0.0000   9999     3280  4630  0    
2019/06/08  06:28:00  BASE  1.05252  200  1.69344  212  -1.4  100   -1.4  0     0     981.2    NA       0.0000   9999     3280  4660  0    
2019/06/08  06:29:00  BASE  0.98196  191  1.63464  212  -1.4  100   -1.4  0     0     981.2    NA       0.0000   9999     3310  4720  0    
2019/06/08  06:30:00  BASE  0.94668  188  1.42296  208  -1.4  100   -1.4  0     0     981.2    NA       0.0000   9999     3220  4790  0    
2019/06/08  06:31:00  BASE  0.9702   188  1.32888  210  -1.5  100   -1.5  0     0     981.2    NA       0.0000   9999     4720  0     0    
2019/06/08  06:32:00  BASE  0.95844  188  1.29948  216  -1.5  100   -1.5  0     0     981.2    NA       0.0000   9999     4760  0     0    
2019/06/08  06:33:00  BASE  0.882    192  1.29948  216  -1.5  100   -1.5  0     0     981.2    NA       0.0000   9999     4690  0     0    
2019/06/08  06:34:00  BASE  0.77616  200  1.29948  216  -1.6  100   -1.6  0     0     981.2    NA       0.0000   9999     4720  0     0    
2019/06/08  06:35:00  BASE  0.75264  207  1.27008  214  -1.6  100   -1.6  0     0     981.2    NA       0.0000   9999     4720  0     0    
2019/06/08  06:36:01  BASE  0.82908  208  1.1466   186  -1.6  100   -1.6  0     0     981.2    NA       0.0000   9999     4820  0     0    
2019/06/08  06:37:00  BASE  1.08192  203  1.42296  196  -1.7  100   -1.7  0     0     981.2    NA       0.0000   9999     4890  0     0    
2019/06/08  06:38:01  BASE  1.32888  196  1.48176  188  -1.7  100   -1.7  0     0     981.2    NA       0.0000   9999     4860  0     0    
2019/06/08  06:39:00  BASE  1.38768  185  1.60524  185  -1.7  100   -1.7  0     0     981.2    NA       0.0000   9999     4790  0     0    
2019/06/08  06:40:00  BASE  1.45236  176  1.63464  175  -1.7  100   -1.7  0     0     981.2    NA       0.0000   9999     4790  0     0    
2019/06/08  06:41:00  BASE  1.54644  174  1.66404  177  -1.7  100   -1.7  0     0     981.2    NA       0.0000   9999     4690  0     0    
2019/06/08  06:42:00  BASE  1.59348  177  1.72284  182  -1.7  100   -1.7  0     0     981.2    NA       0.0000   9999     1250  4820  0    
2019/06/08  06:43:00  BASE  1.5876   182  1.72284  182  -1.7  100   -1.7  0     0     981.2    NA       0.0000   9999     1350  4790  0    
2019/06/08  06:44:00  BASE  1.42884  194  1.72284  182  -1.8  100   -1.8  0     0     981.3    NA       0.0000   9999     1250  0     0    
2019/06/08  06:45:00  BASE  1.42884  214  1.75224  225  -1.8  100   -1.8  0     0     981.4    NA       0.0000   9999     1250  0     0    
2019/06/08  06:46:00  BASE  1.71696  241  2.21088  273  -1.8  100   -1.8  0     0     981.4    NA       0.0000   UP       9999  1380  0    
2019/06/08  06:47:00  BASE  1.99332  252  2.38728  246  -1.8  100   -1.8  0     0     981.4    NA       0.0000   UP       9999  1250  0    
2019/06/08  06:48:00  BASE  2.01096  245  2.38728  246  -1.8  100   -1.8  0     0     981.4    NA       0.0000   UP       9999  1350  4990 
2019/06/08  06:49:00  BASE  1.88748  233  2.38728  246  -1.8  100   -1.8  0     0     981.4    NA       0.0000   UP       9999  5050  0    
2019/06/08  06:50:00  BASE  1.95804  218  2.38728  246  -1.8  100   -1.8  0     0     981.4    NA       0.0000   UP       9999  5020  0    
2019/06/08  06:51:00  BASE  2.04036  209  2.38728  246  -1.8  100   -1.8  0     0     981.3    NA       0.0000   UP       9999  4820  0    
2019/06/08  06:52:00  BASE  2.1168   211  2.38728  246  -1.8  100   -1.8  0     0     981.3    NA       0.0000   UP       9999  1180  4760 
2019/06/08  06:53:00  BASE  1.98156  221  2.38728  246  -1.8  100   -1.8  0     0     981.3    NA       0.0000   UP       9999  4990  0    
2019/06/08  06:54:00  BASE  1.92276  223  2.54016  224  -1.8  100   -1.8  0     0     981.3    NA       0.0000   UP       9999  5380  0    
2019/06/08  06:55:00  BASE  2.0286   220  2.54016  224  -1.8  100   -1.8  0     0     981.4    NA       0.0000   UP       9999  5450  0    
2019/06/08  06:56:00  BASE  1.89336  210  2.54016  224  -1.8  100   -1.8  0     0     981.4    NA       0.0000   UP       9999  4950  0    
2019/06/08  06:57:00  BASE  1.59348  192  2.54016  224  -1.8  100   -1.8  0     0     981.4    NA       0.0000   UP       9999  4920  0    
2019/06/08  06:58:00  BASE  1.42296  204  2.54016  224  -1.8  100   -1.8  0     0     981.4    NA       0.0000   UP       9999  5180  0    
2019/06/08  06:59:00  BASE  1.66404  224  2.54016  224  -1.7  100   -1.7  0     0     981.4    NA       0.0000   UP       9999  5090  0    
2019/06/08  07:00:00  BASE  1.74636  224  2.54016  224  -1.7  100   -1.7  0     0     981.4    NA       0.0000   UP       9999  690   4720 
2019/06/08  07:01:00  BASE  1.60524  220  2.54016  224  -1.7  100   -1.7  0     0     981.4    NA       0.0000   UP       9999  590   0    
2019/06/08  07:02:00  BASE  1.06428  221  2.54016  224  -1.8  100   -1.8  0     0     981.4    NA       0.0000   UP       9999  1870  0    
2019/06/08  07:03:00  BASE  0.84672  217  2.54016  224  -1.8  100   -1.8  0     0     981.4    NA       0.0000   UP       9999  1080  0    
2019/06/08  07:04:00  BASE  1.24068  196  2.1462   226  -1.8  100   -1.8  0     0     981.4    NA       0.0000   UP       9999  2000  0    
2019/06/08  07:05:00  BASE  1.323    172  2.1168   234  -1.8  100   -1.8  0     0     981.4    NA       0.0000   UP       9999  5050  0    
2019/06/08  07:06:00  BASE  1.29948  157  2.1168   234  -1.8  100   -1.8  0     0     981.4    NA       0.0000   UP       9999  5020  0    
2019/06/08  07:07:00  BASE  1.58172  152  2.1168   151  -1.8  100   -1.8  0     0     981.4    NA       0.0000   UP       9999  5020  0    
2019/06/08  07:08:00  BASE  2.00508  150  2.24028  146  -1.8  100   -1.8  0     0     981.4    NA       0.0000   UP       9999  4920  0    
2019/06/08  07:09:00  BASE  2.205    145  2.66364  141  -1.8  100   -1.8  0     0     981.3    NA       0.0000   UP       9999  4920  0    
2019/06/08  07:10:00  BASE  2.54016  139  3.02232  136  -1.8  100   -1.8  0     0     981.2    NA       0.0000   UP       7000  820   0    
2019/06/08  07:11:00  BASE  2.9694   135  3.26928  133  -1.8  100   -1.8  0     0     981.2    NA       0.0000   UP       6000  2000  0    
2019/06/08  07:12:00  BASE  3.19872  131  3.41628  128  -1.8  100   -1.8  0     0     981.2    NA       0.0000   -SN      7000  1250  1740 
2019/06/08  07:13:00  BASE  3.1164   130  3.41628  128  -1.8  100   -1.8  0     0     981.2    NA       0.0000   -SN      BR    6000  1080 
2019/06/08  07:14:00  BASE  2.7342   134  3.41628  128  -1.8  100   -1.8  0     0     981.2    NA       0.0000   -SN      BR    6000  430  
2019/06/08  07:15:00  BASE  2.45196  139  3.41628  128  -1.8  100   -1.8  0     0     981.2    NA       0.0000   -SN      BR    5000  390  
2019/06/08  07:16:00  BASE  2.22264  142  3.41628  128  -1.8  100   -1.8  0     0     981.2    NA       0.0000   -SN      BR    4100  950  
2019/06/08  07:17:00  BASE  1.84044  139  3.41628  128  -1.9  100   -1.9  0     0     981.2    NA       0.0000   -SN      BR    4300  1180 
2019/06/08  07:18:00  BASE  1.7052   136  3.41628  128  -1.9  100   -1.9  0     0     981.2    NA       0.0000   -SN      BR    4800  1210 
2019/06/08  07:19:00  BASE  1.84632  138  3.41628  128  -1.9  100   -1.9  0     0     981.2    NA       0.0000   -SN      BR    4200  1120 
2019/06/08  07:20:00  BASE  1.9992   141  3.41628  128  -1.9  100   -1.9  0     0     981.2    NA       0.0000   -SN      BR    3800  0    
2019/06/08  07:21:00  BASE  2.0286   149  3.41628  128  -1.9  100   -1.9  0     0     981.2    NA       0.0000   -SN      BR    4000  0    
2019/06/08  07:22:00  BASE  2.04036  157  3.35748  135  -1.9  100   -1.9  0     0     981.2    NA       0.0000   -SN      BR    4400  1670 
2019/06/08  07:23:00  BASE  2.04036  162  2.75184  140  -1.9  100   -1.9  0     0     981.2    NA       0.0000   -SN      BR    5000  1350 
2019/06/08  07:24:00  BASE  1.97568  169  2.69304  149  -1.9  100   -1.9  0     0     981.2    NA       0.0000   -SN      BR    4300  2300 
2019/06/08  07:25:00  BASE  1.95804  179  2.29908  142  -1.9  100   -1.9  0     0     981.2    NA       0.0000   -SN      BR    3500  3380 
2019/06/08  07:26:00  BASE  2.01684  185  2.35788  187  -2.0  100   -2.0  0     0     981.2    NA       0.0000   -SN      BR    3700  3220 
2019/06/08  07:27:00  BASE  2.3814   187  3.2046   186  -2.0  100   -2.0  0     0     981.1    NA       0.0000   -SN      BR    4900  3310 
2019/06/08  07:28:00  BASE  2.80476  189  3.2046   186  -2.0  100   -2.0  0     0     981.0    NA       0.0000   -SN      BR    8000  2030 
2019/06/08  07:29:00  BASE  2.84004  197  3.2046   186  -2.0  100   -2.0  0     0     981.0    NA       0.0000   -SN      BR    9999  1870 
2019/06/08  07:30:00  BASE  2.95764  206  3.35748  211  -2.0  100   -2.0  0     0     981.0    NA       0.0000   -SN      BR    9999  2130 
2019/06/08  07:31:00  BASE  3.01056  215  3.35748  221  -2.0  100   -2.0  0     0     981.0    NA       0.0000   -SN      BR    9999  2100 
2019/06/08  07:32:00  BASE  2.78712  223  3.35748  221  -2.0  100   -2.0  0     0     981.0    NA       0.0000   -SN      BR    9999  2000 
2019/06/08  07:33:00  BASE  1.9404   220  3.35748  221  -2.0  100   -2.0  0     0     981.0    NA       0.0000   -SN      BR    9999  1840 
2019/06/08  07:34:00  BASE  1.22892  150  3.35748  221  -2.0  100   -2.0  0     0     981.0    NA       0.0000   -SN      BR    9999  1840 
2019/06/08  07:35:00  BASE  1.28184  102  3.35748  221  -2.0  100   -2.0  0     0     981.0    NA       0.0000   -SN      BR    9999  2200 
2019/06/08  07:36:00  BASE  1.36416  146  3.35748  221  -2.0  100   -2.0  0     0     981.0    NA       0.0000   -SN      9999  2230  3450 
2019/06/08  07:37:00  BASE  1.37004  178  3.35748  221  -2.0  100   -2.0  0     0     981.0    NA       0.0000   -SN      9999  2330  3510 
2019/06/08  07:38:00  BASE  1.27596  160  3.35748  221  -2.0  100   -2.0  0     0     981.0    NA       0.0000   -SN      9999  2360  0    
2019/06/08  07:39:00  BASE  1.19952  121  3.35748  221  -2.0  100   -2.0  0     0     981.1    NA       0.0000   -SN      9999  2460  3350 
2019/06/08  07:40:00  BASE  1.19952  83   3.35748  221  -2.0  100   -2.0  0     0     981.1    NA       0.0000   9999     2400  0     0    
2019/06/08  07:41:00  BASE  0.8232   91   2.96352  223  -2.0  100   -2.0  0     0     981.1    NA       0.0000   9999     2430  3510  0    
2019/06/08  07:42:00  BASE  0.21756  165  1.78752  78   -2.0  100   -2.0  0     0     981.1    NA       0.0000   9999     2400  3640  0    
2019/06/08  07:43:00  BASE  0.19992  253  1.78752  78   -2.0  100   -2.0  0     0     981.0    NA       0.0000   9999     2490  3450  0    
2019/06/08  07:44:00  BASE  0.8232   327  1.57584  187  -2.0  100   -2.0  0     0     981.0    NA       0.0000   9999     2400  3540  0    
2019/06/08  07:45:00  BASE  1.46412  341  2.0286   341  -2.0  100   -2.0  0     0     981.0    NA       0.0000   9999     2400  3640  0    
2019/06/08  07:46:00  BASE  1.83456  332  2.69304  322  -1.9  100   -1.9  0     0     981.0    NA       0.0000   9999     3540  0     0    
2019/06/08  07:47:00  BASE  2.25792  317  3.02232  308  -1.9  100   -1.9  0     0     980.9    NA       0.0000   9999     2200  3640  0    
2019/06/08  07:48:00  BASE  1.66404  290  3.02232  308  -1.9  100   -1.9  0     0     981.0    NA       0.0000   9999     3540  0     0    
2019/06/08  07:49:00  BASE  1.38768  161  3.087    120  -1.9  100   -1.9  0     0     981.0    NA       0.0000   9999     3540  0     0    
2019/06/08  07:50:00  BASE  1.32888  165  3.087    120  -1.9  100   -1.9  0     0     980.9    NA       0.0000   9999     3310  0     0    
2019/06/08  07:51:01  BASE  1.00548  8    3.087    120  -1.9  100   -1.9  0     0     981.0    NA       0.0000   9999     3310  0     0    
2019/06/08  07:52:01  BASE  1.4994   35   3.087    120  -1.9  100   -1.9  0     0     981.0    NA       0.0000   9999     3310  0     0    
2019/06/08  07:53:01  BASE  1.84632  68   3.35748  101  -1.8  100   -1.8  0     0     981.0    NA       0.0000   9999     3450  0     0    
2019/06/08  07:54:01  BASE  2.01684  89   3.35748  101  -1.7  100   -1.7  0     0     981.0    NA       0.0000   9999     3450  0     0    
2019/06/08  07:55:01  BASE  2.42256  82   3.53976  94   -1.6  100   -1.6  0     0     981.0    NA       0.0000   9999     2890  0     0    
2019/06/08  07:56:01  BASE  2.83416  93   3.53976  94   -1.6  100   -1.6  0     0     981.0    NA       0.0000   9999     2850  0     0    
2019/06/08  07:57:00  BASE  3.22224  99   4.32768  99   -1.6  100   -1.6  0     0     981.0    NA       0.0000   9999     2950  3640  0    
2019/06/08  07:58:00  BASE  4.45704  78   7.2324   47   -1.6  100   -1.6  0     0     981.0    NA       0.0000   9999     3480  0     0    
2019/06/08  07:59:00  BASE  4.4394   62   7.2324   47   -1.6  100   -1.6  0     0     981.0    NA       0.0000   9999     3510  0     0    
2019/06/08  08:00:00  BASE  3.15756  73   7.2324   47   -1.6  100   -1.6  0     0     981.0    NA       0.0000   -SN      9999  3450  0    
2019/06/08  08:01:00  BASE  2.37552  72   7.2324   47   -1.6  100   -1.6  0     0     981.0    NA       0.0000   -SN      9999  3220  0    
2019/06/08  08:02:00  BASE  2.13444  64   7.2324   47   -1.6  100   -1.6  0     0     981.1    NA       0.0000   -SN      9999  3050  0    
2019/06/08  08:03:00  BASE  2.1168   60   7.2324   47   -1.7  100   -1.7  0     0     981.0    NA       0.0000   -SN      9999  3220  0    
2019/06/08  08:04:00  BASE  1.85808  50   7.2324   47   -1.7  100   -1.7  0     0     981.0    NA       0.0000   -SN      9999  3120  0    
2019/06/08  08:05:00  BASE  2.04624  59   7.2324   47   -1.7  100   -1.7  0     0     981.0    NA       0.0000   -SN      9999  3180  0    
2019/06/08  08:06:00  BASE  2.07564  84   7.2324   47   -1.7  100   -1.7  0     0     981.1    NA       0.0000   -SN      9999  3220  0    
2019/06/08  08:07:00  BASE  1.55232  94   7.2324   47   -1.7  100   -1.7  0     0     981.0    NA       0.0000   -SN      9999  3380  0    
2019/06/08  08:08:00  BASE  1.78752  102  5.35668  64   -1.7  100   -1.7  0     0     981.0    NA       0.0000   -SN      9999  3710  0    
2019/06/08  08:09:00  BASE  2.56368  107  3.234    89   -1.7  100   -1.7  0     0     981.0    NA       0.0000   -SN      9999  3770  0    
2019/06/08  08:10:00  BASE  2.94     102  3.1458   100  -1.7  100   -1.7  0     0     981.0    NA       0.0000   -SN      9999  2690  3740 
2019/06/08  08:11:00  BASE  3.087    102  3.26928  102  -1.8  100   -1.8  0     0     981.0    NA       0.0000   -SN      9999  3710  0    
2019/06/08  08:12:00  BASE  2.99292  105  3.26928  102  -1.8  100   -1.8  0     0     981.0    NA       0.0000   -SN      9999  3710  0    
2019/06/08  08:13:00  BASE  2.54604  100  3.26928  102  -1.9  100   -1.9  0     0     981.0    NA       0.0000   -SN      9999  3670  0    
2019/06/08  08:14:00  BASE  2.00508  92   3.26928  102  -1.9  100   -1.9  0     0     981.0    NA       0.0000   -SN      9999  3710  0    
2019/06/08  08:15:00  BASE  1.4994   89   3.26928  102  -1.9  100   -1.9  0     0     981.0    NA       0.0000   -SN      9999  3740  0    
2019/06/08  08:16:00  BASE  1.69932  87   3.26928  102  -1.9  100   -1.9  0     0     980.9    NA       0.0000   -SN      9999  3670  0    
2019/06/08  08:17:00  BASE  1.92864  46   3.26928  102  -1.9  100   -1.9  0     0     980.9    NA       0.0000   -SN      9999  3770  0    
2019/06/08  08:18:00  BASE  1.4112   20   3.81024  29   -1.9  100   -1.9  0     0     980.9    NA       0.0000   -SN      9999  4070  0    
2019/06/08  08:19:00  BASE  3.18108  29   6.2622   23   -1.8  100   -1.8  0     0     980.8    NA       0.0000   -SN      9999  4000  0    
2019/06/08  08:20:00  BASE  5.16264  23   6.2622   23   -1.8  100   -1.8  0     0     980.8    NA       0.0000   -SN      9999  3900  0    
2019/06/08  08:21:00  BASE  4.71576  18   6.2622   23   -1.7  100   -1.7  0     0     980.8    NA       0.0000   -SN      9999  3840  0    
2019/06/08  08:22:00  BASE  3.51624  12   6.2622   23   -1.6  100   -1.6  0     0     980.8    NA       0.0000   -SN      9999  3810  0    
2019/06/08  08:23:00  BASE  2.28144  30   6.2622   23   -1.6  100   -1.6  0     0     980.8    NA       0.0000   -SN      9999  3770  0    
2019/06/08  08:24:00  BASE  1.63464  108  6.2622   23   -1.5  100   -1.5  0     0     980.8    NA       0.0000   -SN      9999  3710  0    
2019/06/08  08:25:00  BASE  1.31712  140  6.2622   23   -1.5  100   -1.5  0     0     980.8    NA       0.0000   9999     4330  0     0    
2019/06/08  08:26:00  BASE  1.16424  149  6.2622   23   -1.6  100   -1.6  0     0     980.8    NA       0.0000   9999     3900  0     0    
2019/06/08  08:27:00  BASE  1.1466   162  6.2622   23   -1.6  100   -1.6  0     0     980.8    NA       0.0000   9999     3670  0     0    
2019/06/08  08:28:01  BASE  1.35828  155  6.2622   23   -1.7  100   -1.7  0     0     980.8    NA       0.0000   9999     3540  0     0    
2019/06/08  08:29:01  BASE  1.81692  144  6.05052  32   -1.8  100   -1.8  0     0     980.8    NA       0.0000   9999     3640  0     0    
2019/06/08  08:30:01  BASE  1.81692  138  4.65696  13   -1.8  100   -1.8  0     0     980.9    NA       0.0000   9999     3640  0     0    
2019/06/08  08:31:01  BASE  1.58172  132  3.69264  17   -1.8  100   -1.8  0     0     980.9    NA       0.0000   9999     3510  0     0    
2019/06/08  08:32:01  BASE  1.76988  120  2.29908  141  -1.8  100   -1.8  0     0     980.9    NA       0.0000   9999     4860  0     0    
2019/06/08  08:33:01  BASE  1.68168  129  2.29908  141  -1.8  100   -1.8  0     0     980.8    NA       0.0000   9999     0     0     0    
2019/06/08  08:34:01  BASE  1.42296  159  2.29908  141  -1.9  100   -1.9  0     0     980.8    NA       0.0000   9999     0     0     0    
2019/06/08  08:35:00  BASE  1.2348   173  2.29908  141  -1.9  100   -1.9  0     0     980.8    NA       0.0000   9999     4070  0     0    
2019/06/08  08:36:01  BASE  1.176    184  2.29908  141  -1.9  100   -1.9  0     0     980.8    NA       0.0000   9999     3810  0     0    
2019/06/08  08:37:00  BASE  1.19952  190  2.29908  141  -1.9  100   -1.9  0     0     980.8    NA       0.0000   9999     3810  0     0    
2019/06/08  08:38:01  BASE  1.07604  192  2.29908  141  -1.9  100   -1.9  0     0     980.8    NA       0.0000   9999     3900  0     0    
2019/06/08  08:39:00  BASE  0.8232   191  2.0874   125  -1.9  100   -1.9  0     0     980.8    NA       0.0000   9999     3640  0     0    
2019/06/08  08:40:00  BASE  0.65268  193  2.0874   125  -1.9  100   -1.9  0     0     980.8    NA       0.0000   9999     3970  0     0    
2019/06/08  08:41:00  BASE  0.99372  219  2.1168   270  -1.8  100   -1.8  0     0     980.8    NA       0.0000   9999     4490  0     0    
2019/06/08  08:42:00  BASE  1.81692  249  2.78124  234  -1.8  100   -1.8  0     0     980.7    NA       0.0000   9999     3810  0     0    
2019/06/08  08:43:00  BASE  2.59308  238  3.65736  212  -1.8  100   -1.8  0     0     980.7    NA       0.0000   9999     3970  0     0    
2019/06/08  08:44:00  BASE  2.68128  194  3.65736  212  -1.7  100   -1.7  0     0     980.7    NA       0.0000   9999     4040  0     0    
2019/06/08  08:45:00  BASE  1.91688  172  3.65736  212  -1.7  100   -1.7  0     0     980.8    NA       0.0000   9999     3970  0     0    
2019/06/08  08:46:00  BASE  1.18188  182  3.65736  212  -1.7  100   -1.7  0     0     980.8    NA       0.0000   9999     3940  0     0    
2019/06/08  08:47:00  BASE  2.62836  162  4.78044  128  -1.6  100   -1.6  0     0     980.7    NA       0.0000   9999     3810  0     0    
2019/06/08  08:48:00  BASE  4.12188  134  4.99212  136  -1.6  100   -1.6  0     0     980.7    NA       0.0000   9999     3770  0     0    
2019/06/08  08:49:00  BASE  3.48684  129  4.99212  136  -1.6  100   -1.6  0     0     980.7    NA       0.0000   9999     4100  0     0    
2019/06/08  08:50:00  BASE  2.44608  129  4.99212  136  -1.6  100   -1.6  0     0     980.7    NA       0.0000   9999     4000  0     0    
2019/06/08  08:51:00  BASE  1.68168  118  4.99212  136  -1.6  100   -1.6  0     0     980.7    NA       0.0000   9999     3870  0     0    
2019/06/08  08:52:00  BASE  1.96392  92   4.99212  136  -1.7  100   -1.7  0     0     980.7    NA       0.0000   9999     3510  0     0    
2019/06/08  08:53:00  BASE  3.07524  82   4.99212  136  -1.7  100   -1.7  0     0     980.7    NA       0.0000   9999     3610  0     0    
2019/06/08  08:54:00  BASE  3.65736  91   4.99212  136  -1.7  100   -1.7  0     0     980.7    NA       0.0000   9999     3510  0     0    
2019/06/08  08:55:00  BASE  3.15168  104  4.99212  136  -1.7  100   -1.7  0     0     980.8    NA       0.0000   9999     3280  0     0    
2019/06/08  08:56:00  BASE  2.51664  114  4.99212  136  -1.7  100   -1.7  0     0     980.7    NA       0.0000   9999     0     0     0    
2019/06/08  08:57:00  BASE  3.01644  122  4.99212  136  -1.7  100   -1.7  0     0     980.7    NA       0.0000   9999     0     0     0    
2019/06/08  08:58:00  BASE  3.0576   132  4.29828  110  -1.7  100   -1.7  0     0     980.7    NA       0.0000   9999     0     0     0    
2019/06/08  08:59:01  BASE  2.42256  144  4.29828  110  -1.7  100   -1.7  0     0     980.7    NA       0.0000   9999     0     0     0    
2019/06/08  09:00:01  BASE  2.04624  141  4.29828  110  -1.7  100   -1.7  0     0     980.7    NA       0.0000   UP       9999  4690  0    
2019/06/08  09:01:01  BASE  1.75224  130  4.29828  110  -1.7  100   -1.7  0     0     980.7    NA       0.0000   UP       9999  4660  0    
2019/06/08  09:02:01  BASE  1.38768  124  4.29828  110  -1.7  100   -1.7  0     0     980.7    NA       0.0000   UP       9999  4630  0    
2019/06/08  09:03:01  BASE  0.882    137  4.29828  110  -1.7  100   -1.7  0     0     980.7    NA       0.0000   UP       9999  4920  0    
2019/06/08  09:04:01  BASE  1.09368  152  4.29828  110  -1.7  100   -1.7  0     0     980.6    NA       0.0000   UP       9999  4820  0    
2019/06/08  09:05:01  BASE  1.48764  150  4.29828  110  -1.7  100   -1.7  0     0     980.6    NA       0.0000   UP       9999  4860  0    
2019/06/08  09:06:01  BASE  1.62876  152  4.29828  110  -1.8  100   -1.8  0     0     980.6    NA       0.0000   UP       9999  4860  0    
2019/06/08  09:07:01  BASE  1.91688  161  3.69264  126  -1.8  100   -1.8  0     0     980.6    NA       0.0000   UP       9999  4920  0    
2019/06/08  09:08:01  BASE  1.72284  188  3.087    171  -1.8  100   -1.8  0     0     980.6    NA       0.0000   UP       8000  4990  0    
2019/06/08  09:09:01  BASE  1.07604  234  3.087    171  -1.8  100   -1.8  0     0     980.6    NA       0.0000   UP       7000  0     0    
2019/06/08  09:10:01  BASE  1.28772  259  3.087    171  -1.8  100   -1.8  0     0     980.5    NA       0.0000   UP       9000  0     0    
2019/06/08  09:11:01  BASE  1.69932  249  3.087    171  -1.7  100   -1.7  0     0     980.4    NA       0.0000   UP       9999  5180  0    
2019/06/08  09:12:01  BASE  1.05252  231  3.087    171  -1.7  100   -1.7  0     0     980.4    NA       0.0000   UP       9999  5350  0    
2019/06/08  09:13:01  BASE  0.77028  236  3.087    171  -1.7  100   -1.7  0     0     980.4    NA       0.0000   UP       9999  5380  0    
2019/06/08  09:14:01  BASE  1.02312  251  3.087    171  -1.7  100   -1.7  0     0     980.4    NA       0.0000   UP       9999  5380  0    
2019/06/08  09:15:00  BASE  0.51156  292  3.087    171  -1.6  100   -1.6  0     0     980.4    NA       0.0000   UP       9999  5380  0    
2019/06/08  09:16:00  BASE  0.08232  323  3.087    171  -1.6  100   -1.6  0     0     980.4    NA       0.0000   UP       9999  5410  0    
2019/06/08  09:17:00  BASE  0.3234   323  2.29908  255  -1.6  100   -1.6  0     0     980.4    NA       0.0000   UP       9999  5480  0    
2019/06/08  09:18:00  BASE  1.35828  38   3.02232  76   -1.6  100   -1.6  0     0     980.4    NA       0.0000   UP       9000  5580  0    
2019/06/08  09:19:00  BASE  2.50488  82   3.44568  67   -1.6  100   -1.6  0     0     980.4    NA       0.0000   UP       8000  5540  0    
2019/06/08  09:20:00  BASE  2.91648  69   3.44568  67   -1.6  100   -1.6  0     0     980.4    NA       0.0000   UP       9000  5580  0    
2019/06/08  09:21:00  BASE  3.24576  72   3.83964  89   -1.6  100   -1.6  0     0     980.4    NA       0.0000   UP       9000  5580  0    
2019/06/08  09:22:00  BASE  3.16932  83   3.83964  89   -1.6  100   -1.6  0     0     980.4    NA       0.0000   UP       9999  5480  0    
2019/06/08  09:23:00  BASE  2.74596  85   3.83964  89   -1.7  100   -1.7  0     0     980.4    NA       0.0000   UP       9999  0     0    
2019/06/08  09:24:00  BASE  2.95764  85   4.53936  98   -1.7  100   -1.7  0     0     980.3    NA       0.0000   UP       BR    9000  5580 
2019/06/08  09:25:00  BASE  3.69264  88   4.62756  85   -1.7  100   -1.7  0     0     980.3    NA       0.0000   UP       BR    8000  5580 
2019/06/08  09:26:00  BASE  4.09836  91   4.78044  89   -1.7  100   -1.7  0     0     980.3    NA       0.0000   UP       BR    9000  5320 
2019/06/08  09:27:00  BASE  4.33944  94   5.3214   100  -1.7  100   -1.7  0     0     980.2    NA       0.0000   UP       BR    9999  5380 
2019/06/08  09:28:00  BASE  4.89804  98   5.86824  105  -1.7  100   -1.7  0     0     980.2    NA       0.0000   UP       BR    9000  5350 
2019/06/08  09:29:00  BASE  5.05092  104  5.86824  105  -1.7  100   -1.7  0     0     980.2    NA       0.0000   UP       BR    9999  5180 
2019/06/08  09:30:00  BASE  4.89216  109  5.86824  105  -1.7  100   -1.7  0     0     980.2    NA       0.0000   UP       BR    9999  5250 
2019/06/08  09:31:00  BASE  5.03328  109  5.86824  105  -1.7  100   -1.7  0     0     980.3    NA       0.0000   UP       BR    9999  5180 
2019/06/08  09:32:01  BASE  4.96272  109  5.86824  105  -1.7  100   -1.7  0     0     980.3    NA       0.0000   UP       BR    9999  5180 
2019/06/08  09:33:01  BASE  4.46292  115  5.86824  105  -1.6  100   -1.6  0     0     980.3    NA       0.0000   UP       BR    9999  5180 
2019/06/08  09:34:01  BASE  4.2042   123  5.86824  105  -1.6  100   -1.6  0     0     980.3    NA       0.0000   UP       BR    9999  5180 
2019/06/08  09:35:01  BASE  4.3218   126  5.86824  105  -1.6  100   -1.6  0     0     980.3    NA       0.0000   UP       BR    9000  5090 
2019/06/08  09:36:01  BASE  4.45116  135  5.86824  105  -1.6  100   -1.6  0     0     980.3    NA       0.0000   UP       BR    7000  5220 
2019/06/08  09:37:01  BASE  4.75692  142  5.86824  105  -1.6  100   -1.6  0     0     980.2    NA       0.0000   UP       BR    7000  5180 
2019/06/08  09:38:01  BASE  5.0862   141  5.65656  138  -1.6  100   -1.6  0     0     980.2    NA       0.0000   UP       BR    8000  5150 
2019/06/08  09:39:01  BASE  4.9686   145  5.65656  138  -1.6  100   -1.6  0     0     980.2    NA       0.0000   UP       BR    8000  5050 
2019/06/08  09:40:01  BASE  4.57464  149  5.65656  138  -1.7  100   -1.7  0     0     980.3    NA       0.0000   UP       BR    7000  5090 
2019/06/08  09:41:01  BASE  4.16892  147  5.65656  138  -1.7  100   -1.7  0     0     980.3    NA       0.0000   UP       BR    7000  4990 
2019/06/08  09:42:01  BASE  4.28652  148  5.65656  138  -1.7  100   -1.7  0     0     980.3    NA       0.0000   UP       BR    7000  4990 
2019/06/08  09:43:01  BASE  4.43352  152  5.65656  138  -1.7  100   -1.7  0     0     980.3    NA       0.0000   UP       BR    7000  4990 
2019/06/08  09:44:01  BASE  3.89844  148  5.65656  138  -1.7  100   -1.7  0     0     980.3    NA       0.0000   UP       BR    7000  4890 
2019/06/08  09:45:01  BASE  3.42804  143  5.65656  138  -1.8  100   -1.8  0     0     980.3    NA       0.0000   UP       BR    7000  4820 
2019/06/08  09:46:01  BASE  3.25752  140  5.65656  138  -1.8  100   -1.8  0     0     980.4    NA       0.0000   UP       BR    7000  4790 
2019/06/08  09:47:01  BASE  3.02232  141  5.65656  138  -1.8  100   -1.8  0     0     980.4    NA       0.0000   UP       BR    7000  4790 
2019/06/08  09:48:01  BASE  2.91648  145  5.47428  154  -1.8  100   -1.8  0     0     980.4    NA       0.0000   UP       BR    7000  4760 
2019/06/08  09:49:01  BASE  2.92236  140  4.96272  155  -1.8  100   -1.8  0     0     980.4    NA       0.0000   UP       BR    7000  4790 
2019/06/08  09:50:01  BASE  3.3516   134  4.86864  143  -1.8  100   -1.8  0     0     980.4    NA       0.0000   UP       BR    7000  1800 
2019/06/08  09:51:01  BASE  3.72792  135  4.86864  143  -1.8  100   -1.8  0     0     980.3    NA       0.0000   UP       BR    7000  1280 
2019/06/08  09:52:01  BASE  3.675    139  4.72164  155  -1.8  100   -1.8  0     0     980.3    NA       0.0000   UP       BR    7000  4790 
2019/06/08  09:53:01  BASE  3.4692   143  4.263    131  -1.8  100   -1.8  0     0     980.3    NA       0.0000   UP       BR    7000  4760 
2019/06/08  09:54:01  BASE  3.29868  132  4.263    131  -1.8  100   -1.8  0     0     980.3    NA       0.0000   UP       BR    7000  4790 
2019/06/08  09:55:00  BASE  3.45744  117  4.263    131  -1.8  100   -1.8  0     0     980.3    NA       0.0000   BR       7000  4860  0    
2019/06/08  09:56:00  BASE  3.62796  118  4.263    131  -1.8  100   -1.8  0     0     980.3    NA       0.0000   BR       7000  4990  0    
2019/06/08  09:57:01  BASE  3.72792  128  4.263    131  -1.8  100   -1.8  0     0     980.2    NA       0.0000   BR       7000  5320  0    
2019/06/08  09:58:00  BASE  3.68088  139  4.263    131  -1.8  100   -1.8  0     0     980.2    NA       0.0000   BR       7000  5350  0    
2019/06/08  09:59:00  BASE  3.19872  142  4.263    131  -1.8  100   -1.8  0     0     980.2    NA       0.0000   BR       7000  5350  0    
2019/06/08  10:00:01  BASE  3.07524  133  4.08072  136  -1.8  100   -1.8  0     0     980.2    NA       0.0000   BR       9999  5510  0    
2019/06/08  10:01:00  BASE  3.48684  122  4.05132  129  -1.8  100   -1.8  0     0     980.2    NA       0.0000   BR       9999  5510  0    
2019/06/08  10:02:00  BASE  3.59268  123  4.05132  129  -1.9  100   -1.9  0     0     980.2    NA       0.0000   BR       9999  5510  0    
2019/06/08  10:03:00  BASE  3.23988  135  4.05132  129  -1.9  100   -1.9  0     0     980.2    NA       0.0000   BR       9999  5480  0    
2019/06/08  10:04:01  BASE  2.86356  140  4.05132  129  -1.9  100   -1.9  0     0     980.2    NA       0.0000   BR       9999  5480  0    
2019/06/08  10:05:01  BASE  2.31672  138  4.05132  129  -1.9  100   -1.9  0     0     980.2    NA       0.0000   9999     5510  0     0    
2019/06/08  10:06:01  BASE  1.37592  156  4.05132  129  -1.9  100   -1.9  0     0     980.2    NA       0.0000   9999     5580  0     0    
2019/06/08  10:07:01  BASE  1.19364  186  4.02192  119  -1.9  100   -1.9  0     0     980.1    NA       0.0000   9999     5580  0     0    
2019/06/08  10:08:01  BASE  1.76988  181  4.02192  119  -1.9  100   -1.9  0     0     980.1    NA       0.0000   9999     5580  0     0    
2019/06/08  10:09:01  BASE  2.21088  169  4.02192  119  -1.9  100   -1.9  0     0     980.1    NA       0.0000   9999     5540  0     0    
2019/06/08  10:10:01  BASE  2.49312  167  4.02192  119  -1.9  100   -1.9  0     0     980.1    NA       0.0000   9999     5610  0     0    
2019/06/08  10:11:01  BASE  2.75772  166  3.96312  121  -1.9  100   -1.9  0     0     980.1    NA       0.0000   9999     5280  0     0    
2019/06/08  10:12:01  BASE  2.646    167  3.35748  169  -1.9  100   -1.9  0     0     980.1    NA       0.0000   9999     5020  0     0    
2019/06/08  10:13:01  BASE  1.92276  174  3.35748  169  -1.9  100   -1.9  0     0     980.1    NA       0.0000   9999     5020  0     0    
2019/06/08  10:14:01  BASE  1.75812  181  3.35748  169  -1.9  100   -1.9  0     0     980.1    NA       0.0000   9999     4990  0     0    
2019/06/08  10:15:01  BASE  1.9698   181  3.35748  169  -1.9  100   -1.9  0     0     980.1    NA       0.0000   9999     5050  0     0    
2019/06/08  10:16:01  BASE  1.68168  162  3.35748  169  -1.9  100   -1.9  0     0     980.2    NA       0.0000   9999     4860  0     0    
2019/06/08  10:17:01  BASE  1.48176  142  3.35748  169  -1.9  100   -1.9  0     0     980.2    NA       0.0000   9999     5050  0     0    
2019/06/08  10:18:01  BASE  1.5582   134  3.35748  169  -1.9  100   -1.9  0     0     980.2    NA       0.0000   9999     5450  0     0    
2019/06/08  10:19:01  BASE  1.84044  140  3.35748  169  -1.9  100   -1.9  0     0     980.1    NA       0.0000   9999     4860  5540  0    
2019/06/08  10:20:01  BASE  2.12856  147  3.35748  169  -1.9  100   -1.9  0     0     980.1    NA       0.0000   9999     5510  0     0    
2019/06/08  10:21:01  BASE  1.9992   133  2.93412  161  -1.9  100   -1.9  0     0     980.2    NA       0.0000   9999     390   5610  0    
2019/06/08  10:22:01  BASE  1.43472  114  2.72244  138  -1.9  100   -1.9  0     0     980.3    NA       0.0000   9999     430   0     0    
2019/06/08  10:23:01  BASE  1.21128  127  2.72244  138  -1.9  100   -1.9  0     0     980.2    NA       0.0000   9999     430   0     0    
2019/06/08  10:24:01  BASE  1.54056  164  2.72244  138  -1.9  100   -1.9  0     0     980.2    NA       0.0000   9999     360   4890  0    
2019/06/08  10:25:01  BASE  2.02272  179  2.72244  138  -1.9  100   -1.9  0     0     980.1    NA       0.0000   9999     330   4760  0    
2019/06/08  10:26:01  BASE  2.44608  171  2.87532  161  -1.9  100   -1.9  0     0     980.2    NA       0.0000   9999     460   4890  0    
2019/06/08  10:27:01  BASE  2.6166   162  2.87532  161  -1.9  100   -1.9  0     0     980.2    NA       0.0000   9999     4760  0     0    
2019/06/08  10:28:01  BASE  2.646    181  3.02232  223  -1.9  100   -1.9  0     0     980.0    NA       0.0000   9999     4630  0     0    
2019/06/08  10:29:00  BASE  3.22224  212  4.02192  222  -1.9  100   -1.9  0     0     979.9    NA       0.0000   9999     4690  0     0    
2019/06/08  10:30:00  BASE  3.12228  211  4.02192  222  -1.9  100   -1.9  0     0     980.0    NA       0.0000   9999     4630  5250  0    
2019/06/08  10:31:00  BASE  2.65776  186  4.02192  222  -1.9  100   -1.9  0     0     980.0    NA       0.0000   9999     4660  0     0    
2019/06/08  10:32:00  BASE  3.01056  178  4.02192  222  -1.9  100   -1.9  0     0     980.0    NA       0.0000   9999     4630  0     0    
2019/06/08  10:33:00  BASE  3.23988  186  4.02192  222  -1.9  100   -1.9  0     0     980.0    NA       0.0000   9999     4490  0     0    
2019/06/08  10:34:00  BASE  3.1458   193  4.02192  222  -1.9  100   -1.9  0     0     980.0    NA       0.0000   9999     4330  0     0    
2019/06/08  10:35:00  BASE  2.90472  196  4.02192  222  -1.9  100   -1.9  0     0     979.9    NA       0.0000   9999     4400  0     0    
2019/06/08  10:36:00  BASE  2.41668  188  4.02192  222  -1.9  100   -1.9  0     0     980.0    NA       0.0000   9999     4330  0     0    
2019/06/08  10:37:01  BASE  1.86396  168  4.02192  222  -1.9  100   -1.9  0     0     980.1    NA       0.0000   9999     4360  0     0    
2019/06/08  10:38:01  BASE  1.83456  156  4.02192  222  -1.9  100   -1.9  0     0     980.0    NA       0.0000   9999     5120  0     0    
2019/06/08  10:39:01  BASE  2.16972  150  3.48096  192  -1.9  100   -1.9  0     0     979.7    NA       0.0000   9999     4300  0     0    
2019/06/08  10:40:01  BASE  2.205    145  3.48096  192  -1.9  100   -1.9  0     0     980.0    NA       0.0000   9999     4270  0     0    
2019/06/08  10:41:01  BASE  2.38728  155  3.48096  192  -2.0  100   -2.0  0     0     979.9    NA       0.0000   9999     4630  5280  0    
2019/06/08  10:42:01  BASE  2.60484  169  3.48096  192  -2.0  100   -2.0  0     0     979.9    NA       0.0000   9999     5120  0     0    
2019/06/08  10:43:00  BASE  2.7048   174  3.48096  172  -2.0  100   -2.0  0     0     979.9    NA       0.0000   9999     4460  5180  0    
2019/06/08  10:44:00  BASE  3.41628  168  4.1454   158  -2.0  100   -2.0  0     0     979.9    NA       0.0000   9999     4630  0     0    
2019/06/08  10:45:00  BASE  3.48096  168  4.1454   158  -2.0  100   -2.0  0     0     980.0    NA       0.0000   9999     5090  0     0    
2019/06/08  10:46:00  BASE  2.09916  173  4.1454   158  -2.0  100   -2.0  0     0     980.1    NA       0.0000   9999     5090  0     0    
2019/06/08  10:47:00  BASE  1.98156  169  4.1454   158  -2.0  100   -2.0  0     0     980.0    NA       0.0000   9999     5090  0     0    
2019/06/08  10:48:00  BASE  2.71656  180  4.1454   158  -2.0  100   -2.0  0     0     980.0    NA       0.0000   9999     5050  0     0    
2019/06/08  10:49:00  BASE  2.3226   195  4.1454   158  -2.0  100   -2.0  0     0     980.1    NA       0.0000   9999     4990  0     0    
2019/06/08  10:50:00  BASE  2.12856  185  4.1454   158  -2.0  100   -2.0  0     0     980.1    NA       0.0000   9999     4990  0     0    
2019/06/08  10:51:00  BASE  2.646    166  4.1454   158  -2.0  100   -2.0  0     0     980.1    NA       0.0000   9999     5020  0     0    
2019/06/08  10:52:00  BASE  2.8224   167  4.1454   158  -2.0  100   -2.0  0     0     980.1    NA       0.0000   9999     620   4990  0    
2019/06/08  10:53:00  BASE  3.15756  194  4.35708  212  -2.0  100   -2.0  0     0     980.0    NA       0.0000   9999     4990  0     0    
2019/06/08  10:54:00  BASE  3.57504  217  4.35708  212  -2.0  100   -2.0  0     0     980.0    NA       0.0000   9999     4130  0     0    
2019/06/08  10:55:01  BASE  3.37512  224  4.35708  212  -1.9  100   -1.9  0     0     980.0    NA       0.0000   9999     3970  0     0    
2019/06/08  10:56:01  BASE  2.78712  217  4.35708  212  -1.9  100   -1.9  0     0     980.1    NA       0.0000   9999     3940  0     0    
2019/06/08  10:57:01  BASE  2.04036  202  4.35708  212  -1.9  100   -1.9  0     0     980.1    NA       0.0000   9999     3940  0     0    
2019/06/08  10:58:01  BASE  1.6464   195  4.35708  212  -1.9  100   -1.9  0     0     980.2    NA       0.0000   9999     3870  0     0    
2019/06/08  10:59:01  BASE  2.205    199  4.35708  212  -1.9  100   -1.9  0     0     980.1    NA       0.0000   9999     3840  0     0    
2019/06/08  11:00:01  BASE  3.36336  200  4.35708  212  -1.9  100   -1.9  0     0     980.0    NA       0.0000   9999     3770  0     0    
2019/06/08  11:01:01  BASE  4.15716  183  4.99212  168  -1.9  100   -1.9  0     0     980.0    NA       0.0000   9999     3740  0     0    
2019/06/08  11:02:01  BASE  4.69812  167  6.10932  149  -1.9  100   -1.9  0     0     979.9    NA       0.0000   9999     3810  0     0    
2019/06/08  11:03:01  BASE  3.75144  176  6.10932  149  -1.9  100   -1.9  0     0     979.9    NA       0.0000   9999     3740  0     0    
2019/06/08  11:04:01  BASE  1.75812  174  6.10932  149  -1.8  100   -1.8  0     0     979.9    NA       0.0000   9999     3710  0     0    
2019/06/08  11:05:01  BASE  1.31124  163  6.10932  149  -1.7  100   -1.7  0     0     980.0    NA       0.0000   9999     3770  0     0    
2019/06/08  11:06:01  BASE  1.01724  173  6.10932  149  -1.6  100   -1.6  0     0     980.1    NA       0.0000   9999     3840  4400  0    
2019/06/08  11:07:01  BASE  1.16424  211  6.10932  149  -1.6  100   -1.6  0     0     980.0    NA       0.0000   9999     4300  0     0    
2019/06/08  11:08:01  BASE  2.1756   214  6.10932  149  -1.5  100   -1.5  0     0     980.0    NA       0.0000   9999     4270  0     0    
2019/06/08  11:09:01  BASE  1.81104  198  6.10932  149  -1.5  100   -1.5  0     0     980.0    NA       0.0000   9999     4170  0     0    
2019/06/08  11:10:01  BASE  2.81064  215  6.16812  215  -1.6  100   -1.6  0     0     979.7    NA       0.0000   9999     4170  0     0    
2019/06/08  11:11:01  BASE  4.47468  190  6.2034   143  -1.5  100   -1.5  0     0     979.8    NA       0.0000   9999     4200  0     0    
2019/06/08  11:12:01  BASE  3.44568  136  6.2034   143  -1.4  100   -1.4  0     0     979.6    NA       0.0000   9999     4170  0     0    
2019/06/08  11:13:01  BASE  1.65816  102  6.2034   143  -1.3  100   -1.3  0     0     979.9    NA       0.0000   UP       9999  4330  0    
2019/06/08  11:14:01  BASE  1.1466   82   6.2034   143  -1.2  100   -1.2  0     0     979.8    NA       0.0000   UP       9999  4360  0    
2019/06/08  11:15:00  BASE  3.528    66   7.65576  44   -1.0  100   -1.0  0     0     979.9    NA       0.0000   UP       9999  4300  0    
2019/06/08  11:16:00  BASE  6.31512  50   8.01444  45   -1.0  100   -1.0  0     0     980.0    NA       0.0000   UP       9999  4230  0    
2019/06/08  11:17:00  BASE  4.45116  27   8.01444  45   -1.0  100   -1.0  0     0     980.0    NA       0.0000   UP       9999  4300  0    
2019/06/08  11:18:00  BASE  1.62876  302  8.01444  45   -1.1  100   -1.1  0     0     979.8    NA       0.0000   UP       9999  4490  0    
2019/06/08  11:19:00  BASE  1.24656  171  8.01444  45   -1.2  100   -1.2  0     0     979.8    NA       0.0000   UP       9999  4430  0    
2019/06/08  11:20:00  BASE  2.34024  78   8.01444  45   -1.3  100   -1.3  0     0     979.9    NA       0.0000   UP       9999  4560  0    
2019/06/08  11:21:00  BASE  4.22772  59   8.01444  45   -1.3  100   -1.3  0     0     980.0    NA       0.0000   UP       9999  4660  0    
2019/06/08  11:22:00  BASE  3.48096  85   8.01444  45   -1.3  100   -1.3  0     0     979.8    NA       0.0000   UP       9999  4760  0    
2019/06/08  11:23:00  BASE  1.85808  183  8.01444  45   -1.3  100   -1.3  0     0     979.6    NA       0.0000   UP       9999  4790  0    
2019/06/08  11:24:00  BASE  2.1168   184  8.01444  45   -1.3  100   -1.3  0     0     979.7    NA       0.0000   UP       9999  4860  0    
2019/06/08  11:25:00  BASE  4.41     155  11.9482  111  -1.3  100   -1.3  0     0     979.6    NA       0.0000   UP       9999  4690  0    
2019/06/08  11:26:00  BASE  5.41548  107  11.9482  111  -1.3  100   -1.3  0     0     979.8    NA       0.0000   UP       9999  4630  0    
2019/06/08  11:27:00  BASE  4.25712  102  11.9482  111  -1.1  100   -1.1  0     0     979.7    NA       0.0000   UP       9999  4560  0    
2019/06/08  11:28:00  BASE  2.205    141  11.9482  111  -1.0  100   -1.0  0     0     979.6    NA       0.0000   UP       9000  4530  0    
2019/06/08  11:29:00  BASE  1.323    146  11.9482  111  -0.8  100   -0.8  0     0     979.6    NA       0.0000   UP       9999  4530  0    
2019/06/08  11:30:00  BASE  4.43352  129  11.9482  111  -0.6  100   -0.6  0     0     979.6    NA       0.0000   UP       9999  4630  0    
2019/06/08  11:31:00  BASE  5.7036   120  11.9482  111  -0.4  100   -0.4  0     0     979.7    NA       0.0000   UP       9999  4720  0    
2019/06/08  11:32:00  BASE  4.55112  117  11.9482  111  -0.3  100   -0.3  0     0     979.7    NA       0.0000   UP       9999  4760  0    
2019/06/08  11:33:01  BASE  3.80436  95   11.9482  111  -0.2  98    -0.4  0     0     979.7    NA       0.0000   UP       9999  4890  0    
2019/06/08  11:34:01  BASE  3.21636  58   11.9482  111  -0.1  96    -0.6  0     0     979.7    NA       0.0000   UP       9999  4860  0    
2019/06/08  11:35:01  BASE  3.22812  37   11.1014  112  -0.2  94    -1.0  0     0     979.7    NA       0.0000   UP       9999  4820  0    
2019/06/08  11:36:01  BASE  3.12228  44   11.1014  112  -0.2  93    -1.3  0     0     979.7    NA       0.0000   UP       9999  4790  0    
2019/06/08  11:37:01  BASE  3.08112  53   7.65576  122  -0.3  91    -1.6  0     0     979.7    NA       0.0000   UP       9999  4690  0    
2019/06/08  11:38:01  BASE  2.09916  55   7.65576  122  -0.4  91    -1.8  0     0     979.7    NA       0.0000   9999     4790  0     0    
2019/06/08  11:39:01  BASE  0.71148  70   7.65576  122  -0.5  91    -1.8  0     0     979.6    NA       0.0000   9999     4720  0     0    
2019/06/08  11:40:01  BASE  1.03488  77   6.07992  117  -0.6  92    -1.7  0     0     979.7    NA       0.0000   9999     4720  0     0    
2019/06/08  11:41:01  BASE  1.65228  72   5.99172  117  -0.6  93    -1.7  0     0     979.7    NA       0.0000   9999     4690  0     0    
2019/06/08  11:42:01  BASE  1.68756  83   3.99252  64   -0.7  93    -1.6  0     0     979.7    NA       0.0000   9999     4760  0     0    
2019/06/08  11:43:01  BASE  1.75224  96   3.78084  57   -0.7  94    -1.6  0     0     979.7    NA       0.0000   9999     4860  0     0    
2019/06/08  11:44:01  BASE  1.89924  103  3.78084  57   -0.8  94    -1.6  0     0     979.6    NA       0.0000   9999     4860  0     0    
2019/06/08  11:45:01  BASE  2.01684  99   3.78084  57   -0.8  95    -1.6  0     0     979.7    NA       0.0000   9999     4920  0     0    
2019/06/08  11:46:01  BASE  2.15796  85   3.78084  57   -0.9  95    -1.6  0     0     979.7    NA       0.0000   9999     4920  0     0    
2019/06/08  11:47:01  BASE  2.0874   73   2.56956  88   -0.9  96    -1.5  0     0     979.7    NA       0.0000   9999     4890  0     0    
2019/06/08  11:48:01  BASE  1.92276  70   2.56956  88   -0.9  96    -1.5  0     0     979.8    NA       0.0000   9999     4860  0     0    
2019/06/08  11:49:01  BASE  1.84632  82   2.56956  88   -0.9  96    -1.4  0     0     979.8    NA       0.0000   9999     4760  0     0    
2019/06/08  11:50:01  BASE  1.74048  88   2.56956  88   -0.8  97    -1.3  0     0     979.8    NA       0.0000   9999     4790  0     0    
2019/06/08  11:51:01  BASE  1.176    94   2.56956  88   -0.8  97    -1.2  0     0     979.7    NA       0.0000   9999     4760  0     0    
2019/06/08  11:52:01  BASE  0.34692  85   2.56956  88   -0.7  96    -1.2  0     0     979.7    NA       0.0000   9999     4720  0     0    
2019/06/08  11:53:01  BASE  0.15876  51   2.56956  88   -0.8  96    -1.3  0     0     979.7    NA       0.0000   9999     4660  0     0    
2019/06/08  11:54:01  BASE  0.7644   73   2.56956  88   -0.8  96    -1.3  0     0     979.7    NA       0.0000   9999     4720  0     0    
2019/06/08  11:55:01  BASE  2.01096  90   4.116    69   -0.7  96    -1.4  0     0     979.7    NA       0.0000   9999     4720  0     0    
2019/06/08  11:56:00  BASE  2.03448  88   4.116    69   -0.8  95    -1.4  0     0     979.8    NA       0.0000   9999     4720  0     0    
2019/06/08  11:57:01  BASE  1.89336  101  4.116    69   -0.7  95    -1.4  0     0     979.8    NA       0.0000   9999     4820  0     0    
2019/06/08  11:58:00  BASE  2.76948  90   4.116    69   -0.7  95    -1.4  0     0     979.7    NA       0.0000   9999     4790  0     0    
2019/06/08  11:59:01  BASE  2.66364  85   4.116    69   -0.7  94    -1.5  0     0     979.8    NA       0.0000   9999     4630  0     0    
2019/06/08  12:00:00  BASE  2.95176  94   4.263    101  -0.7  94    -1.6  0     0     979.8    NA       0.0000   9999     4690  0     0    
2019/06/08  12:01:00  BASE  3.16344  104  4.263    101  -0.7  93    -1.6  0     0     979.8    NA       0.0000   9999     4720  0     0    
2019/06/08  12:02:00  BASE  3.22812  113  4.29828  109  -0.7  93    -1.6  0     0     979.7    NA       0.0000   9999     4660  0     0    
2019/06/08  12:03:00  BASE  3.78672  115  4.29828  109  -0.7  93    -1.6  0     0     979.7    NA       0.0000   9999     4590  0     0    
2019/06/08  12:04:00  BASE  3.68676  123  4.29828  109  -0.6  93    -1.7  0     0     979.7    NA       0.0000   9999     4530  0     0    
2019/06/08  12:05:00  BASE  3.09288  128  4.29828  109  -0.6  93    -1.7  0     0     979.7    NA       0.0000   9999     4490  0     0    
2019/06/08  12:06:00  BASE  2.84004  126  4.29828  109  -0.7  93    -1.7  0     0     979.7    NA       0.0000   9999     4560  0     0    
2019/06/08  12:07:00  BASE  3.33396  125  4.29828  109  -0.7  93    -1.7  0     0     979.7    NA       0.0000   9999     4560  0     0    
2019/06/08  12:08:00  BASE  4.28652  122  5.41548  120  -0.8  93    -1.8  0     0     979.5    NA       0.0000   9999     4590  0     0    
2019/06/08  12:09:00  BASE  4.95096  120  5.41548  120  -0.8  94    -1.7  0     0     979.7    NA       0.0000   9999     4560  0     0    
2019/06/08  12:10:00  BASE  5.03916  126  5.74476  125  -0.8  94    -1.7  0     0     979.7    NA       0.0000   9999     4560  0     0    
2019/06/08  12:11:00  BASE  5.04504  125  5.74476  125  -0.9  95    -1.6  0     0     979.7    NA       0.0000   9999     4490  0     0    
2019/06/08  12:12:00  BASE  4.84512  120  5.74476  125  -0.9  96    -1.5  0     0     979.7    NA       0.0000   9999     4490  0     0    
2019/06/08  12:13:00  BASE  4.12188  115  5.74476  125  -0.9  97    -1.4  0     0     979.8    NA       0.0000   9999     4530  0     0    
2019/06/08  12:14:00  BASE  3.47508  111  5.74476  125  -1.0  98    -1.3  0     0     979.8    NA       0.0000   9999     4560  0     0    
2019/06/08  12:15:00  BASE  3.4104   112  5.74476  125  -1.0  99    -1.2  0     0     979.8    NA       0.0000   9999     4560  0     0    
2019/06/08  12:16:00  BASE  3.5868   109  5.74476  125  -1.0  99    -1.1  0     0     979.8    NA       0.0000   9999     4590  0     0    
2019/06/08  12:17:00  BASE  3.822    106  5.74476  125  -1.0  100   -1.1  0     0     979.8    NA       0.0000   9999     4490  0     0    
2019/06/08  12:18:00  BASE  3.93372  106  5.74476  125  -1.0  100   -1.0  0     0     979.8    NA       0.0000   9999     4430  0     0    
2019/06/08  12:19:00  BASE  4.21008  105  5.74476  125  -1.1  100   -1.1  0     0     979.8    NA       0.0000   9999     4460  0     0    
2019/06/08  12:20:00  BASE  4.28064  111  5.2038   118  -1.1  100   -1.1  0     0     979.8    NA       0.0000   9999     4490  0     0    
2019/06/08  12:21:00  BASE  3.72792  122  5.08032  122  -1.1  100   -1.1  0     0     979.8    NA       0.0000   9999     4530  0     0    
2019/06/08  12:22:01  BASE  3.2928   121  4.72164  93   -1.1  100   -1.1  0     0     979.8    NA       0.0000   9999     4530  0     0    
2019/06/08  12:23:01  BASE  2.793    109  4.72164  93   -1.1  100   -1.1  0     0     979.8    NA       0.0000   9999     4590  0     0    
2019/06/08  12:24:01  BASE  2.499    93   4.72164  93   -1.2  100   -1.2  0     0     979.8    NA       0.0000   9999     4590  0     0    
2019/06/08  12:25:01  BASE  2.68128  87   4.72164  93   -1.2  100   -1.2  0     0     979.8    NA       0.0000   9999     4590  0     0    
2019/06/08  12:26:01  BASE  2.33436  95   4.65696  99   -1.2  100   -1.2  0     0     979.7    NA       0.0000   9999     4660  0     0    
2019/06/08  12:27:01  BASE  2.28144  87   4.65696  99   -1.3  100   -1.3  0     0     979.8    NA       0.0000   9999     4720  0     0    
2019/06/08  12:28:01  BASE  2.19324  80   4.65696  99   -1.3  100   -1.3  0     0     979.8    NA       0.0000   9999     4760  0     0    
2019/06/08  12:29:01  BASE  1.76988  83   4.62756  127  -1.3  100   -1.3  0     0     979.8    NA       0.0000   9999     4790  0     0    
2019/06/08  12:30:01  BASE  1.84044  74   3.75144  116  -1.4  100   -1.4  0     0     979.8    NA       0.0000   9999     4890  0     0    
2019/06/08  12:31:01  BASE  2.06388  66   3.75144  116  -1.4  100   -1.4  0     0     979.8    NA       0.0000   9999     4950  0     0    
2019/06/08  12:32:01  BASE  2.09916  69   3.2046   84   -1.4  100   -1.4  0     0     979.8    NA       0.0000   9999     5050  0     0    
2019/06/08  12:33:01  BASE  1.82868  86   3.2046   84   -1.4  100   -1.4  0     0     979.8    NA       0.0000   9999     5150  0     0    
2019/06/08  12:34:01  BASE  1.39356  97   3.02232  84   -1.4  100   -1.4  0     0     979.8    NA       0.0000   9999     5150  0     0    
2019/06/08  12:35:01  BASE  1.28772  106  3.02232  84   -1.4  100   -1.4  0     0     979.8    NA       0.0000   9999     5180  0     0    
2019/06/08  12:36:01  BASE  1.69344  109  3.02232  84   -1.4  100   -1.4  0     0     979.8    NA       0.0000   9999     5120  0     0    
2019/06/08  12:37:01  BASE  1.94628  105  2.75184  59   -1.4  100   -1.4  0     0     979.8    NA       0.0000   9999     5120  0     0    
2019/06/08  12:38:01  BASE  2.16972  111  2.75184  59   -1.4  100   -1.4  0     0     979.8    NA       0.0000   9999     4950  0     0    
2019/06/08  12:39:01  BASE  2.31672  117  2.75184  59   -1.3  100   -1.3  0     0     979.8    NA       0.0000   9999     5090  0     0    
2019/06/08  12:40:01  BASE  2.352    112  2.75184  59   -1.3  100   -1.3  0     0     979.8    NA       0.0000   9999     5090  0     0    
2019/06/08  12:41:01  BASE  2.31672  99   3.29868  97   -1.3  100   -1.3  0     0     979.8    NA       0.0000   9999     5120  0     0    
2019/06/08  12:42:01  BASE  1.86396  95   3.29868  97   -1.3  100   -1.3  0     0     979.7    NA       0.0000   9999     5150  0     0    
2019/06/08  12:43:01  BASE  1.51116  89   3.29868  97   -1.3  100   -1.3  0     0     979.8    NA       0.0000   UP       9999  5150  0    
2019/06/08  12:44:01  BASE  1.58172  75   3.35748  79   -1.2  100   -1.2  0     0     979.7    NA       0.0000   UP       9999  5250  0    
2019/06/08  12:45:01  BASE  2.22264  63   3.59856  57   -1.2  100   -1.2  0     0     979.7    NA       0.0000   UP       9999  5180  0    
2019/06/08  12:46:01  BASE  2.38728  68   3.59856  57   -1.1  100   -1.1  0     0     979.7    NA       0.0000   UP       9999  5150  0    
2019/06/08  12:47:01  BASE  2.50488  69   3.59856  57   -1.1  100   -1.1  0     0     979.7    NA       0.0000   UP       9999  5220  0    
2019/06/08  12:48:01  BASE  2.54016  79   3.59856  57   -1.1  100   -1.1  0     0     979.7    NA       0.0000   UP       9999  5220  0    
2019/06/08  12:49:01  BASE  2.29908  83   3.69264  65   -1.1  100   -1.1  0     0     979.7    NA       0.0000   UP       9999  5350  0    
2019/06/08  12:50:01  BASE  2.92236  67   3.69264  68   -1.1  100   -1.1  0     0     979.7    NA       0.0000   UP       9999  5380  0    
2019/06/08  12:51:01  BASE  3.29868  64   3.78084  57   -1.0  100   -1.0  0     0     979.7    NA       0.0000   UP       9999  0     0    
2019/06/08  12:52:01  BASE  4.4982   59   6.77376  45   -1.0  100   -1.0  0     0     979.7    NA       0.0000   UP       9999  0     0    
2019/06/08  12:53:01  BASE  6.16812  50   7.3206   45   -0.9  100   -0.9  0     0     979.5    NA       0.0000   UP       9999  5510  0    
2019/06/08  12:54:01  BASE  6.78552  45   7.71456  43   -0.9  100   -0.9  0     0     979.6    NA       0.0000   UP       9999  5510  0    
2019/06/08  12:55:01  BASE  7.33824  40   9.01404  26   -0.8  100   -0.8  0     0     979.5    NA       0.0000   UP       9999  0     0    
2019/06/08  12:56:01  BASE  8.10852  38   9.80196  27   -0.7  100   -0.7  0     0     979.2    NA       0.0000   UP       9999  0     0    
2019/06/08  12:57:01  BASE  8.13204  37   9.80196  27   -0.6  100   -0.7  0     0     979.4    NA       0.0000   UP       9999  5680  0    
2019/06/08  12:58:01  BASE  8.10852  37   9.86076  36   -0.6  99    -0.7  0     0     979.4    NA       0.0000   UP       9999  5680  0    
2019/06/08  12:59:01  BASE  8.9376   35   10.6487  31   -0.5  98    -0.8  0     0     979.3    NA       0.0000   UP       9999  0     0    
2019/06/08  13:00:01  BASE  9.17868  34   10.6487  31   -0.5  97    -0.9  0     0     979.3    NA       0.0000   UP       9999  0     0    
2019/06/08  13:01:00  BASE  8.4378   35   10.6487  31   -0.5  96    -1.0  0     0     979.3    NA       0.0000   UP       9999  0     0    
2019/06/08  13:02:00  BASE  8.83176  35   10.7369  27   -0.5  95    -1.1  0     0     979.2    NA       0.0000   UP       9999  0     0    
2019/06/08  13:03:00  BASE  9.53736  35   10.7369  27   -0.4  94    -1.2  0     0     979.3    NA       0.0000   UP       9999  0     0    
2019/06/08  13:04:00  BASE  9.27864  38   10.7369  27   -0.4  94    -1.3  0     0     979.2    NA       0.0000   UP       9999  0     0    
2019/06/08  13:05:00  BASE  9.59028  36   11.0426  30   -0.4  93    -1.4  0     0     979.2    NA       0.0000   UP       9999  6920  0    
2019/06/08  13:06:00  BASE  10.0136  33   11.0426  30   -0.4  93    -1.5  0     0     979.2    NA       0.0000   UP       9999  6990  0    
2019/06/08  13:07:00  BASE  10.4076  33   11.8247  33   -0.4  92    -1.6  0     0     979.1    NA       0.0000   UP       9999  6890  0    
2019/06/08  13:08:00  BASE  11.0132  34   12.4303  38   -0.5  92    -1.7  0     0     979.1    NA       0.0000   UP       9999  0     0    
2019/06/08  13:09:00  BASE  11.1308  36   12.4303  38   -0.5  91    -1.7  0     0     979.1    NA       0.0000   UP       9999  0     0    
2019/06/08  13:10:00  BASE  11.2073  37   12.889   36   -0.5  91    -1.7  0     0     979.1    NA       0.0000   UP       9999  0     0    
2019/06/08  13:11:01  BASE  10.9192  34   12.9478  37   -0.5  91    -1.8  0     0     979.1    NA       0.0000   UP       9999  0     0    
2019/06/08  13:12:00  BASE  11.2955  31   12.9772  29   -0.5  91    -1.8  0     0     979.0    NA       0.0000   UP       9999  0     0    
2019/06/08  13:13:00  BASE  12.0952  32   13.2476  34   -0.5  90    -1.9  0     0     979.0    NA       0.0000   UP       9999  0     0    
2019/06/08  13:14:00  BASE  11.5601  34   13.2476  34   -0.5  90    -1.9  0     0     979.0    NA       0.0000   UP       9999  0     0    
2019/06/08  13:15:00  BASE  11.1955  36   13.2476  34   -0.5  90    -2.0  0     0     979.0    NA       0.0000   UP       9999  0     0    
2019/06/08  13:16:00  BASE  11.3131  39   13.2476  34   -0.5  90    -2.0  0     0     979.0    NA       0.0000   UP       9000  0     0    
2019/06/08  13:17:00  BASE  11.5777  37   13.2476  34   -0.5  89    -2.0  0     0     979.0    NA       0.0000   UP       9000  8040  0    
2019/06/08  13:18:00  BASE  11.513   35   13.2476  34   -0.4  89    -2.0  0     0     979.0    NA       0.0000   UP       9999  0     0    
2019/06/08  13:19:00  BASE  11.0603  35   13.2476  34   -0.4  89    -2.1  0     0     979.0    NA       0.0000   UP       9999  0     0    
2019/06/08  13:20:00  BASE  10.4958  34   13.2476  34   -0.4  88    -2.1  0     0     979.0    NA       0.0000   UP       9999  0     0    
2019/06/08  13:21:00  BASE  9.85488  36   13.2476  34   -0.4  88    -2.1  0     0     979.0    NA       0.0000   UP       9999  0     0    
2019/06/08  13:22:00  BASE  9.8784   40   13.2476  34   -0.4  88    -2.1  0     0     979.0    NA       0.0000   UP       9999  0     0    
2019/06/08  13:23:00  BASE  9.95484  41   12.8243  28   -0.4  88    -2.2  0     0     979.1    NA       0.0000   UP       9999  0     0    
2019/06/08  13:24:00  BASE  10.043   38   12.8243  28   -0.4  88    -2.2  0     0     979.0    NA       0.0000   UP       9000  7020  0    
2019/06/08  13:25:00  BASE  10.1018  38   12.8243  28   -0.4  88    -2.2  0     0     979.0    NA       0.0000   UP       9000  0     0    
2019/06/08  13:26:00  BASE  10.4076  40   12.8243  28   -0.4  88    -2.2  0     0     978.9    NA       0.0000   UP       9000  6560  0    
2019/06/08  13:27:00  BASE  10.6663  41   12.6126  37   -0.4  88    -2.2  0     0     978.9    NA       0.0000   UP       8000  7420  0    
2019/06/08  13:28:00  BASE  10.5664  41   12.2833  35   -0.4  87    -2.2  0     0     978.9    NA       0.0000   UP       9999  6370  0    
2019/06/08  13:29:00  BASE  10.3018  39   12.1304  31   -0.4  87    -2.3  0     0     978.9    NA       0.0000   UP       9999  6300  0    
2019/06/08  13:30:00  BASE  10.3312  39   12.248   37   -0.4  87    -2.3  0     0     978.8    NA       0.0000   UP       9999  6370  0    
2019/06/08  13:31:01  BASE  10.6193  41   12.248   37   -0.4  87    -2.3  0     0     978.8    NA       0.0000   UP       9999  6370  0    
2019/06/08  13:32:01  BASE  11.0368  44   12.7361  45   -0.4  87    -2.3  0     0     978.8    NA       0.0000   UP       9999  5740  0    
2019/06/08  13:33:01  BASE  11.2249  43   12.7361  45   -0.4  87    -2.3  0     0     978.8    NA       0.0000   UP       9999  5770  0    
2019/06/08  13:34:01  BASE  10.5017  42   12.7361  45   -0.4  87    -2.3  0     0     978.8    NA       0.0000   UP       9999  5970  0    
2019/06/08  13:35:01  BASE  10.2959  41   12.7361  45   -0.4  87    -2.3  0     0     978.8    NA       0.0000   UP       9999  6040  0    
2019/06/08  13:36:01  BASE  10.7369  41   12.7949  47   -0.4  87    -2.3  0     0     978.8    NA       0.0000   UP       9999  6040  0    
2019/06/08  13:37:01  BASE  10.9486  42   12.7949  47   -0.4  87    -2.3  0     0     978.8    NA       0.0000   UP       9999  6070  0    
2019/06/08  13:38:01  BASE  11.2543  44   12.8537  41   -0.4  87    -2.3  0     0     978.7    NA       0.0000   UP       9999  6100  0    
2019/06/08  13:39:01  BASE  11.8012  45   13.1006  48   -0.3  87    -2.3  0     0     978.7    NA       0.0000   UP       9999  6070  0    
2019/06/08  13:40:01  BASE  11.4542  48   13.1006  48   -0.3  87    -2.3  0     0     978.7    NA       0.0000   UP       9999  6070  0    
2019/06/08  13:41:01  BASE  10.8133  49   13.1006  48   -0.3  86    -2.3  0     0     978.6    NA       0.0000   UP       9999  6100  0    
2019/06/08  13:42:01  BASE  11.2132  45   13.3417  37   -0.3  86    -2.3  1     0     978.6    NA       0.0000   9999     6070  0     0    
2019/06/08  13:43:01  BASE  10.6546  44   13.3417  37   -0.3  86    -2.4  1     0     978.6    NA       0.0000   9999     6000  0     0    
2019/06/08  13:44:01  BASE  10.8898  43   14.1884  36   -0.3  86    -2.4  1     0     978.5    NA       0.0000   9999     6000  0     0    
2019/06/08  13:45:01  BASE  12.595   43   14.9117  31   -0.3  86    -2.4  1     0     977.9    NA       0.0000   9999     6040  0     0    
2019/06/08  13:46:01  BASE  12.8125  40   14.9117  31   -0.3  86    -2.4  1     0     978.3    NA       0.0000   9999     6040  0     0    
2019/06/08  13:47:01  BASE  12.9301  40   15.3997  48   -0.3  86    -2.4  1     0     977.8    NA       0.0000   7000     6040  0     0    
2019/06/08  13:48:01  BASE  12.7655  42   15.3997  48   -0.3  86    -2.4  1     0     978.3    NA       0.0000   UP       6000  6040  0    
2019/06/08  13:49:01  BASE  12.936   43   15.9407  39   -0.3  86    -2.4  1     0     978.3    NA       0.0000   UP       BR    6000  6070 
2019/06/08  13:50:01  BASE  14.0062  42   16.8168  37   -0.3  86    -2.4  1     0     978.2    NA       0.0000   UP       BR    6000  6000 
2019/06/08  13:51:01  BASE  14.0238  38   16.8168  37   -0.3  86    -2.3  1     0     978.2    NA       0.0000   UP       BR    5000  6000 
2019/06/08  13:52:01  BASE  13.4417  38   16.8168  37   -0.3  86    -2.3  1     0     978.2    NA       0.0000   UP       BR    4700  6140 
2019/06/08  13:53:01  BASE  13.4946  39   16.8168  37   -0.3  86    -2.3  1     0     978.1    NA       0.0000   UP       BR    5000  6170 
2019/06/08  13:54:01  BASE  13.33    38   16.8168  37   -0.3  86    -2.3  1     0     978.1    NA       0.0000   UP       BR    5000  6100 
2019/06/08  13:55:01  BASE  12.7714  37   16.8168  37   -0.2  86    -2.3  1     0     978.1    NA       0.0000   UP       BR    6000  6100 
2019/06/08  13:56:01  BASE  13.3652  36   16.8168  37   -0.3  86    -2.3  1     0     978.1    NA       0.0000   UP       BR    6000  6530 
2019/06/08  13:57:01  BASE  14.012   34   16.8168  37   -0.3  86    -2.4  1     0     978.0    NA       0.0000   UP       BR    6000  7020 
2019/06/08  13:58:01  BASE  13.2359  36   16.8168  37   -0.3  85    -2.4  1     0     978.1    NA       0.0000   UP       BR    5000  5770 
2019/06/08  13:59:01  BASE  12.6126  34   16.8168  37   -0.2  85    -2.4  1     0     977.8    NA       0.0000   UP       BR    5000  6860 
2019/06/08  14:00:01  BASE  13.4417  33   16.2758  38   -0.2  85    -2.5  1     0     978.0    NA       0.0000   UP       BR    5000  6860 
2019/06/08  14:01:01  BASE  14.3942  36   16.2758  38   -0.2  85    -2.4  1     0     978.0    NA       0.0000   UP       BR    5000  6790 
2019/06/08  14:02:01  BASE  14.5706  36   16.2758  38   -0.2  85    -2.4  1     0     978.0    NA       0.0000   UP       BR    5000  6660 
2019/06/08  14:03:01  BASE  14.506   36   16.2758  38   -0.2  85    -2.4  1     0     977.9    NA       0.0000   UP       3900  0     0    
2019/06/08  14:04:01  BASE  14.306   35   16.2758  38   -0.2  85    -2.5  1     0     977.9    NA       0.0000   UP       4500  6530  0    
2019/06/08  14:05:01  BASE  13.8298  35   16.2758  38   -0.1  84    -2.5  1     0     978.0    NA       0.0000   UP       4600  6170  0    
2019/06/08  14:06:01  BASE  13.7063  39   16.123   37   -0.1  84    -2.5  1     0     978.0    NA       0.0000   UP       4100  6140  0    
2019/06/08  14:07:01  BASE  14.0708  38   16.123   37   -0.1  84    -2.6  1     0     978.0    NA       0.0000   UP       4500  6140  0    
2019/06/08  14:08:01  BASE  13.4652  36   16.123   37   -0.1  83    -2.6  1     0     978.0    NA       0.0000   UP       5000  6140  0    
2019/06/08  14:09:01  BASE  13.2535  37   16.123   37   -0.1  83    -2.6  1     0     978.0    NA       0.0000   UP       6000  6140  0    
2019/06/08  14:10:01  BASE  14.1767  37   16.123   37   -0.1  83    -2.7  2     0     978.0    NA       0.0000   UP       5000  6070  0    
2019/06/08  14:11:01  BASE  13.6534  38   16.123   37   -0.1  83    -2.7  2     0     978.1    NA       0.0000   UP       5000  6040  0    
2019/06/08  14:12:00  BASE  12.8831  39   16.123   37   -0.1  83    -2.6  2     0     978.0    NA       0.0000   UP       5000  6690  0    
2019/06/08  14:13:01  BASE  12.9889  40   16.123   37   -0.1  83    -2.6  2     0     978.0    NA       0.0000   UP       4000  6760  0    
2019/06/08  14:14:00  BASE  12.8066  37   16.123   37   -0.1  83    -2.6  2     0     978.0    NA       0.0000   UP       4000  6730  0    
2019/06/08  14:15:00  BASE  12.5538  36   16.123   37   -0.1  83    -2.7  2     0     978.0    NA       0.0000   UP       4000  6690  0    
2019/06/08  14:16:00  BASE  12.5479  36   16.0936  43   -0.1  83    -2.7  2     0     977.9    NA       0.0000   UP       4000  6630  0    
2019/06/08  14:17:00  BASE  13.1359  37   16.0936  43   -0.1  83    -2.7  2     0     978.0    NA       0.0000   UP       4000  5840  0    
2019/06/08  14:18:00  BASE  13.3241  40   16.0936  43   -0.1  83    -2.7  2     0     977.9    NA       0.0000   UP       4000  5870  0    
2019/06/08  14:19:00  BASE  13.0712  38   15.8525  36   -0.1  83    -2.7  2     0     978.0    NA       0.0000   UP       4000  6270  0    
2019/06/08  14:20:01  BASE  13.2829  36   15.8525  36   -0.1  83    -2.7  2     0     977.6    NA       0.0000   UP       4000  6140  0    
2019/06/08  14:21:00  BASE  13.5652  37   15.8525  36   -0.1  83    -2.7  2     0     977.8    NA       0.0000   UP       4400  4590  0    
2019/06/08  14:22:00  BASE  13.2241  38   15.8525  36   -0.1  83    -2.7  2     0     977.9    NA       0.0000   UP       5000  4720  0    
2019/06/08  14:23:00  BASE  12.2833  36   15.8525  36   -0.1  83    -2.7  2     0     977.9    NA       0.0000   UP       7000  4990  0    
2019/06/08  14:24:01  BASE  13.2653  37   15.8525  36   -0.1  83    -2.7  2     0     977.8    NA       0.0000   UP       7000  5810  0    
2019/06/08  14:25:00  BASE  13.9356  37   15.8525  36   -0.2  83    -2.7  2     0     977.8    NA       0.0000   UP       7000  5320  0    
2019/06/08  14:26:00  BASE  13.1065  37   15.8525  36   -0.2  83    -2.7  2     0     977.8    NA       0.0000   UP       7000  5380  0    
2019/06/08  14:27:00  BASE  13.3594  36   15.6996  39   -0.2  84    -2.6  2     0     977.8    NA       0.0000   UP       7000  5380  0    
2019/06/08  14:28:00  BASE  13.3888  37   15.6996  39   -0.2  84    -2.6  2     0     977.9    NA       0.0000   UP       7000  5220  0    
2019/06/08  14:29:00  BASE  13.571   38   15.6996  39   -0.2  84    -2.6  2     0     977.8    NA       0.0000   UP       6000  5180  0    
2019/06/08  14:30:00  BASE  13.0007  36   15.6996  39   -0.2  84    -2.6  2     0     977.9    NA       0.0000   UP       6000  6430  0    
2019/06/08  14:31:00  BASE  12.3892  35   15.6996  39   -0.2  84    -2.6  2     0     977.9    NA       0.0000   UP       9000  5250  0    
2019/06/08  14:32:00  BASE  12.5891  36   15.6996  39   -0.2  84    -2.6  2     0     977.9    NA       0.0000   HZ       4000  6460  0    
2019/06/08  14:33:00  BASE  12.5891  36   15.6996  39   -0.2  84    -2.6  3     0     977.8    NA       0.0000   HZ       3500  6430  0    
2019/06/08  14:34:00  BASE  13.5828  36   15.6114  37   -0.2  84    -2.6  3     0     977.8    NA       0.0000   HZ       7000  6430  0    
2019/06/08  14:35:00  BASE  13.8886  35   15.6114  37   -0.2  84    -2.6  3     0     977.9    NA       0.0000   HZ       6000  6270  0    
2019/06/08  14:36:00  BASE  13.6357  32   15.6114  37   -0.2  84    -2.5  3     0     977.8    NA       0.0000   HZ       6000  6230  0    
2019/06/08  14:37:00  BASE  13.6063  32   15.6114  37   -0.1  84    -2.5  3     0     977.8    NA       0.0000   HZ       6000  6400  0    
2019/06/08  14:38:00  BASE  13.7063  32   15.6114  37   -0.1  84    -2.5  3     0     977.7    NA       0.2540   HZ       6000  6400  0    
2019/06/08  14:39:01  BASE  13.3888  33   15.6114  37   -0.1  84    -2.5  3     0     977.9    NA       0.0000   HZ       7000  6230  0    
2019/06/08  14:40:01  BASE  13.1771  32   15.6114  37   -0.1  84    -2.5  3     0     977.8    NA       0.0000   HZ       8000  6230  0    
2019/06/08  14:41:01  BASE  13.6651  31   15.6114  37   -0.1  84    -2.5  3     0     977.8    NA       0.0000   HZ       9000  6100  0    
2019/06/08  14:42:01  BASE  13.5005  30   15.6114  37   -0.1  84    -2.5  3     0     977.8    NA       0.0000   HZ       9999  5970  0    
2019/06/08  14:43:01  BASE  13.7886  31   15.6408  40   -0.1  84    -2.5  3     0     977.8    NA       0.0000   HZ       9999  6270  0    
2019/06/08  14:44:01  BASE  14.1532  31   15.6408  40   -0.2  84    -2.5  3     0     977.8    NA       0.0000   HZ       9000  6330  0    
2019/06/08  14:45:01  BASE  13.9121  32   15.6408  40   -0.2  84    -2.6  3     0     977.8    NA       0.0000   HZ       8000  5740  0    
2019/06/08  14:46:01  BASE  14.0179  31   16.3346  31   -0.2  84    -2.5  3     0     977.8    NA       0.0000   HZ       6000  5710  0    
2019/06/08  14:47:01  BASE  14.3884  32   16.3346  31   -0.2  84    -2.5  3     0     977.8    NA       0.0000   UP       6000  5680  0    
2019/06/08  14:48:01  BASE  14.4707  32   16.3346  31   -0.2  84    -2.5  3     0     977.8    NA       0.0000   UP       8000  6370  0    
2019/06/08  14:49:01  BASE  13.7827  29   16.3346  31   -0.2  84    -2.5  3     0     977.8    NA       0.0000   UP       8000  4560  0    
2019/06/08  14:50:01  BASE  13.377   30   16.3346  31   -0.2  84    -2.5  3     0     977.8    NA       0.0000   UP       9000  6630  0    
2019/06/08  14:51:01  BASE  13.1242  30   16.3346  31   -0.2  84    -2.6  3     0     977.9    NA       0.0000   UP       9000  6660  0    
2019/06/08  14:52:01  BASE  12.5126  29   16.3346  31   -0.2  84    -2.6  3     0     977.9    NA       0.0000   UP       9000  4400  0    
2019/06/08  14:53:01  BASE  12.4832  30   16.3346  31   -0.2  84    -2.6  3     0     977.9    NA       0.0000   UP       9999  4400  0    
2019/06/08  14:54:01  BASE  12.8008  31   16.3346  31   -0.2  84    -2.6  3     0     977.8    NA       0.0000   UP       9999  4530  0    
2019/06/08  14:55:01  BASE  12.8125  29   16.3346  31   -0.2  84    -2.6  3     0     977.8    NA       0.0000   UP       9999  5840  0    
2019/06/08  14:56:01  BASE  13.0183  29   15.9113  42   -0.3  84    -2.6  3     0     977.8    NA       0.0000   UP       9999  4760  0    
2019/06/08  14:57:01  BASE  13.1477  28   15.8819  34   -0.3  85    -2.6  3     0     977.7    NA       0.0000   HZ       9999  4760  0    
2019/06/08  14:58:01  BASE  13.2829  26   15.8819  34   -0.3  85    -2.5  3     0     977.7    NA       0.0000   HZ       9000  4790  0    
2019/06/08  14:59:01  BASE  13.865   29   16.5463  33   -0.3  85    -2.5  3     0     977.6    NA       0.0000   BR       9000  4660  0    
2019/06/08  15:00:01  BASE  14.1061  33   16.5463  33   -0.3  85    -2.5  4     0     977.6    NA       0.0000   BR       9000  4590  0    
2019/06/08  15:01:01  BASE  14.3354  33   16.5463  33   -0.3  85    -2.5  4     0     977.5    NA       0.0000   BR       6000  4690  0    
2019/06/08  15:02:01  BASE  14.8352  32   16.5463  30   -0.3  85    -2.5  4     0     977.5    NA       0.0000   UP       BR    5000  5970 
2019/06/08  15:03:01  BASE  15.3174  33   17.152   34   -0.3  85    -2.5  4     0     977.5    NA       0.0000   UP       BR    4500  4590 
2019/06/08  15:04:01  BASE  15.4585  34   17.2696  35   -0.3  85    -2.5  4     0     977.4    NA       0.0000   UP       BR    4200  6040 
2019/06/08  15:05:01  BASE  15.4644  32   18.2692  37   -0.3  85    -2.5  4     0     977.4    NA       0.0000   UP       BR    5000  6140 
2019/06/08  15:06:01  BASE  15.3174  31   18.2692  37   -0.3  85    -2.5  4     0     977.4    NA       0.0000   UP       BR    5000  6200 
2019/06/08  15:07:01  BASE  15.6349  31   18.2692  37   -0.2  85    -2.4  4     0     977.3    NA       0.0000   UP       BR    3700  5120 
2019/06/08  15:08:01  BASE  15.8348  32   18.2692  37   -0.2  85    -2.4  4     0     977.3    NA       0.0000   UP       BR    3700  5280 
2019/06/08  15:09:01  BASE  15.7702  33   18.2692  37   -0.2  85    -2.4  4     0     977.3    NA       0.0000   UP       BR    5000  6430 
2019/06/08  15:10:01  BASE  15.9583  32   18.2692  37   -0.2  85    -2.4  4     0     977.2    NA       0.0000   UP       BR    6000  5410 
2019/06/08  15:11:01  BASE  16.1818  33   18.2692  37   -0.2  85    -2.4  4     0     977.2    NA       0.0000   UP       BR    5000  6660 
2019/06/08  15:12:01  BASE  16.5169  34   18.2692  37   -0.2  85    -2.4  4     0     977.2    NA       0.0000   UP       BR    4100  5450 
2019/06/08  15:13:01  BASE  16.2641  35   18.2692  37   -0.2  85    -2.4  4     0     977.3    NA       0.0000   UP       BR    4700  5580 
2019/06/08  15:14:01  BASE  15.5644  34   18.2692  37   -0.2  85    -2.4  4     0     977.3    NA       0.0000   UP       5000  6500  0    
2019/06/08  15:15:00  BASE  15.2527  31   18.1516  41   -0.2  85    -2.4  4     0     977.3    NA       0.0000   UP       6000  6590  0    
2019/06/08  15:16:01  BASE  14.8882  32   18.1516  41   -0.2  84    -2.5  5     0     977.4    NA       0.0000   UP       7000  5870  0    
2019/06/08  15:17:00  BASE  14.994   34   18.1516  41   -0.2  84    -2.5  5     0     977.3    NA       0.0000   UP       7000  6760  0    
2019/06/08  15:18:00  BASE  15.5291  34   18.1516  41   -0.2  84    -2.5  5     0     977.4    NA       0.0000   UP       7000  6820  0    
2019/06/08  15:19:00  BASE  15.4938  34   18.1516  41   -0.2  84    -2.6  5     0     977.4    NA       0.0000   UP       7000  6820  0    
2019/06/08  15:20:00  BASE  14.8352  34   18.1516  41   -0.2  84    -2.6  5     0     977.5    NA       0.0000   UP       7000  6820  0    
2019/06/08  15:21:00  BASE  14.7764  32   18.2692  36   -0.2  84    -2.6  5     0     977.4    NA       0.0000   UP       7000  7380  0    
2019/06/08  15:22:00  BASE  15.1351  31   18.2692  36   -0.2  84    -2.6  5     0     977.5    NA       0.0000   UP       7000  7350  0    
2019/06/08  15:23:00  BASE  15.141   31   18.2692  36   -0.2  84    -2.6  5     0     977.4    NA       0.0000   UP       7000  7350  0    
2019/06/08  15:24:00  BASE  15.1469  31   18.2692  36   -0.2  84    -2.6  5     0     977.5    NA       0.0000   UP       7000  7280  0    
2019/06/08  15:25:00  BASE  14.5824  33   18.2692  36   -0.2  84    -2.6  5     0     977.5    NA       0.0000   UP       7000  7280  0    
2019/06/08  15:26:01  BASE  14.4295  35   18.2692  36   -0.2  84    -2.6  5     0     977.5    NA       0.0000   UP       7000  7320  0    
2019/06/08  15:27:00  BASE  14.8     33   18.2692  36   -0.2  84    -2.6  6     0     977.5    NA       0.0000   UP       7000  5050  0    
2019/06/08  15:28:00  BASE  14.4001  34   18.2692  36   -0.3  85    -2.5  6     0     977.6    NA       0.0000   UP       7000  7610  0    
2019/06/08  15:29:00  BASE  13.9356  38   18.2692  36   -0.3  85    -2.5  6     0     977.5    NA       0.0000   UP       8000  7610  0    
2019/06/08  15:30:00  BASE  13.7298  37   18.2692  36   -0.3  85    -2.5  6     0     977.5    NA       0.0000   UP       BR    8000  7840 
2019/06/08  15:31:00  BASE  13.8121  35   17.2696  29   -0.3  85    -2.5  6     0     977.4    NA       0.0000   UP       BR    8000  7320 
2019/06/08  15:32:00  BASE  14.2472  34   17.4518  23   -0.3  85    -2.5  6     0     977.4    NA       0.0000   UP       BR    9000  8040 
2019/06/08  15:33:00  BASE  13.8944  34   17.4518  23   -0.3  85    -2.5  6     0     977.5    NA       0.0000   BR       9000  7280  0    
2019/06/08  15:34:00  BASE  13.8121  35   17.4518  23   -0.3  85    -2.5  6     0     977.5    NA       0.0000   BR       9000  7320  0    
2019/06/08  15:35:00  BASE  14.5412  35   17.4518  23   -0.3  85    -2.5  6     0     977.4    NA       0.0000   BR       9000  7350  0    
2019/06/08  15:36:00  BASE  15.0881  34   17.4518  23   -0.3  85    -2.5  6     0     977.4    NA       0.0000   BR       9000  7510  0    
2019/06/08  15:37:00  BASE  14.6706  37   17.4518  23   -0.3  85    -2.5  6     0     977.5    NA       0.0000   BR       7000  8170  0    
2019/06/08  15:38:00  BASE  14.012   35   17.4518  23   -0.3  85    -2.5  6     0     977.5    NA       0.0000   UP       BR    5000  7610 
2019/06/08  15:39:00  BASE  13.5887  34   17.4518  23   -0.3  85    -2.5  6     0     977.5    NA       0.0000   UP       5000  7680  0    
2019/06/08  15:40:00  BASE  13.1006  37   17.4518  23   -0.2  85    -2.5  6     0     977.6    NA       0.0000   UP       5000  7090  0    
2019/06/08  15:41:00  BASE  12.5126  40   17.4518  23   -0.2  85    -2.5  6     0     977.7    NA       0.0000   UP       7000  7090  0    
2019/06/08  15:42:00  BASE  12.2833  42   17.4224  29   -0.2  85    -2.5  6     0     977.7    NA       0.0000   UP       9999  7220  0    
2019/06/08  15:43:00  BASE  11.9893  42   17.4224  29   -0.2  85    -2.5  6     0     977.8    NA       0.0000   UP       9999  7150  0    
2019/06/08  15:44:00  BASE  11.66    43   17.4224  29   -0.2  85    -2.5  6     0     977.8    NA       0.0000   UP       9999  7150  0    
2019/06/08  15:45:00  BASE  11.0544  44   16.7874  36   -0.2  85    -2.5  6     0     977.9    NA       0.0000   UP       9999  7380  0    
2019/06/08  15:46:00  BASE  9.51972  42   16.7874  36   -0.2  84    -2.5  6     0     977.9    NA       0.0000   UP       9999  7480  0    
2019/06/08  15:47:00  BASE  9.91956  40   14.8823  25   -0.2  84    -2.5  6     0     977.8    NA       0.0000   HZ       9999  7450  0    
2019/06/08  15:48:01  BASE  11.4248  39   14.8823  25   -0.2  84    -2.6  5     0     977.8    NA       0.0000   HZ       9999  7510  0    
2019/06/08  15:49:01  BASE  11.0956  40   14.7941  39   -0.2  84    -2.6  5     0     977.8    NA       0.0000   9999     7420  0     0    
2019/06/08  15:50:01  BASE  10.2136  41   14.6412  32   -0.2  84    -2.6  5     0     977.9    NA       0.0000   9999     7610  0     0    
2019/06/08  15:51:01  BASE  9.0258   39   14.4883  43   -0.2  84    -2.6  5     0     977.9    NA       0.0000   9999     7780  0     0    
2019/06/08  15:52:01  BASE  8.59068  42   14.2178  53   -0.2  84    -2.6  5     0     977.9    NA       0.0000   9999     7320  0     0    
2019/06/08  15:53:01  BASE  10.0548  47   14.2178  53   -0.2  84    -2.6  5     0     977.9    NA       0.0000   9999     7780  0     0    
2019/06/08  15:54:01  BASE  10.3194  47   13.7945  31   -0.2  83    -2.6  5     0     978.0    NA       0.0000   9999     7480  0     0    
2019/06/08  15:55:01  BASE  8.8494   50   13.7945  31   -0.2  83    -2.7  5     0     978.0    NA       0.0000   9999     7840  0     0    
2019/06/08  15:56:01  BASE  8.0262   54   13.7945  31   -0.1  83    -2.6  5     0     978.1    NA       0.0000   9999     7580  0     0    
2019/06/08  15:57:01  BASE  7.77924  55   13.7945  31   -0.1  83    -2.6  5     0     978.1    NA       0.0000   9999     7910  0     0    
2019/06/08  15:58:01  BASE  7.86744  62   13.7651  34   -0.1  83    -2.7  5     0     978.1    NA       0.0000   9999     7970  0     0    
2019/06/08  15:59:01  BASE  8.52012  68   13.7651  34   -0.1  83    -2.7  5     0     978.1    NA       0.0000   9999     7940  0     0    
2019/06/08  16:00:01  BASE  8.31432  75   13.7651  34   -0.1  83    -2.7  6     0     978.1    NA       0.0000   9999     7710  0     0    
2019/06/08  16:01:01  BASE  8.63184  77   13.7651  34   -0.1  83    -2.6  6     0     978.2    NA       0.0000   9999     7580  0     0    
2019/06/08  16:02:01  BASE  8.8788   76   13.7651  34   -0.1  83    -2.7  6     0     978.3    NA       0.0000   9999     7550  0     0    
2019/06/08  16:03:01  BASE  8.03208  83   12.3421  71   -0.1  83    -2.7  6     0     978.2    NA       0.0000   9999     7480  8100  0    
2019/06/08  16:04:01  BASE  8.52012  85   12.4656  81   -0.1  82    -2.7  6     0     978.2    NA       0.0000   9999     7510  0     0    
2019/06/08  16:05:01  BASE  8.66124  95   12.4656  81   -0.1  82    -2.8  6     0     978.2    NA       0.0000   9999     7480  0     0    
2019/06/08  16:06:01  BASE  8.01444  107  12.4656  81   -0.1  82    -2.8  6     0     978.2    NA       0.0000   9999     7350  0     0    
2019/06/08  16:07:01  BASE  8.04384  106  12.4656  81   -0.1  82    -2.8  6     0     978.3    NA       0.0000   9999     7350  0     0    
2019/06/08  16:08:01  BASE  7.7322   112  12.4656  81   -0.2  83    -2.8  7     0     978.3    NA       0.0000   9999     7450  0     0    
2019/06/08  16:09:01  BASE  6.29748  132  12.4656  81   -0.2  83    -2.7  7     0     978.4    NA       0.0000   9999     7380  0     0    
2019/06/08  16:10:01  BASE  5.30964  109  12.4656  81   -0.2  83    -2.8  7     0     978.4    NA       0.0000   9999     7420  0     0    
2019/06/08  16:11:01  BASE  5.7918   117  12.4656  81   -0.2  83    -2.8  7     0     978.2    NA       0.0000   9999     7450  0     0    
2019/06/08  16:12:01  BASE  6.16224  153  12.4656  81   -0.2  82    -2.8  7     0     978.2    NA       0.0000   9999     6920  0     0    
2019/06/08  16:13:01  BASE  6.55032  147  12.4656  81   -0.2  82    -2.9  7     0     978.2    NA       0.0000   9999     6960  0     0    
2019/06/08  16:14:01  BASE  7.04424  141  11.1602  95   -0.2  82    -2.9  7     0     978.2    NA       0.0000   9999     6860  7510  0    
2019/06/08  16:15:01  BASE  6.97368  140  11.1014  80   -0.2  82    -2.9  7     0     978.1    NA       0.0000   9999     6430  0     0    
2019/06/08  16:16:01  BASE  6.57384  138  11.1014  80   -0.2  82    -2.9  7     0     978.2    NA       0.0000   9999     6590  0     0    
2019/06/08  16:17:00  BASE  6.17988  134  11.1014  80   -0.2  82    -2.9  7     0     978.2    NA       0.0000   9999     6860  8300  0    
2019/06/08  16:18:00  BASE  6.70908  129  10.6193  53   -0.2  82    -2.9  7     0     978.1    NA       0.0000   9999     8300  0     0    
2019/06/08  16:19:00  BASE  7.06776  124  10.6193  53   -0.3  82    -2.9  7     0     978.2    NA       0.0000   9999     8300  0     0    
2019/06/08  16:20:00  BASE  6.41508  126  8.50248  125  -0.3  83    -2.9  8     0     978.3    NA       0.0000   9999     8330  0     0    
2019/06/08  16:21:00  BASE  5.65068  126  8.50248  125  -0.4  83    -2.9  8     0     978.3    NA       0.0000   9999     8530  0     0    
2019/06/08  16:22:00  BASE  5.38608  114  8.50248  125  -0.5  84    -2.9  8     0     978.3    NA       0.0000   9999     8400  0     0    
2019/06/08  16:23:00  BASE  5.83884  112  8.50248  125  -0.5  84    -2.9  8     0     978.2    NA       0.0000   9999     8500  0     0    
2019/06/08  16:24:00  BASE  6.28572  124  8.379    128  -0.5  84    -2.8  8     0     978.2    NA       0.0000   9999     8430  0     0    
2019/06/08  16:25:00  BASE  5.66832  123  8.379    128  -0.5  85    -2.8  8     0     978.3    NA       0.0000   9999     8400  0     0    
2019/06/08  16:26:00  BASE  4.80396  114  8.379    128  -0.5  85    -2.7  8     0     978.4    NA       0.0000   9999     8170  0     0    
2019/06/08  16:27:00  BASE  4.68636  110  8.379    128  -0.5  85    -2.7  8     0     978.4    NA       0.0000   9999     8300  0     0    
2019/06/08  16:28:01  BASE  4.37472  113  7.59108  120  -0.6  86    -2.7  8     0     978.3    NA       0.0000   9999     8300  0     0    
2019/06/08  16:29:00  BASE  4.10424  117  7.53228  104  -0.6  86    -2.7  8     0     978.4    NA       0.0000   9999     7910  0     0    
2019/06/08  16:30:01  BASE  4.31004  122  7.53228  104  -0.7  86    -2.6  8     0     978.4    NA       0.0000   9999     7840  0     0    
2019/06/08  16:31:00  BASE  3.89256  126  7.53228  104  -0.7  87    -2.6  8     0     978.4    NA       0.0000   9999     7780  0     0    
2019/06/08  16:32:01  BASE  3.22812  123  6.92664  126  -0.7  87    -2.5  8     0     978.4    NA       0.0000   9999     7780  0     0    
2019/06/08  16:33:00  BASE  2.96352  122  6.92664  126  -0.7  88    -2.5  9     0     978.4    NA       0.0000   9999     7280  0     0    
2019/06/08  16:34:00  BASE  2.96352  125  5.68596  128  -0.7  88    -2.5  9     0     978.4    NA       0.0000   9999     7120  0     0    
2019/06/08  16:35:00  BASE  3.2634   119  4.99212  124  -0.7  88    -2.4  9     0     978.4    NA       0.0000   9999     7020  0     0    
2019/06/08  16:36:00  BASE  3.3516   116  4.99212  124  -0.7  88    -2.5  9     0     978.5    NA       0.0000   9999     7090  0     0    
2019/06/08  16:37:01  BASE  3.4986   119  4.99212  124  -0.8  88    -2.5  9     0     978.5    NA       0.0000   9999     6990  0     0    
2019/06/08  16:38:00  BASE  3.5868   123  4.99212  124  -0.7  88    -2.4  9     0     978.4    NA       0.0000   9999     6860  0     0    
2019/06/08  16:39:00  BASE  3.8808   131  4.99212  124  -0.7  88    -2.4  9     0     978.3    NA       0.0000   9999     6920  0     0    
2019/06/08  16:40:00  BASE  3.74556  136  4.86864  131  -0.6  88    -2.3  9     0     978.3    NA       0.0000   9999     6460  7150  0    
2019/06/08  16:41:00  BASE  2.69304  135  4.86864  131  -0.5  88    -2.3  9     0     978.4    NA       0.0000   9999     6460  7780  0    
2019/06/08  16:42:01  BASE  2.49312  122  4.86864  131  -0.5  87    -2.3  9     0     978.3    NA       0.0000   9999     7480  0     0    
2019/06/08  16:43:00  BASE  3.55152  117  4.86864  131  -0.5  87    -2.4  10    0     978.3    NA       0.0000   9999     7420  0     0    
2019/06/08  16:44:00  BASE  4.5276   121  6.07992  121  -0.5  86    -2.5  10    0     978.3    NA       0.0000   9999     7420  0     0    
2019/06/08  16:45:00  BASE  5.1744   112  7.77336  109  -0.5  86    -2.5  10    0     978.3    NA       0.0000   9999     7350  0     0    
2019/06/08  16:46:00  BASE  4.69224  105  7.77336  109  -0.5  86    -2.5  10    0     978.4    NA       0.0000   9999     7120  0     0    
2019/06/08  16:47:00  BASE  3.81024  104  7.77336  109  -0.5  86    -2.5  10    0     978.4    NA       0.0000   UP       9999  6990  0    
2019/06/08  16:48:00  BASE  3.75732  107  7.77336  109  -0.4  86    -2.6  11    0     978.4    NA       0.0000   UP       9999  6460  0    
2019/06/08  16:49:00  BASE  3.29868  115  7.77336  109  -0.4  85    -2.6  11    0     978.4    NA       0.0000   UP       9999  6630  0    
2019/06/08  16:50:00  BASE  3.05172  106  7.77336  109  -0.5  85    -2.6  12    0     978.4    NA       0.0000   UP       9999  6530  0    
2019/06/08  16:51:00  BASE  3.25752  93   7.77336  109  -0.5  85    -2.7  12    0     978.4    NA       0.0000   UP       9000  6330  0    
2019/06/08  16:52:00  BASE  3.03408  83   7.77336  109  -0.5  85    -2.6  13    0     978.5    NA       0.0000   UP       9000  0     0    
2019/06/08  16:53:00  BASE  3.03408  71   7.77336  109  -0.5  86    -2.6  13    0     978.5    NA       0.0000   UP       BR    9000  6760 
2019/06/08  16:54:00  BASE  4.0278   71   7.77336  109  -0.4  86    -2.5  12    0     978.5    NA       0.0000   UP       BR    9000  7250 
2019/06/08  16:55:00  BASE  4.40412  74   6.2622   82   -0.4  86    -2.4  12    0     978.5    NA       0.0000   UP       BR    9000  7050 
2019/06/08  16:56:00  BASE  4.73928  77   6.86784  74   -0.4  87    -2.3  12    0     978.5    NA       0.0000   UP       BR    9000  7550 
2019/06/08  16:57:00  BASE  4.96272  73   6.86784  74   -0.3  87    -2.3  12    0     978.5    NA       0.0000   UP       BR    9000  7680 
2019/06/08  16:58:00  BASE  4.2042   82   6.86784  74   -0.3  87    -2.2  12    0     978.4    NA       0.0000   UP       BR    7000  7780 
2019/06/08  16:59:00  BASE  4.80396  77   6.92664  42   -0.3  87    -2.2  11    0     978.4    NA       0.0000   UP       BR    6000  7120 
2019/06/08  17:00:01  BASE  5.0568   45   6.92664  42   -0.3  87    -2.2  11    0     978.4    NA       0.0000   UP       BR    7000  7910 
2019/06/08  17:01:01  BASE  4.31004  37   6.92664  42   -0.3  87    -2.2  11    0     978.4    NA       0.0000   UP       BR    8000  0    
2019/06/08  17:02:00  BASE  3.78672  44   6.92664  42   -0.3  87    -2.1  11    0     978.4    NA       0.0000   UP       BR    8000  7580 
2019/06/08  17:03:00  BASE  2.8518   39   6.92664  42   -0.3  88    -2.1  11    0     978.5    NA       0.0000   UP       BR    6000  7510 
2019/06/08  17:04:01  BASE  2.66952  19   6.92664  42   -0.3  88    -2.0  11    0     978.5    NA       0.0000   UP       BR    7000  7580 
2019/06/08  17:05:01  BASE  2.61072  11   6.92664  42   -0.3  89    -2.0  11    0     978.5    NA       0.0000   UP       BR    7000  7680 
2019/06/08  17:06:01  BASE  2.34024  20   6.92664  42   -0.4  89    -1.9  11    0     978.5    NA       0.0000   UP       BR    7000  7680 
2019/06/08  17:07:00  BASE  3.01644  18   6.92664  42   -0.4  90    -1.9  11    0     978.5    NA       0.0000   UP       BR    7000  7740 
2019/06/08  17:08:01  BASE  2.99292  13   6.92664  42   -0.4  90    -1.8  11    0     978.5    NA       0.0000   UP       BR    7000  7740 
2019/06/08  17:09:01  BASE  3.0282   15   6.13872  32   -0.4  91    -1.8  11    0     978.4    NA       0.0000   UP       BR    7000  7710 
2019/06/08  17:10:00  BASE  4.23948  27   6.07992  36   -0.4  91    -1.7  11    0     978.4    NA       0.0000   UP       BR    8000  7910 
2019/06/08  17:11:01  BASE  3.86904  37   6.07992  36   -0.4  91    -1.6  11    0     978.4    NA       0.0000   UP       BR    9999  8200 
2019/06/08  17:12:00  BASE  3.087    41   6.07992  36   -0.4  92    -1.6  11    0     978.4    NA       0.0000   UP       BR    9999  8460 
2019/06/08  17:13:00  BASE  3.25164  64   6.07992  36   -0.4  92    -1.6  11    0     978.4    NA       0.0000   UP       BR    9999  0    
2019/06/08  17:14:00  BASE  4.01604  63   7.35     28   -0.4  92    -1.5  11    0     978.4    NA       0.0000   UP       BR    9000  8370 
2019/06/08  17:15:00  BASE  5.39784  46   7.83216  40   -0.4  92    -1.5  11    0     978.3    NA       0.0000   UP       BR    9000  0    
2019/06/08  17:16:00  BASE  5.8506   46   7.83216  40   -0.4  92    -1.5  11    0     978.4    NA       0.0000   UP       BR    9999  8500 
2019/06/08  17:17:00  BASE  6.29748  39   8.53188  34   -0.4  92    -1.6  11    0     978.3    NA       0.0000   UP       BR    9000  8600 
2019/06/08  17:18:00  BASE  6.41508  35   8.53188  34   -0.4  92    -1.6  11    0     978.3    NA       0.0000   UP       BR    8000  8730 
2019/06/08  17:19:00  BASE  7.00896  35   9.4374   43   -0.5  92    -1.6  11    0     978.2    NA       0.0000   UP       BR    8000  10630
2019/06/08  17:20:00  BASE  7.42644  36   9.4374   43   -0.5  92    -1.6  11    0     978.2    NA       0.0000   UP       BR    8000  8990 
2019/06/08  17:21:00  BASE  7.8204   35   9.70788  36   -0.5  92    -1.6  11    0     978.1    NA       0.0000   UP       BR    9000  7640 
2019/06/08  17:22:01  BASE  8.72004  31   9.80196  30   -0.5  92    -1.6  11    0     978.1    NA       0.0000   UP       BR    9000  7510 
2019/06/08  17:23:00  BASE  8.83764  34   10.9192  38   -0.5  92    -1.6  11    0     978.1    NA       0.0000   UP       BR    8000  7910 
2019/06/08  17:24:00  BASE  8.77884  36   10.9192  38   -0.5  92    -1.6  11    0     978.1    NA       0.0000   UP       BR    8000  7780 
2019/06/08  17:25:01  BASE  8.33196  31   10.9192  38   -0.5  92    -1.6  11    0     978.1    NA       0.0000   UP       BR    9000  5250 
2019/06/08  17:26:00  BASE  8.59068  28   10.9192  38   -0.5  92    -1.6  11    0     978.0    NA       0.0000   UP       BR    9999  6920 
2019/06/08  17:27:01  BASE  9.62556  25   11.1896  27   -0.5  92    -1.6  10    0     977.9    NA       0.0000   UP       BR    9999  5050 
2019/06/08  17:28:01  BASE  10.1606  22   11.466   22   -0.5  92    -1.6  10    0     977.9    NA       0.0000   UP       BR    9999  5540 
2019/06/08  17:29:00  BASE  10.0195  26   11.466   22   -0.5  92    -1.6  10    0     977.9    NA       0.0000   UP       BR    9999  5710 
2019/06/08  17:30:00  BASE  9.92544  29   11.466   22   -0.5  92    -1.6  9     0     977.8    NA       0.0000   UP       BR    9000  6140 
2019/06/08  17:31:00  BASE  10.5252  27   13.3417  24   -0.4  92    -1.6  8     0     977.8    NA       0.0000   UP       BR    9000  0    
2019/06/08  17:32:00  BASE  10.9427  26   13.3417  24   -0.4  92    -1.6  8     0     977.8    NA       0.0000   UP       BR    9000  0    
2019/06/08  17:33:00  BASE  10.9721  25   13.4299  26   -0.4  92    -1.5  8     0     977.8    NA       0.0000   UP       BR    9000  0    
2019/06/08  17:34:00  BASE  11.3484  23   13.4299  26   -0.4  92    -1.5  7     0     977.8    NA       0.0000   UP       BR    9999  0    
2019/06/08  17:35:00  BASE  11.3014  22   13.4299  26   -0.4  92    -1.5  7     0     977.8    NA       0.0000   UP       BR    9999  0    
2019/06/08  17:36:00  BASE  11.6012  22   13.5534  20   -0.4  92    -1.5  6     0     977.8    NA       0.0000   UP       BR    9999  750  
2019/06/08  17:37:00  BASE  11.9188  23   13.5534  20   -0.4  92    -1.5  7     0     977.7    NA       0.0000   UP       BR    9000  430  
2019/06/08  17:38:00  BASE  12.3656  22   15.0352  23   -0.4  92    -1.5  6     0     977.7    NA       0.0000   UP       BR    9000  0    
2019/06/08  17:39:00  BASE  12.595   23   15.0352  26   -0.4  92    -1.5  7     0     977.7    NA       0.0000   UP       BR    5000  300  
2019/06/08  17:40:00  BASE  12.101   27   15.0352  26   -0.4  92    -1.5  8     0     977.7    NA       0.0000   UP       BR    3200  260  
2019/06/08  17:41:00  BASE  12.2539  31   15.0352  26   -0.3  92    -1.5  9     0     977.7    NA       0.0000   -SN      BR    2800  0    
2019/06/08  17:42:01  BASE  11.7776  30   15.0352  26   -0.3  92    -1.5  10    0     977.7    NA       0.0000   -SN      BR    2700  0    
2019/06/08  17:43:00  BASE  11.2367  27   15.0352  26   -0.3  92    -1.5  10    0     977.7    NA       0.0000   -SN      BR    2900  330  
2019/06/08  17:44:00  BASE  12.2363  28   15.0352  26   -0.4  92    -1.6  10    0     977.6    NA       0.0000   -SN      BR    2400  0    
2019/06/08  17:45:00  BASE  12.742   28   15.0352  26   -0.4  92    -1.6  10    0     977.6    NA       0.0000   -SN      BR    2600  0    
2019/06/08  17:46:00  BASE  12.3892  27   15.0352  26   -0.4  92    -1.6  10    0     977.6    NA       0.0000   -SN      BR    3200  0    
2019/06/08  17:47:00  BASE  12.5891  29   15.0352  26   -0.4  92    -1.5  10    0     977.5    NA       0.0000   -SN      BR    3800  0    
2019/06/08  17:48:00  BASE  12.9948  29   15.0352  26   -0.4  92    -1.5  10    0     977.6    NA       0.0000   -SN      BR    4100  0    
2019/06/08  17:49:00  BASE  12.7714  27   14.6412  19   -0.4  92    -1.5  10    0     977.6    NA       0.0000   -SN      BR    3700  0    
2019/06/08  17:50:00  BASE  12.8948  27   14.9117  30   -0.4  92    -1.5  10    0     977.6    NA       0.0000   -SN      BR    3200  360  
2019/06/08  17:51:00  BASE  13.5887  28   15.5173  26   -0.4  92    -1.5  10    0     977.6    NA       0.0000   -SN      BR    3500  0    
2019/06/08  17:52:00  BASE  13.2712  28   15.5173  26   -0.4  92    -1.5  10    0     977.6    NA       0.0000   -SN      BR    4800  0    
2019/06/08  17:53:00  BASE  12.9301  29   15.5173  26   -0.4  92    -1.5  10    0     977.6    NA       0.0000   -SN      BR    5000  0    
2019/06/08  17:54:00  BASE  13.1594  29   15.5173  26   -0.4  92    -1.5  10    0     977.6    NA       0.0000   -SN      BR    4500  0    
2019/06/08  17:55:00  BASE  12.9889  27   15.5173  26   -0.4  92    -1.5  11    0     977.7    NA       0.0000   -SN      BR    3300  0    
2019/06/08  17:56:00  BASE  12.8596  26   15.5173  26   -0.4  93    -1.5  11    0     977.6    NA       0.0000   -SN      BR    2500  0    
2019/06/08  17:57:00  BASE  12.9478  26   15.5173  26   -0.4  93    -1.4  11    0     977.6    NA       0.0000   -SN      BR    2500  0    
2019/06/08  17:58:00  BASE  13.2124  28   15.5173  26   -0.4  93    -1.4  11    0     977.6    NA       0.0000   -SN      BR    2700  0    
2019/06/08  17:59:00  BASE  13.6886  30   15.5173  26   -0.4  93    -1.4  11    0     977.5    NA       0.0000   -SN      BR    2400  0    
2019/06/08  18:00:00  BASE  13.6181  29   15.5173  26   -0.4  93    -1.4  11    0     977.6    NA       0.0000   -SN      BR    2100  0    
2019/06/08  18:01:00  BASE  13.2947  29   15.1528  25   -0.4  93    -1.4  11    0     977.6    NA       0.0000   -SN      BR    2100  0    
2019/06/08  18:02:00  BASE  12.9419  27   15.1528  25   -0.4  93    -1.4  10    0     977.6    NA       0.0000   -SN      BR    2300  0    
2019/06/08  18:03:00  BASE  12.4068  27   15.1528  25   -0.5  93    -1.4  10    0     977.6    NA       0.0000   -SN      BR    2200  0    
2019/06/08  18:04:00  BASE  12.5303  29   15.1528  25   -0.5  93    -1.5  10    0     977.7    NA       0.0000   -SN      BR    2900  7020 
2019/06/08  18:05:00  BASE  12.4186  28   15.0352  26   -0.5  93    -1.5  10    0     977.6    NA       0.0000   -SN      BR    3600  0    
2019/06/08  18:06:00  BASE  13.0536  29   16.9403  36   -0.5  93    -1.5  10    0     977.5    NA       0.0000   -SN      BR    3200  0    
2019/06/08  18:07:00  BASE  13.9297  29   16.9403  36   -0.5  93    -1.5  10    0     977.5    NA       0.0000   -SN      BR    3500  0    
2019/06/08  18:08:00  BASE  14.1649  29   16.9403  36   -0.5  93    -1.5  9     0     977.5    NA       0.0000   -SN      BR    2500  0    
2019/06/08  18:09:00  BASE  14.2355  29   16.9403  36   -0.5  93    -1.5  8     0     977.5    NA       0.0000   -SN      BR    2700  0    
2019/06/08  18:10:00  BASE  14.012   29   16.9403  36   -0.5  93    -1.5  7     0     977.5    NA       0.0000   -SN      BR    2800  0    
2019/06/08  18:11:00  BASE  13.5887  32   16.9403  36   -0.5  93    -1.5  6     0     977.5    NA       0.0000   -SN      BR    2500  0    
2019/06/08  18:12:00  BASE  13.5475  33   16.9403  36   -0.5  93    -1.5  5     0     977.5    NA       0.0000   -SN      BR    3200  0    
2019/06/08  18:13:00  BASE  14.3296  31   16.9403  36   -0.5  93    -1.5  5     0     977.5    NA       0.0000   -SN      BR    3600  0    
2019/06/08  18:14:00  BASE  14.5412  29   16.9403  36   -0.5  93    -1.5  5     0     977.5    NA       0.0000   -SN      BR    2400  0    
2019/06/08  18:15:00  BASE  14.2237  28   16.9403  36   -0.5  93    -1.5  4     0     977.5    NA       0.0000   -SN      BR    1900  260  
2019/06/08  18:16:00  BASE  14.1179  29   16.8815  31   -0.5  93    -1.5  4     0     977.5    NA       0.0000   -SN      BR    2000  0    
2019/06/08  18:17:00  BASE  14.6294  31   16.8815  31   -0.5  93    -1.5  4     0     977.4    NA       0.0000   -SN      BR    2300  0    
2019/06/08  18:18:01  BASE  14.9528  30   16.8815  31   -0.6  93    -1.5  4     0     977.4    NA       0.0000   -SN      BR    2400  0    
2019/06/08  18:19:00  BASE  14.6471  29   16.8815  36   -0.6  93    -1.5  3     0     977.4    NA       0.0000   -SN      BR    2800  0    
2019/06/08  18:20:00  BASE  14.6588  29   16.8815  36   -0.6  93    -1.5  3     0     977.4    NA       0.0000   -SN      BR    3500  0    
2019/06/08  18:21:00  BASE  14.5236  28   16.8815  36   -0.6  94    -1.5  3     0     977.4    NA       0.0000   -SN      BR    3600  0    
2019/06/08  18:22:00  BASE  14.2708  28   16.8815  36   -0.6  94    -1.4  3     0     977.4    NA       0.0000   -SN      BR    2900  0    
2019/06/08  18:23:01  BASE  14.259   28   16.8815  36   -0.5  94    -1.4  3     0     977.4    NA       0.0000   -SN      BR    2500  0    
2019/06/08  18:24:00  BASE  13.6769  28   16.8815  36   -0.5  94    -1.4  3     0     977.4    NA       0.0000   -SN      BR    3000  0    
2019/06/08  18:25:00  BASE  13.6651  29   16.8815  36   -0.5  94    -1.4  3     0     977.4    NA       0.0000   -SN      BR    3500  0    
2019/06/08  18:26:00  BASE  14.359   29   16.8815  36   -0.5  93    -1.4  3     0     977.3    NA       0.0000   -SN      BR    3900  0    
2019/06/08  18:27:00  BASE  15.0587  27   16.8815  36   -0.5  93    -1.5  3     0     977.3    NA       0.0000   -SN      BR    4600  8760 
2019/06/08  18:28:00  BASE  15.1116  27   16.8815  36   -0.5  93    -1.5  3     0     977.3    NA       0.0000   -SN      BR    4000  8860 
2019/06/08  18:29:00  BASE  14.7941  28   16.8168  28   -0.5  93    -1.5  3     0     977.3    NA       0.0000   -SN      BR    3300  0    
2019/06/08  18:30:00  BASE  15.0822  28   16.8168  28   -0.5  93    -1.5  3     0     977.2    NA       0.0000   -SN      BR    2800  9060 
2019/06/08  18:31:00  BASE  15.335   28   16.8168  28   -0.5  93    -1.5  2     0     977.3    NA       0.0000   -SN      BR    2300  10600
2019/06/08  18:32:00  BASE  15.4409  28   16.8168  28   -0.5  93    -1.5  2     0     977.3    NA       0.2540   -SN      BR    2500  0    
2019/06/08  18:33:00  BASE  15.2704  26   17.393   25   -0.5  93    -1.5  2     0     977.3    NA       0.0000   -SN      BR    2900  0    
2019/06/08  18:34:00  BASE  15.4174  26   18.2692  28   -0.5  93    -1.5  2     0     977.2    NA       0.0000   -SN      BR    3000  11060
2019/06/08  18:35:00  BASE  15.2998  27   18.2692  28   -0.5  93    -1.5  2     0     977.3    NA       0.0000   -SN      BR    3400  11020
2019/06/08  18:36:01  BASE  15.1586  28   18.2692  28   -0.5  93    -1.4  2     0     977.3    NA       0.0000   -SN      BR    4900  9740 
2019/06/08  18:37:00  BASE  15.3174  26   18.2692  28   -0.5  93    -1.4  2     0     977.3    NA       0.0000   -SN      BR    5000  11090
2019/06/08  18:38:00  BASE  15.141   27   18.2692  28   -0.5  93    -1.4  2     0     977.3    NA       0.0000   -SN      BR    7000  9880 
2019/06/08  18:39:00  BASE  15.6232  30   18.2692  28   -0.5  93    -1.4  2     0     977.3    NA       0.0000   -SN      BR    9999  9840 
2019/06/08  18:40:00  BASE  15.6643  28   18.2692  28   -0.5  93    -1.4  2     0     977.4    NA       0.0000   -SN      BR    9999  9740 
2019/06/08  18:41:00  BASE  15.094   26   18.2692  28   -0.4  93    -1.5  2     0     977.4    NA       0.0000   -SN      BR    9999  10960
2019/06/08  18:42:00  BASE  15.2292  25   18.2692  28   -0.4  93    -1.5  2     0     977.3    NA       0.0000   -SN      BR    9999  10860
2019/06/08  18:43:00  BASE  14.9705  26   18.2692  28   -0.4  92    -1.5  2     0     977.4    NA       0.0000   -SN      BR    9999  10960
2019/06/08  18:44:00  BASE  14.6236  25   17.7576  30   -0.4  92    -1.5  2     0     977.3    NA       0.0000   -SN      BR    9999  10960
2019/06/08  18:45:00  BASE  14.994   26   17.7576  30   -0.4  92    -1.6  2     0     977.3    NA       0.0000   -SN      BR    9999  10990
2019/06/08  18:46:00  BASE  14.8352  26   17.7576  30   -0.4  92    -1.6  2     0     977.4    NA       0.0000   -SN      9999  11020 0    
2019/06/08  18:47:00  BASE  14.8411  26   17.7576  30   -0.5  91    -1.7  2     0     977.3    NA       0.0000   -SN      9999  10140 11120
2019/06/08  18:48:01  BASE  15.1939  25   17.7576  30   -0.5  91    -1.7  2     0     977.3    NA       0.0000   -SN      9999  9090  11020
2019/06/08  18:49:00  BASE  15.3468  25   17.393   22   -0.5  91    -1.8  2     0     977.3    NA       0.0000   -SN      9999  9060  10600
2019/06/08  18:50:00  BASE  15.4409  26   17.4812  22   -0.5  91    -1.7  2     0     977.3    NA       0.0000   9999     8960  11290 0    
2019/06/08  18:51:00  BASE  15.7643  24   17.4812  22   -0.4  91    -1.7  2     0     977.3    NA       0.0000   9999     8960  10240 0    
2019/06/08  18:52:00  BASE  15.9877  23   17.4812  22   -0.4  91    -1.7  1     0     977.3    NA       0.0000   9999     10240 11250 0    
2019/06/08  18:53:00  BASE  15.7702  23   17.4812  22   -0.4  90    -1.7  1     0     977.3    NA       0.0000   9999     10240 0     0    
2019/06/08  18:54:00  BASE  15.2821  25   17.4812  22   -0.3  90    -1.7  1     0     977.4    NA       0.0000   9999     10270 0     0    
2019/06/08  18:55:00  BASE  14.7941  24   17.4812  22   -0.3  90    -1.7  1     0     977.4    NA       0.0000   9999     8830  10400 10830
2019/06/08  18:56:00  BASE  14.5824  24   17.4812  22   -0.3  90    -1.7  1     0     977.4    NA       0.0000   9999     8860  10560 0    
2019/06/08  18:57:00  BASE  14.7     24   17.4812  22   -0.3  90    -1.7  1     0     977.4    NA       0.0000   9999     10370 0     0    
2019/06/08  18:58:00  BASE  15.5879  22   17.4812  22   -0.3  90    -1.8  1     0     977.3    NA       0.0000   9999     10370 0     0    
2019/06/08  18:59:00  BASE  15.8584  22   17.4812  22   -0.3  90    -1.8  1     0     977.4    NA       0.0000   9999     10370 0     0    
2019/06/08  19:00:00  BASE  15.729   22   17.2108  22   -0.3  89    -1.8  1     0     977.4    NA       0.0000   9999     10500 0     0    
2019/06/08  19:01:00  BASE  15.9818  22   17.2108  22   -0.2  89    -1.8  1     0     977.4    NA       0.0000   9999     10560 0     0    
2019/06/08  19:02:00  BASE  15.7937  22   17.152   23   -0.2  89    -1.8  1     0     977.3    NA       0.0000   9999     9940  10630 0    
2019/06/08  19:03:00  BASE  15.6761  23   17.152   23   -0.2  89    -1.8  1     0     977.4    NA       0.0000   9999     10660 0     0    
2019/06/08  19:04:00  BASE  15.8936  23   17.152   23   -0.2  89    -1.8  1     0     977.4    NA       0.0000   9999     10660 0     0    
2019/06/08  19:05:00  BASE  15.1998  22   17.152   23   -0.2  89    -1.8  1     0     977.5    NA       0.0000   9999     10630 0     0    
2019/06/08  19:06:00  BASE  14.6118  24   17.152   23   -0.2  89    -1.9  1     0     977.4    NA       0.0000   9999     10500 0     0    
2019/06/08  19:07:00  BASE  15.3586  25   17.5459  26   -0.3  89    -1.9  1     0     977.3    NA       0.0000   9999     10600 0     0    
2019/06/08  19:08:00  BASE  15.2821  23   17.5459  26   -0.3  88    -1.9  1     0     977.4    NA       0.0000   9999     10070 10700 0    
2019/06/08  19:09:00  BASE  14.9411  23   17.5459  26   -0.3  88    -2.0  1     0     977.3    NA       0.0000   9999     10170 0     0    
2019/06/08  19:10:00  BASE  15.2174  26   17.5459  26   -0.3  88    -2.0  1     0     977.4    NA       0.0000   9999     10200 10890 0    
2019/06/08  19:11:00  BASE  15.0998  27   17.5459  26   -0.3  89    -2.0  0     0     977.4    NA       0.0000   9999     10070 0     0    
2019/06/08  19:12:00  BASE  15.0822  25   17.5459  26   -0.4  89    -1.9  0     0     977.4    NA       0.0000   9999     9970  0     0    
2019/06/08  19:13:00  BASE  15.482   26   17.6047  27   -0.4  89    -1.9  0     0     977.3    NA       0.0000   9999     10140 0     0    
2019/06/08  19:14:00  BASE  15.9818  27   17.8164  24   -0.4  90    -1.9  0     0     977.3    NA       0.0000   9999     9940  0     0    
2019/06/08  19:15:00  BASE  15.3586  26   17.8164  24   -0.4  90    -1.9  0     0     977.4    NA       0.0000   9999     0     0     0    
2019/06/08  19:16:00  BASE  15.0469  25   17.8164  24   -0.4  90    -1.8  0     0     977.3    NA       0.0000   9999     0     0     0    
2019/06/08  19:17:00  BASE  15.241   25   17.8164  24   -0.4  90    -1.8  0     0     977.3    NA       0.0000   9999     0     0     0    
2019/06/08  19:18:00  BASE  15.3527  25   17.8164  24   -0.4  90    -1.8  0     0     977.3    NA       0.0000   9999     0     0     0    
2019/06/08  19:19:00  BASE  15.976   25   17.8164  24   -0.4  91    -1.7  0     0     977.2    NA       0.0000   9999     0     0     0    
2019/06/08  19:20:00  BASE  15.7996  23   17.8164  24   -0.4  91    -1.7  0     0     977.3    NA       0.0000   9999     0     0     0    
2019/06/08  19:21:00  BASE  15.6467  24   17.9987  20   -0.4  91    -1.7  0     0     977.3    NA       0.0000   9999     0     0     0    
2019/06/08  19:22:00  BASE  15.7996  26   18.422   30   -0.4  91    -1.7  0     0     977.2    NA       0.0000   9999     0     0     0    
2019/06/08  19:23:00  BASE  15.5879  25   18.422   30   -0.5  91    -1.7  0     0     977.3    NA       0.0000   9999     0     0     0    
2019/06/08  19:24:00  BASE  15.2174  24   18.422   30   -0.5  91    -1.8  0     0     977.3    NA       0.0000   9999     0     0     0    
2019/06/08  19:25:00  BASE  15.3997  23   18.422   30   -0.5  91    -1.8  0     0     977.3    NA       0.0000   9999     0     0     0    
2019/06/08  19:26:00  BASE  15.7525  24   18.422   30   -0.5  91    -1.8  0     0     977.3    NA       0.0000   9999     0     0     0    
2019/06/08  19:27:00  BASE  15.1704  25   18.422   30   -0.5  91    -1.8  0     0     977.3    NA       0.0000   9999     0     0     0    
2019/06/08  19:28:00  BASE  14.847   26   18.422   30   -0.5  91    -1.8  0     0     977.3    NA       0.0000   9999     0     0     0    
2019/06/08  19:29:00  BASE  15.0822  27   18.422   30   -0.5  91    -1.8  0     0     977.3    NA       0.0000   9999     0     0     0    
2019/06/08  19:30:00  BASE  15.1586  28   18.422   30   -0.6  91    -1.8  0     0     977.3    NA       0.0000   9999     0     0     0    
2019/06/08  19:31:00  BASE  14.9117  27   18.422   30   -0.6  91    -1.9  0     0     977.3    NA       0.0000   9999     0     0     0    
2019/06/08  19:32:00  BASE  15.1175  27   17.787   21   -0.6  91    -1.9  0     0     977.2    NA       0.0000   9999     0     0     0    
2019/06/08  19:33:00  BASE  15.094   27   17.0932  24   -0.6  91    -1.9  0     0     977.3    NA       0.0000   9999     0     0     0    
2019/06/08  19:34:00  BASE  14.6471  27   17.0932  24   -0.6  91    -1.9  0     0     977.4    NA       0.0000   9999     0     0     0    
2019/06/08  19:35:00  BASE  13.9062  27   17.0932  24   -0.6  91    -1.9  0     0     977.5    NA       0.0000   9999     0     0     0    
2019/06/08  19:36:00  BASE  13.6063  26   17.0932  24   -0.6  91    -1.9  0     0     977.5    NA       0.0000   9999     0     0     0    
2019/06/08  19:37:00  BASE  14.1414  26   17.0932  24   -0.6  91    -1.9  0     0     977.5    NA       0.0000   9999     0     0     0    
2019/06/08  19:38:00  BASE  13.9297  26   17.0932  24   -0.7  91    -2.0  0     0     977.5    NA       0.0000   9999     0     0     0    
2019/06/08  19:39:00  BASE  13.8768  24   17.0932  24   -0.7  91    -2.0  0     0     977.5    NA       0.0000   9999     0     0     0    
2019/06/08  19:40:00  BASE  13.918   24   17.0932  24   -0.7  91    -2.0  0     0     977.5    NA       0.0000   9999     0     0     0    
2019/06/08  19:41:00  BASE  13.6122  23   17.0932  24   -0.7  91    -2.0  0     0     977.6    NA       0.0000   9999     0     0     0    
2019/06/08  19:42:00  BASE  13.2418  22   17.0932  24   -0.7  91    -2.0  0     0     977.7    NA       0.0000   9999     0     0     0    
2019/06/08  19:43:00  BASE  13.8944  23   16.3346  35   -0.8  91    -2.0  0     0     977.6    NA       0.0000   9999     0     0     0    
2019/06/08  19:44:00  BASE  14.2884  25   16.3346  35   -0.7  91    -2.0  0     0     977.7    NA       0.0000   9999     0     0     0    
2019/06/08  19:45:00  BASE  14.1296  24   16.3346  35   -0.7  91    -2.0  0     0     977.7    NA       0.0000   9999     4920  0     0    
2019/06/08  19:46:00  BASE  14.0944  22   16.3346  35   -0.7  92    -1.9  0     0     977.8    NA       0.0000   9999     0     0     0    
2019/06/08  19:47:00  BASE  13.1477  20   16.3346  35   -0.7  92    -1.9  0     0     977.8    NA       0.0000   9999     5050  0     0    
2019/06/08  19:48:00  BASE  12.2951  19   16.3346  35   -0.7  92    -1.8  0     0     977.9    NA       0.0000   9999     0     0     0    
2019/06/08  19:49:00  BASE  12.1246  19   15.8819  29   -0.7  92    -1.9  0     0     977.9    NA       0.0000   9999     14370 0     0    
2019/06/08  19:50:00  BASE  11.8129  21   15.8819  29   -0.7  92    -1.9  0     0     977.9    NA       0.0000   9999     14370 0     0    
2019/06/08  19:51:00  BASE  12.4362  23   15.8819  29   -0.8  92    -1.9  0     0     977.8    NA       0.0000   9999     14400 0     0    
2019/06/08  19:52:00  BASE  13.9944  22   15.8819  29   -0.8  92    -1.9  0     0     977.7    NA       0.0000   9999     14310 0     0    
2019/06/08  19:53:00  BASE  14.7176  22   15.9995  23   -0.8  93    -1.8  0     0     977.6    NA       0.0000   9999     11160 14340 0    
2019/06/08  19:54:00  BASE  14.6765  23   15.9995  23   -0.7  93    -1.7  0     0     977.6    NA       0.0000   9999     11120 0     0    
2019/06/08  19:55:00  BASE  14.0532  23   15.9995  23   -0.7  93    -1.7  0     0     977.7    NA       0.0000   9999     11120 0     0    
2019/06/08  19:56:00  BASE  13.6828  24   15.9995  23   -0.6  93    -1.7  0     0     977.6    NA       0.0000   9999     11060 0     0    
2019/06/08  19:57:00  BASE  13.6475  26   15.9995  23   -0.6  92    -1.7  0     0     977.7    NA       0.0000   9999     10990 0     0    
2019/06/08  19:58:00  BASE  13.2888  25   15.9995  23   -0.6  92    -1.7  0     0     977.7    NA       0.0000   9999     10930 0     0    
2019/06/08  19:59:00  BASE  13.0712  25   15.9995  23   -0.6  92    -1.8  0     0     977.6    NA       0.0000   9999     10860 0     0    
2019/06/08  20:00:00  BASE  13.6181  24   15.9995  23   -0.6  92    -1.8  0     0     977.5    NA       0.0000   9999     10860 0     0    
2019/06/08  20:01:00  BASE  13.8415  25   15.9995  23   -0.7  92    -1.8  0     0     977.6    NA       0.0000   9999     10890 0     0    
2019/06/08  20:02:00  BASE  13.4711  26   15.9995  23   -0.7  92    -1.8  0     0     977.6    NA       0.0000   9999     10930 0     0    
2019/06/08  20:03:00  BASE  14.3707  25   17.393   20   -0.7  92    -1.8  0     0     977.4    NA       0.0000   9999     10990 13320 0    
2019/06/08  20:04:00  BASE  15.2998  26   18.2104  28   -0.7  92    -1.8  0     0     977.4    NA       0.0000   9999     10960 0     0    
2019/06/08  20:05:00  BASE  15.6526  25   18.2104  28   -0.7  93    -1.7  0     0     977.4    NA       0.0000   9999     10990 0     0    
2019/06/08  20:06:00  BASE  15.4526  24   18.2104  28   -0.7  93    -1.7  0     0     977.5    NA       0.0000   9999     10960 0     0    
2019/06/08  20:07:00  BASE  14.9293  23   18.2104  28   -0.7  93    -1.7  0     0     977.4    NA       0.0000   9999     10990 0     0    
2019/06/08  20:08:00  BASE  15.6526  23   18.2104  28   -0.7  93    -1.7  0     0     977.3    NA       0.0000   9999     10960 0     0    
2019/06/08  20:09:00  BASE  15.8172  24   18.2104  28   -0.7  93    -1.7  0     0     977.4    NA       0.0000   9999     10960 11580 0    
2019/06/08  20:10:00  BASE  15.6114  23   18.2104  28   -0.7  93    -1.7  0     0     977.4    NA       0.0000   9999     10990 0     0    
2019/06/08  20:11:00  BASE  15.4056  22   18.2104  28   -0.8  93    -1.7  0     0     977.4    NA       0.0000   9999     10960 0     0    
2019/06/08  20:12:00  BASE  15.0528  22   18.2104  28   -0.8  93    -1.7  0     0     977.4    NA       0.0000   9999     10960 0     0    
2019/06/08  20:13:00  BASE  14.7764  21   18.2104  28   -0.8  94    -1.7  0     0     977.5    NA       0.0000   9999     10990 0     0    
2019/06/08  20:14:00  BASE  14.9999  21   17.152   23   -0.8  94    -1.7  0     0     977.3    NA       0.0000   9999     10960 0     0    
2019/06/08  20:15:00  BASE  16.123   22   17.5165  18   -0.8  94    -1.7  0     0     977.3    NA       0.0000   9999     10960 0     0    
2019/06/08  20:16:00  BASE  16.5169  22   17.5459  24   -0.8  94    -1.7  0     0     977.3    NA       0.0000   9999     10890 0     0    
2019/06/08  20:17:00  BASE  16.0642  21   17.5459  26   -0.8  94    -1.7  0     0     977.3    NA       0.0000   9999     10890 0     0    
2019/06/08  20:18:00  BASE  15.7878  22   17.5459  26   -0.9  94    -1.6  0     0     977.3    NA       0.0000   9999     10860 0     0    
2019/06/08  20:19:00  BASE  15.7349  23   17.5459  26   -0.9  95    -1.6  0     0     977.4    NA       0.0000   9999     10830 0     0    
2019/06/08  20:20:00  BASE  15.9348  23   17.5459  26   -0.9  95    -1.6  0     0     977.3    NA       0.0000   9999     10830 0     0    
2019/06/08  20:21:00  BASE  16.0524  24   17.5753  27   -0.9  95    -1.6  0     0     977.3    NA       0.0000   9999     10760 0     0    
2019/06/08  20:22:00  BASE  15.8878  23   17.5753  27   -0.9  95    -1.6  0     0     977.3    NA       0.0000   9999     10830 0     0    
2019/06/08  20:23:00  BASE  15.535   23   17.6635  26   -0.9  95    -1.6  0     0     977.3    NA       0.0000   9999     10830 0     0    
2019/06/08  20:24:00  BASE  14.8294  24   17.6635  26   -0.9  95    -1.6  0     0     977.3    NA       0.0000   9999     10860 0     0    
2019/06/08  20:25:00  BASE  14.7941  24   17.6635  26   -0.9  95    -1.6  0     0     977.3    NA       0.0000   9999     10790 0     0    
2019/06/08  20:26:00  BASE  15.3174  23   17.6635  26   -0.9  95    -1.6  0     0     977.3    NA       0.0000   9999     10930 0     0    
2019/06/08  20:27:00  BASE  14.9293  23   17.6635  26   -0.9  95    -1.6  0     0     977.4    NA       0.0000   9999     10860 0     0    
2019/06/08  20:28:00  BASE  14.8646  22   17.6635  26   -0.9  96    -1.5  0     0     977.3    NA       0.0000   9999     10830 0     0    
2019/06/08  20:29:00  BASE  15.1469  21   17.6635  26   -0.9  96    -1.5  0     0     977.4    NA       0.0000   9999     10890 0     0    
2019/06/08  20:30:00  BASE  14.1649  22   17.6635  26   -0.9  96    -1.5  0     0     977.5    NA       0.0000   9999     10600 0     0    
2019/06/08  20:31:00  BASE  14.3237  25   17.6635  26   -0.9  96    -1.5  0     0     977.5    NA       0.0000   9999     10630 0     0    
2019/06/08  20:32:00  BASE  14.7176  21   17.6635  26   -1.0  96    -1.5  0     0     977.6    NA       0.0000   9999     10530 0     0    
2019/06/08  20:33:00  BASE  13.8592  21   17.4812  26   -1.0  96    -1.5  0     0     977.6    NA       0.0000   9999     9780  10400 0    
2019/06/08  20:34:00  BASE  13.3946  21   17.4812  26   -1.0  96    -1.5  0     0     977.6    NA       0.0000   9999     9710  0     0    
2019/06/08  20:35:00  BASE  14.212   20   17.4812  26   -1.0  97    -1.5  0     0     977.5    NA       0.0000   9999     9510  0     0    
2019/06/08  20:36:00  BASE  14.4001  22   17.4812  26   -1.0  97    -1.4  0     0     977.6    NA       0.0000   9999     9480  0     0    
2019/06/08  20:37:00  BASE  13.4946  20   17.4812  26   -1.0  97    -1.4  0     0     977.7    NA       0.0000   9999     9550  0     0    
2019/06/08  20:38:00  BASE  14.1002  18   17.0285  23   -1.0  97    -1.4  0     0     977.6    NA       0.0000   9999     9580  0     0    
2019/06/08  20:39:00  BASE  14.5648  19   16.6345  20   -1.0  97    -1.4  0     0     977.6    NA       0.0000   9999     9250  0     0    
2019/06/08  20:40:00  BASE  13.5005  20   16.6345  20   -1.0  97    -1.4  0     0     977.7    NA       0.0000   9999     8530  0     0    
2019/06/08  20:41:00  BASE  12.8478  18   16.4581  25   -1.0  97    -1.4  0     0     977.7    NA       0.0000   9999     8690  0     0    
2019/06/08  20:42:00  BASE  13.183   17   16.4581  25   -1.0  97    -1.4  0     0     977.7    NA       0.0000   9999     8890  0     0    
2019/06/08  20:43:00  BASE  13.9826  14   17.1226  13   -1.0  97    -1.4  0     0     977.6    NA       0.0000   9999     9190  0     0    
2019/06/08  20:44:00  BASE  14.306   12   17.1226  13   -1.0  97    -1.4  0     0     977.6    NA       0.0000   9999     9290  0     0    
2019/06/08  20:45:00  BASE  13.4534  12   17.1226  13   -1.0  97    -1.4  0     0     977.7    NA       0.0000   9999     8830  0     0    
2019/06/08  20:46:00  BASE  13.3888  14   17.1226  13   -1.0  97    -1.4  0     0     977.7    NA       0.0000   9999     8660  0     0    
2019/06/08  20:47:00  BASE  14.2472  16   17.1226  13   -1.0  97    -1.5  0     0     977.6    NA       0.0000   UP       9999  8690  0    
2019/06/08  20:48:00  BASE  14.1884  15   17.1226  13   -1.0  96    -1.5  0     0     977.7    NA       0.0000   UP       9999  9220  9710 
2019/06/08  20:49:00  BASE  13.477   15   17.1226  13   -1.0  96    -1.5  0     0     977.7    NA       0.0000   UP       9999  9220  10040
2019/06/08  20:50:00  BASE  13.5828  17   17.1226  13   -1.0  96    -1.6  0     0     977.7    NA       0.0000   UP       9999  8960  0    
2019/06/08  20:51:00  BASE  13.7533  18   17.1226  13   -1.0  96    -1.6  0     0     977.7    NA       0.0000   UP       9999  9090  0    
2019/06/08  20:52:00  BASE  13.5358  18   17.1226  13   -1.0  96    -1.5  0     0     977.8    NA       0.0000   UP       9999  9190  0    
2019/06/08  20:53:00  BASE  13.2712  20   16.7874  17   -1.0  96    -1.5  0     0     977.8    NA       0.0000   UP       9999  9450  0    
2019/06/08  20:54:00  BASE  13.3652  21   16.7874  17   -1.0  97    -1.5  0     0     977.7    NA       0.0000   UP       9999  9060  0    
2019/06/08  20:55:00  BASE  13.477   21   16.7874  17   -1.0  97    -1.5  0     0     977.8    NA       0.0000   UP       9999  9290  0    
2019/06/08  20:56:00  BASE  13.4828  20   16.7874  17   -1.0  97    -1.4  0     0     977.7    NA       0.0000   UP       9999  10110 0    
2019/06/08  20:57:00  BASE  13.3064  20   16.3346  18   -1.0  97    -1.4  0     0     977.8    NA       0.0000   UP       9999  9970  0    
2019/06/08  20:58:00  BASE  12.3245  20   16.3346  18   -1.0  97    -1.4  0     0     977.8    NA       0.0000   UP       9999  10140 0    
2019/06/08  20:59:00  BASE  12.2833  18   16.3346  18   -1.0  97    -1.4  0     0     977.8    NA       0.0000   UP       9999  10270 0    
2019/06/08  21:00:00  BASE  12.7243  17   15.335   29   -1.0  97    -1.4  0     0     977.8    NA       0.0000   UP       9999  9810  10470
2019/06/08  21:01:00  BASE  13.4887  16   15.5467  16   -1.0  97    -1.4  0     0     977.7    NA       0.0000   UP       9999  0     0    
2019/06/08  21:02:00  BASE  14.4824  16   17.4224  13   -1.0  97    -1.4  0     0     977.7    NA       0.0000   UP       9999  9680  0    
2019/06/08  21:03:00  BASE  13.918   15   17.4224  13   -1.0  98    -1.3  0     0     977.8    NA       0.0000   UP       9999  9710  0    
2019/06/08  21:04:00  BASE  13.1594  13   17.4224  13   -1.0  98    -1.3  0     0     977.8    NA       0.0000   UP       9999  9970  0    
2019/06/08  21:05:00  BASE  13.33    11   17.4224  13   -1.0  98    -1.3  0     0     977.9    NA       0.0000   UP       9999  9940  0    
2019/06/08  21:06:00  BASE  13.3123  13   17.4224  13   -1.0  98    -1.3  0     0     977.9    NA       0.0000   UP       9999  0     0    
2019/06/08  21:07:00  BASE  14.0238  14   17.4224  13   -1.0  98    -1.3  0     0     977.8    NA       0.0000   UP       9999  0     0    
2019/06/08  21:08:00  BASE  14.8823  12   17.4224  13   -1.0  98    -1.3  0     0     977.8    NA       0.0000   UP       9999  0     0    
2019/06/08  21:09:00  BASE  14.4942  10   17.4224  13   -1.0  98    -1.3  0     0     977.9    NA       0.0000   UP       9999  0     0    
2019/06/08  21:10:00  BASE  13.6416  9    17.4224  13   -1.0  98    -1.3  0     0     977.9    NA       0.0000   UP       9999  0     0    
2019/06/08  21:11:00  BASE  13.036   9    17.4224  13   -1.0  98    -1.3  0     0     978.0    NA       0.0000   UP       9999  0     0    
2019/06/08  21:12:00  BASE  12.9654  10   16.4875  14   -1.0  98    -1.3  0     0     978.0    NA       0.0000   UP       9999  0     0    
2019/06/08  21:13:00  BASE  12.5126  9    16.4875  14   -1.0  98    -1.3  0     0     978.2    NA       0.0000   UP       9999  9510  0    
2019/06/08  21:14:00  BASE  11.66    13   16.4875  14   -1.0  98    -1.3  0     0     978.3    NA       0.0000   UP       9999  9580  0    
2019/06/08  21:15:01  BASE  10.9721  15   16.4875  14   -1.0  98    -1.3  0     0     978.4    NA       0.0000   UP       9999  8990  0    
2019/06/08  21:16:00  BASE  10.1959  15   16.4875  14   -1.0  98    -1.3  0     0     978.5    NA       0.0000   UP       9999  9090  0    
2019/06/08  21:17:00  BASE  9.70788  16   16.1524  10   -1.0  98    -1.3  0     0     978.5    NA       0.0000   UP       9999  9290  0    
2019/06/08  21:18:00  BASE  9.79608  18   15.2174  12   -1.0  98    -1.3  0     0     978.6    NA       0.0000   UP       9999  9290  0    
2019/06/08  21:19:00  BASE  10.2606  19   14.3707  8    -1.0  97    -1.4  0     0     978.5    NA       0.0000   UP       9999  0     0    
2019/06/08  21:20:00  BASE  10.3312  20   13.7945  5    -1.0  97    -1.4  0     0     978.6    NA       0.0000   UP       9999  0     0    
2019/06/08  21:21:00  BASE  9.74316  19   13.7945  5    -1.0  97    -1.4  0     0     978.6    NA       0.0000   UP       9999  0     0    
2019/06/08  21:22:00  BASE  9.24924  18   12.9184  16   -1.0  97    -1.4  0     0     978.6    NA       0.0000   UP       9999  0     0    
2019/06/08  21:23:00  BASE  9.5844   19   12.9184  16   -1.0  97    -1.4  0     0     978.6    NA       0.0000   UP       9999  0     0    
2019/06/08  21:24:00  BASE  9.57264  21   12.9184  16   -1.0  97    -1.4  0     0     978.6    NA       0.0000   UP       9999  0     0    
2019/06/08  21:25:00  BASE  9.16692  20   12.9184  16   -1.0  97    -1.4  0     0     978.6    NA       0.0000   UP       9999  0     0    
2019/06/08  21:26:00  BASE  8.79648  16   12.9184  16   -1.0  97    -1.4  0     0     978.6    NA       0.0000   UP       9999  0     0    
2019/06/08  21:27:00  BASE  8.66124  13   12.9184  16   -1.0  98    -1.3  0     0     978.6    NA       0.0000   UP       9999  0     0    
2019/06/08  21:28:00  BASE  8.84352  11   12.9184  16   -1.0  98    -1.3  0     0     978.6    NA       0.0000   UP       9999  0     0    
2019/06/08  21:29:00  BASE  8.7906   11   10.978   26   -1.0  98    -1.3  0     0     978.6    NA       0.0000   UP       9999  0     0    
2019/06/08  21:30:00  BASE  8.71416  8    10.978   26   -1.0  98    -1.3  0     0     978.6    NA       0.0000   UP       9999  0     0    
2019/06/08  21:31:00  BASE  8.04384  10   10.978   26   -1.0  98    -1.3  0     0     978.7    NA       0.0000   UP       9999  0     0    
2019/06/08  21:32:00  BASE  7.46172  17   10.978   26   -1.0  98    -1.3  0     0     978.7    NA       0.0000   UP       9999  0     0    
2019/06/08  21:33:00  BASE  7.50876  17   10.978   26   -1.0  98    -1.3  0     0     978.7    NA       0.0000   UP       9999  0     0    
2019/06/08  21:34:00  BASE  8.1144   18   10.8016  4    -1.0  98    -1.3  0     0     978.7    NA       0.0000   9999     0     0     0    
2019/06/08  21:35:00  BASE  8.53776  19   10.9192  20   -1.0  98    -1.3  0     0     978.6    NA       0.0000   9999     0     0     0    
2019/06/08  21:36:00  BASE  7.7028   19   10.9192  20   -1.0  98    -1.3  0     0     978.7    NA       0.0000   9999     0     0     0    
2019/06/08  21:37:00  BASE  7.12656  17   10.9192  20   -1.0  98    -1.3  0     0     978.7    NA       0.0000   9999     6920  0     0    
2019/06/08  21:38:00  BASE  7.76748  16   10.9192  20   -1.0  98    -1.3  0     0     978.6    NA       0.0000   9999     6890  0     0    
2019/06/08  21:39:00  BASE  8.07912  17   10.9192  20   -1.0  97    -1.3  0     0     978.7    NA       0.0000   9999     7480  0     0    
2019/06/08  21:40:00  BASE  7.791    17   10.9192  20   -0.9  97    -1.3  0     0     978.6    NA       0.0000   9999     0     0     0    
2019/06/08  21:41:00  BASE  8.03796  17   10.9192  20   -0.9  97    -1.3  0     0     978.6    NA       0.0000   9999     0     0     0    
2019/06/08  21:42:00  BASE  8.25552  15   10.9192  20   -0.9  97    -1.4  0     0     978.6    NA       0.0000   9999     0     0     0    
2019/06/08  21:43:00  BASE  8.14968  15   10.9192  20   -0.9  97    -1.4  0     0     978.6    NA       0.0000   9999     0     0     0    
2019/06/08  21:44:00  BASE  8.07912  15   10.9192  20   -0.9  96    -1.4  0     0     978.7    NA       0.0000   9999     0     0     0    
2019/06/08  21:45:00  BASE  7.92624  15   9.59028  22   -0.9  96    -1.4  0     0     978.7    NA       0.0000   9999     6270  0     0    
2019/06/08  21:46:00  BASE  7.67928  14   9.59028  22   -0.9  96    -1.5  0     0     978.7    NA       0.0000   9999     0     0     0    
2019/06/08  21:47:00  BASE  7.6734   10   9.59028  22   -0.9  96    -1.5  0     0     978.7    NA       0.0000   9999     0     0     0    
2019/06/08  21:48:00  BASE  8.06148  9    9.59028  22   -0.9  96    -1.4  0     0     978.7    NA       0.0000   9999     0     0     0    
2019/06/08  21:49:00  BASE  8.24376  9    9.59028  22   -0.9  96    -1.4  0     0     978.7    NA       0.0000   9999     0     0     0    
2019/06/08  21:50:00  BASE  7.92036  11   9.59028  22   -0.9  97    -1.4  0     0     978.8    NA       0.0000   9999     0     0     0    
2019/06/08  21:51:00  BASE  7.22652  13   9.59028  22   -0.9  97    -1.3  0     0     978.8    NA       0.0000   9999     0     0     0    
2019/06/08  21:52:00  BASE  6.72672  13   9.4962   12   -0.9  97    -1.3  0     0     978.9    NA       0.0000   9999     0     0     0    
2019/06/08  21:53:00  BASE  6.70908  14   9.4962   12   -0.9  97    -1.3  0     0     978.9    NA       0.0000   9999     0     0     0    
2019/06/08  21:54:00  BASE  6.4974   13   9.4962   12   -0.9  97    -1.4  0     0     978.9    NA       0.0000   9999     0     0     0    
2019/06/08  21:55:00  BASE  5.8212   14   9.4962   12   -1.0  97    -1.4  0     0     978.9    NA       0.0000   9999     0     0     0    
2019/06/08  21:56:00  BASE  5.51544  13   9.4962   12   -1.0  97    -1.4  0     0     978.9    NA       0.0000   9999     0     0     0    
2019/06/08  21:57:00  BASE  5.95644  9    9.4962   12   -1.0  97    -1.4  0     0     978.9    NA       0.0000   9999     0     0     0    
2019/06/08  21:58:00  BASE  5.92116  10   9.07284  12   -0.9  97    -1.4  0     0     978.9    NA       0.0000   9999     0     0     0    
2019/06/08  21:59:00  BASE  5.89176  15   8.56128  11   -0.9  97    -1.4  0     0     978.9    NA       0.0000   9999     0     0     0    
2019/06/08  22:00:00  BASE  6.25044  19   7.71456  23   -0.9  97    -1.4  0     0     978.9    NA       0.0000   9999     0     0     0    
2019/06/08  22:01:00  BASE  6.41508  19   7.71456  23   -1.0  97    -1.4  0     0     978.9    NA       0.0000   9999     0     0     0    
2019/06/08  22:02:00  BASE  7.04424  16   8.59068  10   -1.0  97    -1.4  0     0     978.8    NA       0.0000   UP       9999  6070  0    
2019/06/08  22:03:00  BASE  7.59108  16   8.59068  10   -1.0  97    -1.4  0     0     978.8    NA       0.0000   UP       9999  6070  0    
2019/06/08  22:04:00  BASE  7.54992  16   8.59068  10   -1.0  97    -1.3  0     0     978.8    NA       0.0000   UP       9999  6070  0    
2019/06/08  22:05:00  BASE  7.8204   13   9.07284  7    -1.0  98    -1.3  0     0     978.8    NA       0.0000   UP       9999  6070  0    
2019/06/08  22:06:00  BASE  8.09088  13   9.07284  7    -1.0  98    -1.3  0     0     978.8    NA       0.0000   UP       9999  5770  0    
2019/06/08  22:07:01  BASE  8.16732  14   9.3786   22   -1.0  98    -1.3  0     0     978.8    NA       0.0000   UP       9999  5770  0    
2019/06/08  22:08:00  BASE  8.62596  14   9.70788  20   -1.1  98    -1.3  0     0     978.8    NA       0.0000   UP       9999  5710  0    
2019/06/08  22:09:00  BASE  8.77884  15   9.70788  20   -1.1  98    -1.3  0     0     978.8    NA       0.0000   UP       9999  5710  0    
2019/06/08  22:10:00  BASE  8.35548  17   9.70788  20   -1.1  99    -1.3  0     0     978.8    NA       0.0000   UP       9999  5710  0    
2019/06/08  22:11:00  BASE  8.19084  17   9.70788  20   -1.1  99    -1.2  0     0     978.8    NA       0.0000   9999     5680  0     0    
2019/06/08  22:12:00  BASE  8.1438   19   9.70788  20   -1.1  99    -1.2  0     0     978.8    NA       0.0000   9999     5710  0     0    
2019/06/08  22:13:00  BASE  8.232    20   9.70788  20   -1.1  99    -1.2  0     0     978.9    NA       0.0000   UP       9999  0     0    
2019/06/08  22:14:00  BASE  7.8498   19   9.70788  20   -1.0  99    -1.2  0     0     978.9    NA       0.0000   UP       9999  0     0    
2019/06/08  22:15:00  BASE  7.27944  17   9.70788  20   -1.0  99    -1.2  0     0     978.9    NA       0.0000   UP       9999  0     0    
2019/06/08  22:16:00  BASE  7.56168  15   9.70788  20   -1.1  99    -1.2  0     0     978.9    NA       0.0000   UP       9999  0     0    
2019/06/08  22:17:00  BASE  7.48524  16   9.70788  20   -1.1  99    -1.2  0     0     978.9    NA       0.0000   UP       9999  0     0    
2019/06/08  22:18:00  BASE  7.53228  16   9.64908  9    -1.0  99    -1.2  0     0     978.8    NA       0.0000   UP       9999  0     0    
2019/06/08  22:19:00  BASE  8.24964  15   9.4668   24   -1.0  99    -1.2  0     0     978.8    NA       0.0000   UP       9999  0     0    
2019/06/08  22:20:00  BASE  7.93212  16   9.4668   24   -1.0  99    -1.2  0     0     978.9    NA       0.0000   UP       9999  0     0    
2019/06/08  22:21:00  BASE  7.50288  17   9.4668   24   -1.0  99    -1.1  0     0     978.9    NA       0.0000   UP       9999  0     0    
2019/06/08  22:22:00  BASE  7.53228  18   9.4668   24   -1.0  99    -1.1  0     0     978.9    NA       0.0000   UP       9999  0     0    
2019/06/08  22:23:00  BASE  7.33824  18   9.25512  16   -1.0  99    -1.1  0     0     978.8    NA       0.0000   UP       9999  3120  0    
2019/06/08  22:24:00  BASE  8.07324  18   9.3492   21   -1.0  99    -1.2  0     0     978.8    NA       0.0000   UP       9999  5020  0    
2019/06/08  22:25:00  BASE  8.379    19   9.3492   21   -1.0  99    -1.2  0     0     978.9    NA       0.0000   9999     0     0     0    
2019/06/08  22:26:00  BASE  8.33784  17   9.59028  16   -1.0  98    -1.2  0     0     978.8    NA       0.0000   9999     0     0     0    
2019/06/08  22:27:00  BASE  8.4378   15   9.59028  16   -1.0  98    -1.2  0     0     978.8    NA       0.0000   9999     4660  0     0    
2019/06/08  22:28:00  BASE  8.42604  15   9.83136  16   -1.0  98    -1.3  0     0     978.8    NA       0.0000   9999     4560  0     0    
2019/06/08  22:29:00  BASE  8.46132  16   9.83136  16   -1.0  98    -1.3  0     0     978.8    NA       0.0000   9999     4720  0     0    
2019/06/08  22:30:00  BASE  8.16732  18   9.83136  16   -1.0  97    -1.4  0     0     978.8    NA       0.0000   9999     4720  0     0    
2019/06/08  22:31:00  BASE  8.51424  20   10.043   20   -1.0  97    -1.4  0     0     978.7    NA       0.0000   UP       9999  390   0    
2019/06/08  22:32:00  BASE  9.00816  21   10.043   20   -1.0  97    -1.4  0     0     978.7    NA       0.0000   UP       9999  4460  0    
2019/06/08  22:33:00  BASE  8.78472  21   10.043   20   -1.0  97    -1.4  0     0     978.7    NA       0.0000   UP       9999  0     0    
2019/06/08  22:34:00  BASE  8.54364  20   10.043   20   -1.0  97    -1.4  0     0     978.7    NA       0.0000   UP       9999  0     0    
2019/06/08  22:35:00  BASE  8.23788  22   10.043   20   -1.1  97    -1.4  0     0     978.7    NA       0.0000   UP       9999  4270  0    
2019/06/08  22:36:00  BASE  8.00268  23   10.043   20   -1.1  98    -1.4  0     0     978.7    NA       0.0000   UP       9999  4300  0    
2019/06/08  22:37:00  BASE  8.40252  21   10.043   20   -1.1  98    -1.4  0     0     978.6    NA       0.0000   UP       9999  4460  0    
2019/06/08  22:38:00  BASE  8.4966   19   10.043   20   -1.1  98    -1.4  0     0     978.7    NA       0.0000   UP       9999  4590  0    
2019/06/08  22:39:00  BASE  8.01444  18   10.043   20   -1.1  98    -1.4  0     0     978.7    NA       0.0000   UP       9999  4690  0    
2019/06/08  22:40:00  BASE  7.69692  17   10.043   20   -1.1  98    -1.4  0     0     978.7    NA       0.0000   UP       9999  4920  0    
2019/06/08  22:41:00  BASE  7.97328  14   9.86076  9    -1.1  98    -1.3  0     0     978.7    NA       0.0000   UP       9999  4860  0    
2019/06/08  22:42:00  BASE  8.42604  13   9.86076  9    -1.1  98    -1.3  0     0     978.7    NA       0.0000   UP       9999  4820  0    
2019/06/08  22:43:00  BASE  8.10264  14   9.86076  9    -1.1  99    -1.3  0     0     978.7    NA       0.0000   UP       9999  4760  0    
2019/06/08  22:44:00  BASE  7.48524  15   9.86076  9    -1.1  99    -1.2  0     0     978.8    NA       0.0000   UP       9999  5050  0    
2019/06/08  22:45:00  BASE  7.30884  14   9.86076  9    -1.1  99    -1.2  0     0     978.8    NA       0.0000   UP       9999  5120  0    
2019/06/08  22:46:00  BASE  7.57932  12   9.86076  9    -1.1  99    -1.2  0     0     978.8    NA       0.0000   UP       9999  0     0    
2019/06/08  22:47:00  BASE  7.60284  12   9.59028  15   -1.0  99    -1.2  0     0     978.8    NA       0.0000   UP       9999  0     0    
2019/06/08  22:48:00  BASE  7.78512  16   9.59028  15   -1.0  99    -1.2  0     0     978.8    NA       0.0000   UP       9999  0     0    
2019/06/08  22:49:00  BASE  8.06736  18   9.59028  15   -1.0  99    -1.2  0     0     978.8    NA       0.0000   9999     0     0     0    
2019/06/08  22:50:00  BASE  7.96152  15   9.59028  15   -1.0  99    -1.1  0     0     978.7    NA       0.0000   9999     0     0     0    
2019/06/08  22:51:00  BASE  8.1144   12   9.59028  15   -1.0  99    -1.1  0     0     978.7    NA       0.0000   9999     0     0     0    
2019/06/08  22:52:00  BASE  8.10852  13   9.59028  15   -1.0  99    -1.1  0     0     978.8    NA       0.0000   9999     0     0     0    
2019/06/08  22:53:00  BASE  8.16732  11   9.59028  9    -1.0  99    -1.1  0     0     978.7    NA       0.0000   9999     0     0     0    
2019/06/08  22:54:00  BASE  8.66712  12   10.0136  2    -1.0  99    -1.1  0     0     978.8    NA       0.0000   9999     0     0     0    
2019/06/08  22:55:00  BASE  8.98464  14   10.2547  17   -1.0  99    -1.1  0     0     978.8    NA       0.0000   9999     0     0     0    
2019/06/08  22:56:00  BASE  8.86704  13   10.2547  17   -1.0  99    -1.2  0     0     978.8    NA       0.0000   9999     5320  0     0    
2019/06/08  22:57:00  BASE  8.57892  14   10.2547  17   -1.0  99    -1.2  0     0     978.9    NA       0.0000   9999     390   0     0    
2019/06/08  22:58:00  BASE  8.33784  16   10.2547  17   -1.0  98    -1.2  0     0     978.8    NA       0.0000   9999     390   0     0    
2019/06/08  22:59:00  BASE  8.42016  18   10.2547  17   -1.0  98    -1.2  0     0     978.8    NA       0.0000   UP       9999  4230  0    
2019/06/08  23:00:00  BASE  8.64948  16   10.2547  17   -1.0  98    -1.3  0     0     978.8    NA       0.0000   UP       9999  4270  0    
2019/06/08  23:01:00  BASE  8.90232  14   10.2547  17   -1.0  98    -1.3  0     0     978.8    NA       0.0000   UP       9999  4200  0    
2019/06/08  23:02:00  BASE  8.7612   14   10.2547  17   -1.0  98    -1.3  0     0     978.9    NA       0.0000   UP       9999  4330  0    
2019/06/08  23:03:00  BASE  8.379    18   10.3782  24   -1.0  98    -1.3  0     0     978.9    NA       0.0000   UP       9999  4460  0    
2019/06/08  23:04:00  BASE  8.75532  17   10.4664  14   -1.0  98    -1.3  0     0     978.9    NA       0.0000   UP       9999  4560  0    
2019/06/08  23:05:00  BASE  8.77296  14   10.4664  14   -1.0  98    -1.3  0     0     978.9    NA       0.0000   UP       9999  0     0    
2019/06/08  23:06:00  BASE  8.39076  14   10.4664  14   -1.0  98    -1.3  0     0     978.9    NA       0.0000   UP       9999  0     0    
2019/06/08  23:07:00  BASE  8.16732  13   10.4664  14   -1.1  98    -1.3  0     0     978.9    NA       0.0000   UP       9999  0     0    
2019/06/08  23:08:00  BASE  7.92624  13   10.4664  14   -1.1  98    -1.4  0     0     978.9    NA       0.0000   UP       9999  430   0    
2019/06/08  23:09:00  BASE  7.6734   13   10.4664  14   -1.1  98    -1.3  0     0     978.9    NA       0.0000   UP       9999  0     0    
2019/06/08  23:10:00  BASE  7.53816  14   10.4664  14   -1.1  98    -1.3  0     0     978.9    NA       0.0000   UP       9999  0     0    
2019/06/08  23:11:00  BASE  7.8792   12   10.4664  14   -1.1  98    -1.4  0     0     978.9    NA       0.0000   UP       9999  0     0    
2019/06/08  23:12:00  BASE  8.23788  11   10.4664  14   -1.1  98    -1.4  0     0     978.9    NA       0.0000   UP       9999  0     0    
2019/06/08  23:13:00  BASE  8.74944  11   10.4664  14   -1.1  98    -1.4  0     0     978.9    NA       0.0000   UP       9999  0     0    
2019/06/08  23:14:00  BASE  9.3786   10   10.4664  14   -1.1  98    -1.4  0     0     978.8    NA       0.0000   UP       9999  0     0    
2019/06/08  23:15:00  BASE  9.27864  11   10.4664  14   -1.1  98    -1.3  0     0     978.9    NA       0.0000   UP       9999  3670  0    
2019/06/08  23:16:00  BASE  8.83764  10   10.4664  14   -1.1  98    -1.3  0     0     978.9    NA       0.0000   UP       9999  0     0    
2019/06/08  23:17:00  BASE  8.98464  10   10.4664  14   -1.1  99    -1.3  0     0     978.8    NA       0.0000   UP       9999  0     0    
2019/06/08  23:18:00  BASE  8.87292  12   10.4664  14   -1.1  99    -1.3  0     0     978.8    NA       0.0000   UP       9999  0     0    
2019/06/08  23:19:00  BASE  8.36724  13   10.4664  14   -1.1  99    -1.2  0     0     978.8    NA       0.0000   UP       9999  3740  0    
2019/06/08  23:20:00  BASE  8.54364  15   10.4664  14   -1.1  99    -1.2  0     0     978.8    NA       0.0000   UP       9999  3770  0    
2019/06/08  23:21:00  BASE  8.80236  17   10.4664  14   -1.1  100   -1.2  0     0     978.8    NA       0.0000   UP       9999  3640  0    
2019/06/08  23:22:00  BASE  10.0372  16   12.7067  15   -1.1  100   -1.1  0     0     978.6    NA       0.0000   UP       9999  3710  0    
2019/06/08  23:23:00  BASE  10.5487  15   12.7067  15   -1.1  100   -1.1  0     0     978.7    NA       0.0000   UP       9999  5450  0    
2019/06/08  23:24:00  BASE  10.0195  17   12.7067  15   -1.1  100   -1.1  0     0     978.7    NA       0.0000   UP       9999  5840  0    
2019/06/08  23:25:00  BASE  10.8486  17   12.7067  15   -1.1  100   -1.1  0     0     978.6    NA       0.0000   UP       9999  6230  0    
2019/06/08  23:26:00  BASE  10.9662  17   12.7067  15   -1.1  100   -1.1  0     0     978.7    NA       0.0000   9999     6560  0     0    
2019/06/08  23:27:00  BASE  10.6722  18   12.7067  15   -1.1  100   -1.1  0     0     978.7    NA       0.0000   9999     6370  0     0    
2019/06/08  23:28:00  BASE  10.6016  17   12.7067  15   -1.1  100   -1.2  0     0     978.7    NA       0.0000   9999     0     0     0    
2019/06/08  23:29:00  BASE  10.8016  17   12.7067  15   -1.1  99    -1.2  0     0     978.7    NA       0.0000   9999     5940  0     0    
2019/06/08  23:30:00  BASE  11.3602  17   12.7067  15   -1.1  99    -1.2  0     0     978.6    NA       0.0000   9999     0     0     0    
2019/06/08  23:31:00  BASE  11.5189  18   12.7067  15   -1.1  99    -1.2  0     0     978.7    NA       0.0000   9999     0     0     0    
2019/06/08  23:32:00  BASE  11.2661  18   12.642   18   -1.1  99    -1.2  0     0     978.6    NA       0.0000   9999     5840  0     0    
2019/06/08  23:33:00  BASE  11.4425  18   12.9478  20   -1.0  99    -1.2  0     0     978.6    NA       0.0000   9999     5610  0     0    
2019/06/08  23:34:00  BASE  11.9952  19   13.524   24   -1.0  98    -1.2  0     0     978.6    NA       0.0000   9999     5710  0     0    
2019/06/08  23:35:00  BASE  12.2128  20   13.524   24   -1.0  98    -1.3  0     0     978.6    NA       0.0000   9999     5640  0     0    
2019/06/08  23:36:00  BASE  11.9188  20   13.524   24   -1.0  98    -1.3  0     0     978.6    NA       0.0000   9999     0     0     0    
2019/06/08  23:37:00  BASE  11.6424  21   13.524   24   -1.0  98    -1.3  0     0     978.6    NA       0.0000   9999     0     0     0    
2019/06/08  23:38:00  BASE  11.7424  18   13.524   24   -1.0  97    -1.4  0     0     978.7    NA       0.0000   9999     0     0     0    
2019/06/08  23:39:00  BASE  11.5013  16   13.524   24   -1.0  97    -1.4  0     0     978.7    NA       0.0000   9999     0     0     0    
2019/06/08  23:40:00  BASE  11.4248  18   13.524   24   -1.0  97    -1.4  0     0     978.6    NA       0.0000   9999     4300  0     0    
2019/06/08  23:41:00  BASE  11.1779  19   13.524   24   -1.0  97    -1.4  0     0     978.7    NA       0.0000   9999     4200  0     0    
2019/06/08  23:42:00  BASE  10.9603  20   13.524   24   -1.0  97    -1.5  0     0     978.7    NA       0.0000   9999     0     0     0    
2019/06/08  23:43:00  BASE  11.3778  19   13.524   24   -1.0  96    -1.5  0     0     978.7    NA       0.0000   9999     0     0     0    
2019/06/08  23:44:00  BASE  11.7894  17   13.4299  24   -1.0  96    -1.5  0     0     978.6    NA       0.0000   9999     0     0     0    
2019/06/08  23:45:00  BASE  11.7835  16   13.4299  20   -1.0  96    -1.6  0     0     978.6    NA       0.0000   9999     0     0     0    
2019/06/08  23:46:00  BASE  11.8717  16   13.4299  20   -1.0  96    -1.6  0     0     978.6    NA       0.0000   9999     0     0     0    
2019/06/08  23:47:00  BASE  12.6185  17   13.7004  15   -1.0  96    -1.6  0     0     978.6    NA       0.0000   9999     0     0     0    
2019/06/08  23:48:00  BASE  12.9595  18   14.0356  17   -1.0  96    -1.6  0     0     978.6    NA       0.0000   9999     0     0     0    
2019/06/08  23:49:00  BASE  12.7596  19   14.0356  17   -1.0  96    -1.6  0     0     978.7    NA       0.0000   9999     0     0     0    
2019/06/08  23:50:00  BASE  12.2363  18   14.0356  17   -1.0  96    -1.6  0     0     978.7    NA       0.0000   9999     0     0     0    
2019/06/08  23:51:00  BASE  12.0834  17   14.0356  17   -1.0  96    -1.6  0     0     978.7    NA       0.0000   9999     0     0     0    
2019/06/08  23:52:00  BASE  11.8541  17   14.0356  17   -1.0  96    -1.6  0     0     978.8    NA       0.0000   9999     0     0     0    
2019/06/08  23:53:00  BASE  10.9603  16   14.0356  17   -1.0  96    -1.6  0     0     978.8    NA       0.0000   9999     0     0     0    
2019/06/08  23:54:00  BASE  10.5017  16   14.0356  17   -1.0  95    -1.6  0     0     978.9    NA       0.0000   9999     0     0     0    
2019/06/08  23:55:00  BASE  10.5664  16   14.0356  17   -1.0  95    -1.6  0     0     978.9    NA       0.0000   9999     0     0     0    
2019/06/08  23:56:00  BASE  10.7016  16   14.0356  17   -1.0  95    -1.7  0     0     978.9    NA       0.0000   9999     0     0     0    
2019/06/08  23:57:00  BASE  10.6193  16   14.0356  17   -1.0  95    -1.7  0     0     978.9    NA       0.0000   9999     0     0     0    
2019/06/08  23:58:00  BASE  10.4076  17   13.277   22   -1.0  95    -1.6  0     0     978.9    NA       0.0000   9999     0     0     0    
2019/06/08  23:59:00  BASE  10.1136  17   13.277   22   -1.0  95    -1.6  0     0     979.0    NA       0.0000   9999     0     0     0